[[{"header":{"parameterUnit":"m.s-1","parameterCategory":1,"la1":30.6,"la2":28.766,"lo1":-90.7593,"lo2":-88.6598,"dy":0.0162,"dx":0.0183,"nx":116,"ny":114,"refTime":"2023-04-02T06:00:00:Z","depth":0,"parameterNumber":2,"parameterNumberName":"U-component_of_WINDS"},"data":[0.0,0.0,0.0,0.0,0.0,0.0,0.0,0.0,0.0,0.0,0.0,0.0,0.0,0.0,0.0,0.0,0.0,0.0,0.0,0.0,0.0,0.0,0.0,0.0,0.0,0.0,0.0,0.0,0.0,0.0,0.0,0.0,0.0,0.0,0.0,0.0,0.0,0.0,0.0,0.0,0.0,0.0,0.0,0.0,0.0,0.0,0.0,0.0,0.0,0.0,0.0,0.0,0.0,0.0,0.0,0.0,0.0,0.0,0.0,0.0,0.0,0.0,0.0,0.0,0.0,0.0,0.0,0.0,0.0,0.0,0.0,0.0,0.0,0.0,0.0,0.0,0.0,0.0,0.0,0.0,0.0,0.0,0.0,0.0,0.0,0.0,0.0,0.0,0.0,0.0,0.0,0.0,0.0,0.0,0.0,0.0,0.0,0.0,0.0,0.0,0.0,0.0,0.0,0.0,0.0,0.0,0.0,0.0,0.0,0.0,0.0,0.0,0.0,0.0,0.0,0.0,0.0,0.0,0.0,0.0,0.0,0.0,0.0,0.0,0.0,0.0,0.0,0.0,0.0,0.0,0.0,0.0,0.0,0.0,0.0,0.0,0.0,0.0,0.0,0.0,0.0,0.0,0.0,0.0,0.0,0.0,0.0,0.0,0.0,0.0,0.0,0.0,0.0,0.0,0.0,0.0,0.0,0.0,0.0,0.0,0.0,0.0,0.0,0.0,0.0,0.0,0.0,0.0,0.0,0.0,0.0,0.0,0.0,0.0,0.0,0.0,0.0,0.0,0.0,0.0,0.0,0.0,0.0,0.0,0.0,0.0,0.0,0.0,0.0,0.0,0.0,0.0,0.0,0.0,0.0,0.0,0.0,0.0,0.0,0.0,0.0,0.0,0.0,0.0,0.0,0.0,0.0,0.0,0.0,0.0,0.0,0.0,0.0,0.0,0.0,0.0,0.0,0.0,0.0,0.0,0.0,0.0,0.0,0.0,0.0,0.0,0.0,0.0,0.0,0.0,0.0,0.0,0.0,0.0,0.0,0.0,0.0,0.0,0.0,0.0,0.0,0.0,0.0,0.0,0.0,0.0,0.0,0.0,0.0,0.0,0.0,0.0,0.0,0.0,0.0,0.0,0.0,0.0,0.0,0.0,0.0,0.0,0.0,0.0,0.0,0.0,0.0,0.0,0.0,0.0,0.0,0.0,0.0,0.0,0.0,0.0,0.0,0.0,0.0,0.0,0.0,0.0,0.0,0.0,0.0,0.0,0.0,0.0,0.0,0.0,0.0,0.0,0.0,0.0,0.0,0.0,0.0,0.0,0.0,0.0,0.0,0.0,0.0,0.0,0.0,0.0,0.0,0.0,0.0,0.0,0.0,0.0,0.0,0.0,0.0,0.0,0.0,0.0,0.0,0.0,0.0,0.0,0.0,0.0,0.0,0.0,0.0,0.0,0.0,0.0,0.0,0.0,0.0,0.0,0.0,0.0,0.0,0.0,0.0,0.0,0.0,0.0,0.0,0.0,0.0,0.0,0.0,0.0,0.0,0.0,0.0,0.0,0.0,0.0,0.0,0.0,0.0,0.0,0.0,0.0,0.0,0.0,0.0,0.0,0.0,0.0,0.0,0.0,0.0,0.0,0.0,0.0,0.0,0.0,0.0,0.0,0.0,0.0,0.0,0.0,0.0,0.0,0.0,0.0,0.0,0.0,0.0,0.0,0.0,0.0,0.0,0.0,0.0,0.0,0.0,0.0,0.0,0.0,0.0,0.0,0.0,0.0,0.0,0.0,0.0,0.0,0.0,0.0,0.0,0.0,0.0,0.0,0.0,0.0,0.0,0.0,0.0,0.0,0.0,0.0,0.0,0.0,0.0,0.0,0.0,0.0,0.0,0.0,0.0,0.0,0.0,0.0,0.0,0.0,0.0,0.0,0.0,0.0,0.0,0.0,0.0,0.0,0.0,0.0,0.0,0.0,0.0,0.0,0.0,0.0,0.0,0.0,0.0,0.0,0.0,0.0,0.0,0.0,0.0,0.0,0.0,0.0,0.0,0.0,0.0,0.0,0.0,0.0,0.0,0.0,0.0,0.0,0.0,0.0,0.0,0.0,0.0,0.0,0.0,0.0,0.0,0.0,0.0,0.0,0.0,0.0,0.0,0.0,0.0,0.0,0.0,0.0,0.0,0.0,0.0,0.0,0.0,0.0,0.0,0.0,0.0,0.0,0.0,0.0,0.0,0.0,0.0,0.0,0.0,0.0,0.0,0.0,0.0,0.0,0.0,0.0,0.0,0.0,0.0,0.0,0.0,0.0,0.0,0.0,0.0,0.0,0.0,0.0,0.0,0.0,0.0,0.0,0.0,0.0,0.0,0.0,0.0,0.0,0.0,0.0,0.0,0.0,0.0,0.0,0.0,0.0,0.0,0.0,0.0,0.0,0.0,0.0,0.0,0.0,0.0,0.0,0.0,0.0,0.0,0.0,0.0,0.0,0.0,0.0,0.0,0.0,0.0,0.0,0.0,0.0,0.0,0.0,0.0,0.0,0.0,0.0,0.0,0.0,0.0,0.0,0.0,0.0,0.0,0.0,0.0,0.0,0.0,0.0,0.0,0.0,0.0,0.0,0.0,0.0,0.0,0.0,0.0,0.0,0.0,0.0,0.0,0.0,0.0,0.0,0.0,0.0,0.0,0.0,0.0,0.0,0.0,0.0,0.0,0.0,0.0,0.0,0.0,0.0,0.0,0.0,0.0,0.0,0.0,0.0,0.0,0.0,0.0,0.0,0.0,0.0,0.0,0.0,0.0,0.0,0.0,0.0,0.0,0.0,0.0,0.0,0.0,0.0,0.0,0.0,0.0,0.0,0.0,0.0,0.0,0.0,0.0,0.0,0.0,0.0,0.0,0.0,0.0,0.0,0.0,0.0,0.0,0.0,0.0,0.0,0.0,0.0,0.0,0.0,0.0,0.0,0.0,0.0,0.0,0.0,0.0,0.0,0.0,0.0,0.0,0.0,0.0,0.0,0.0,0.0,0.0,0.0,0.0,0.0,0.0,0.0,0.0,0.0,0.0,0.0,0.0,0.0,0.0,0.0,0.0,0.0,0.0,0.0,0.0,0.0,0.0,0.0,0.0,0.0,0.0,0.0,0.0,0.0,0.0,0.0,0.0,0.0,0.0,0.0,0.0,0.0,0.0,0.0,0.0,0.0,0.0,0.0,0.0,0.0,0.0,0.0,0.0,0.0,0.0,0.0,0.0,0.0,0.0,0.0,0.0,0.0,0.0,0.0,0.0,0.0,0.0,0.0,0.0,0.0,0.0,0.0,0.0,0.0,0.0,0.0,0.0,0.0,0.0,0.0,0.0,0.0,0.0,0.0,0.0,0.0,0.0,0.0,0.0,0.0,0.0,0.0,0.0,0.0,0.0,0.0,0.0,0.0,0.0,0.0,0.0,0.0,0.0,0.0,0.0,0.0,0.0,0.0,0.0,0.0,0.0,0.0,0.0,0.0,0.0,0.0,0.0,0.0,0.0,0.0,0.0,0.0,0.0,0.0,0.0,0.0,0.0,0.0,0.0,0.0,0.0,0.0,0.0,0.0,0.0,0.0,0.0,0.0,0.0,0.0,0.0,0.0,0.0,0.0,0.0,0.0,0.0,0.0,0.0,0.0,0.0,0.0,0.0,0.0,0.0,0.0,0.0,0.0,0.0,0.0,0.0,0.0,0.0,0.0,0.0,0.0,0.0,0.0,0.0,0.0,0.0,0.0,0.0,0.0,0.0,0.0,0.0,0.0,0.0,0.0,0.0,0.0,0.0,0.0,0.0,0.0,0.0,0.0,0.0,0.0,0.0,0.0,0.0,0.0,0.0,0.0,0.0,0.0,0.0,0.0,0.0,0.0,0.0,0.0,0.0,0.0,0.0,0.0,0.0,0.0,0.0,0.0,0.0,0.0,0.0,0.0,0.0,0.0,0.0,0.0,0.0,0.0,0.0,0.0,0.0,0.0,0.0,0.0,0.0,0.0,0.0,0.0,0.0,0.0,0.0,0.0,0.0,0.0,0.0,0.0,0.0,0.0,0.0,0.0,0.0,0.0,0.0,0.0,0.0,0.0,0.0,0.0,0.0,0.0,0.0,0.0,0.0,0.0,0.0,0.0,0.0,0.0,0.0,0.0,0.0,0.0,0.0,0.0,0.0,0.0,0.0,0.0,0.0,0.0,0.0,0.0,0.0,0.0,0.0,0.0,0.0,0.0,0.0,0.0,0.0,0.0,0.0,0.0,0.0,0.0,0.0,0.0,0.0,0.0,0.0,0.0,0.0,0.0,0.0,0.0,0.0,0.0,0.0,0.0,0.0,0.0,0.0,0.0,0.0,0.0,0.0,0.0,0.0,0.0,0.0,0.0,0.0,0.0,0.0,0.0,0.0,0.0,0.0,0.0,0.0,0.0,0.0,0.0,0.0,0.0,0.0,0.0,0.0,0.0,0.0,0.0,0.0,0.0,0.0,0.0,0.0,0.0,0.0,0.0,0.0,0.0,0.0,0.0,0.0,0.0,0.0,0.0,0.0,0.0,0.0,0.0,0.0,0.0,0.0,0.0,0.0,0.0,0.0,0.0,0.0,0.0,0.0,0.0,0.0,0.0,0.0,0.0,0.0,0.0,0.0,0.0,0.0,0.0,0.0,0.0,0.0,0.0,0.0,0.0,0.0,0.0,0.0,0.0,0.0,0.0,0.0,0.0,0.0,0.0,0.0,0.0,0.0,0.0,0.0,0.0,0.0,0.0,0.0,0.0,0.0,0.0,0.0,0.0,0.0,0.0,0.0,0.0,0.0,0.0,0.0,0.0,0.0,0.0,0.0,0.0,0.0,0.0,0.0,0.0,0.0,0.0,0.0,0.0,0.0,0.0,0.0,0.0,0.0,0.0,0.0,0.0,0.0,0.0,0.0,0.0,0.0,0.0,0.0,0.0,0.0,0.0,0.0,0.0,0.0,0.0,0.0,0.0,0.0,0.0,0.0,0.0,0.0,0.0,0.0,0.0,0.0,0.0,0.0,0.0,0.0,0.0,0.0,0.0,0.0,0.0,0.0,0.0,0.0,0.0,0.0,0.0,0.0,0.0,0.0,0.0,0.0,0.0,0.0,0.0,0.0,0.0,0.0,0.0,0.0,0.0,0.0,0.0,0.0,0.0,0.0,0.0,0.0,0.0,0.0,0.0,0.0,0.0,0.0,0.0,0.0,0.0,0.0,0.0,0.0,0.0,0.0,0.0,0.0,0.0,0.0,0.0,0.0,0.0,0.0,0.0,0.0,0.0,0.0,0.0,0.0,0.0,0.0,0.0,0.0,0.0,0.0,0.0,0.0,0.0,0.0,0.0,0.0,0.0,0.0,0.0,0.0,0.0,0.0,0.0,0.0,0.0,0.0,0.0,0.0,0.0,0.0,0.0,0.0,0.0,0.0,0.0,0.0,0.0,0.0,0.0,0.0,0.0,0.0,0.0,0.0,0.0,0.0,0.0,0.0,0.0,0.0,0.0,0.0,0.0,0.0,0.0,0.0,0.0,0.0,0.0,0.0,0.0,0.0,0.0,0.0,0.0,0.0,0.0,0.0,0.0,0.0,0.0,0.0,0.0,0.0,0.0,0.0,0.0,0.0,0.0,0.0,0.0,0.0,0.0,0.0,0.0,0.0,0.0,0.0,0.0,0.0,0.0,0.0,0.0,0.0,0.0,0.0,0.0,0.0,0.0,0.0,0.0,0.0,0.0,0.0,0.0,0.0,0.0,0.0,0.0,0.0,0.0,0.0,0.0,0.0,0.0,0.0,0.0,0.0,0.0,0.0,0.0,0.0,0.0,0.0,0.0,0.0,0.0,0.0,0.0,0.0,0.0,0.0,0.0,0.0,0.0,0.0,0.0,0.0,0.0,0.0,0.0,0.0,0.0,0.0,0.0,0.0,0.0,0.0,0.0,0.0,0.0,0.0,0.0,0.0,0.0,0.0,0.0,0.0,0.0,0.0,0.0,0.0,0.0,0.0,0.0,0.0,0.0,0.0,0.0,0.0,0.0,0.0,0.0,0.0,0.0,0.0,0.0,0.0,0.0,0.0,0.0,2.6572,0.0,0.0,0.0,0.0,0.0,0.0,0.0,0.0,0.0,0.0,0.0,0.0,0.0,0.0,0.0,0.0,0.0,0.0,0.0,0.0,0.0,0.0,0.0,0.0,0.0,0.0,0.0,0.0,0.0,0.0,0.0,0.0,0.0,0.0,0.0,0.0,0.0,0.0,0.0,2.0908,2.0908,2.0898,2.1572,2.1681,2.127,0.0,0.0,0.0,0.0,0.0,0.0,0.0,0.0,0.0,0.0,0.0,0.0,0.0,0.0,0.0,0.0,0.0,0.0,0.0,0.0,0.0,0.0,0.0,0.0,0.0,0.0,0.0,0.0,0.0,0.0,0.0,0.0,0.0,0.0,0.0,0.0,0.0,0.0,0.0,0.0,0.0,0.0,0.0,0.0,0.0,0.0,0.0,0.0,0.0,0.0,0.0,0.0,0.0,0.0,0.0,0.0,0.0,0.0,0.0,0.0,0.0,0.0,0.0,0.0,0.0,0.0,0.0,0.0,0.0,0.0,0.0,2.6499,0.0,0.0,0.0,0.0,0.0,0.0,0.0,0.0,0.0,0.0,0.0,0.0,0.0,0.0,0.0,0.0,0.0,0.0,0.0,0.0,0.0,0.0,0.0,0.0,2.2869,2.2518,2.2441,2.2256,0.0,0.0,0.0,0.0,0.0,0.0,0.0,2.0781,2.0869,2.0918,2.0996,2.1201,2.1531,2.1865,2.1661,2.1055,2.0879,0.0,0.0,0.0,0.0,0.0,0.0,0.0,0.0,0.0,0.0,0.0,0.0,0.0,0.0,0.0,0.0,0.0,0.0,0.0,0.0,0.0,0.0,0.0,0.0,0.0,0.0,0.0,0.0,0.0,0.0,0.0,0.0,0.0,0.0,0.0,0.0,0.0,0.0,0.0,0.0,0.0,0.0,0.0,0.0,0.0,0.0,0.0,0.0,0.0,0.0,0.0,0.0,0.0,0.0,0.0,0.0,0.0,0.0,0.0,0.0,0.0,0.0,0.0,2.6499,2.6499,2.6499,2.6499,2.6499,2.6499,2.6499,2.6499,2.6499,2.6499,0.0,0.0,0.0,0.0,0.0,0.0,0.0,0.0,0.0,0.0,0.0,0.0,0.0,0.0,0.0,0.0,0.0,0.0,0.0,0.0,0.0,2.2576,2.2557,2.2498,2.2178,2.1964,0.0,0.0,0.0,0.0,0.0,0.0,2.1123,2.1514,2.1894,2.2256,2.2596,2.281,2.2838,2.2557,2.2568,2.2826,2.2062,2.1769,2.1777,0.0,0.0,0.0,0.0,0.0,0.0,0.0,0.0,0.0,0.0,0.0,0.0,0.0,0.0,0.0,0.0,0.0,0.0,0.0,0.0,0.0,0.0,0.0,0.0,0.0,0.0,0.0,0.0,0.0,0.0,0.0,0.0,0.0,0.0,0.0,0.0,0.0,0.0,0.0,0.0,0.0,2.6688,2.6612,0.0,0.0,0.0,0.0,0.0,0.0,0.0,0.0,0.0,0.0,0.0,0.0,0.0,2.6499,2.6499,2.6499,2.6499,2.6499,2.6499,2.6499,2.6499,2.6499,2.6499,2.6499,2.6499,0.0,2.6499,2.6499,0.0,0.0,0.0,0.0,0.0,0.0,0.0,0.0,0.0,0.0,0.0,0.0,0.0,0.0,0.0,0.0,0.0,0.0,0.0,0.0,0.0,2.2488,2.2488,2.2488,2.2344,2.2031,2.1532,2.1552,0.0,0.0,0.0,2.1581,2.1581,2.1787,2.209,2.2488,2.3174,2.3484,2.3484,2.3532,2.3682,2.3838,2.3232,2.2822,2.2547,2.2108,0.0,0.0,0.0,0.0,0.0,0.0,0.0,0.0,0.0,0.0,0.0,0.0,0.0,0.0,0.0,0.0,0.0,0.0,0.0,0.0,0.0,0.0,0.0,0.0,0.0,0.0,0.0,0.0,0.0,0.0,0.0,0.0,0.0,0.0,0.0,0.0,0.0,0.0,0.0,2.6499,2.6499,2.6499,2.6499,2.6499,0.0,0.0,0.0,0.0,0.0,0.0,0.0,0.0,0.0,2.6499,2.6499,2.6499,2.6499,2.6499,2.6499,2.6499,2.6499,2.6499,2.6499,2.6499,2.6499,2.6499,2.6499,2.6499,2.6499,2.6499,2.6499,2.6499,0.0,0.0,0.0,0.0,2.6499,2.6499,0.0,0.0,0.0,0.0,0.0,0.0,0.0,0.0,0.0,0.0,0.0,0.0,2.2363,2.2353,2.2393,2.2479,2.2293,2.1991,2.1571,2.1768,0.0,0.0,2.165,2.1905,2.1905,2.2314,2.2744,2.3174,2.3916,2.4287,2.4287,2.4352,2.4449,2.456,2.4023,2.3672,2.3383,2.2762,2.2578,2.2627,0.0,0.0,0.0,0.0,0.0,0.0,0.0,0.0,0.0,0.0,0.0,0.0,0.0,0.0,0.0,0.0,0.0,0.0,0.0,0.0,0.0,0.0,0.0,0.0,0.0,0.0,0.0,0.0,0.0,0.0,0.0,0.0,0.0,0.0,0.0,0.0,0.0,2.6499,2.6499,2.6499,2.6499,2.6499,0.0,0.0,0.0,0.0,0.0,0.0,2.6499,2.6499,2.6499,2.6499,2.6499,2.6499,2.6499,2.6499,2.6499,2.6499,2.6499,2.6499,2.6499,2.6499,2.6499,2.6499,2.6499,2.6499,2.6499,2.6499,2.6499,2.6499,2.6499,2.6499,2.6499,2.6499,2.6499,2.6499,0.0,0.0,0.0,0.0,0.0,0.0,0.0,0.0,0.0,0.0,0.0,2.2353,2.1963,2.1924,2.208,2.248,2.1747,2.1601,2.2371,2.21,2.1689,2.121,2.165,2.1905,2.1905,2.3467,2.4502,2.4965,2.541,2.5586,2.5601,2.4781,2.4639,2.5024,2.4183,2.4004,2.4245,2.3015,2.2754,2.3078,2.2248,0.0,0.0,0.0,0.0,0.0,0.0,0.0,0.0,0.0,0.0,0.0,0.0,0.0,0.0,0.0,0.0,0.0,0.0,0.0,0.0,0.0,0.0,0.0,0.0,0.0,0.0,0.0,0.0,0.0,0.0,0.0,0.0,0.0,0.0,0.0,0.0,0.0,0.0,2.6499,2.6499,0.0,0.0,0.0,0.0,2.6499,2.6499,2.6499,2.6499,2.6499,2.6499,2.6499,2.6499,2.6499,2.6499,2.6499,2.6499,2.6499,2.6499,2.6499,2.6499,2.6499,2.6499,2.6499,2.6499,2.6499,2.6499,2.6499,2.6499,2.6499,2.6499,2.6499,2.6499,2.6499,2.6499,2.6499,0.0,0.0,0.0,0.0,0.0,0.0,0.0,0.0,2.2256,2.1542,2.1846,2.1943,2.1493,2.1719,2.1974,2.21,2.208,2.2049,2.2109,2.2217,2.2217,2.204,2.2207,2.2549,2.3117,2.3701,2.4219,2.4648,2.4781,2.4859,2.4859,2.4547,2.4648,2.5063,2.4453,2.4576,2.5171,2.4147,2.3984,2.4362,2.3479,2.3105,0.0,0.0,0.0,0.0,0.0,0.0,0.0,0.0,0.0,0.0,0.0,0.0,0.0,0.0,0.0,0.0,0.0,0.0,0.0,0.0,0.0,0.0,0.0,0.0,0.0,0.0,0.0,0.0,0.0,0.0,0.0,0.0,0.0,0.0,0.0,0.0,0.0,2.5599,2.6112,0.0,2.6499,2.6499,2.6499,2.6499,2.6826,2.6997,2.6997,2.7336,2.7537,2.7537,2.7537,2.7537,2.7537,2.7537,2.7537,2.7537,2.7537,2.7537,2.7537,2.7537,2.7537,2.7537,2.7537,2.7537,2.7537,2.7537,2.7123,2.6499,2.6499,2.6499,2.6499,2.6499,2.6499,2.6499,0.0,0.0,0.0,0.0,0.0,0.0,0.0,0.0,2.1854,2.1268,2.1464,2.1611,2.1454,2.1562,2.1787,2.207,2.2217,2.2126,2.1726,2.185,2.1869,2.1674,2.2074,2.2492,2.2936,2.3499,2.3813,2.3793,2.4206,2.4469,2.4629,2.4336,2.4512,2.5063,2.4463,2.4687,2.5454,2.4883,2.4828,2.5033,2.431,2.4004,2.3955,0.0,0.0,0.0,0.0,0.0,0.0,0.0,0.0,0.0,0.0,0.0,0.0,0.0,0.0,0.0,0.0,0.0,0.0,0.0,0.0,0.0,0.0,0.0,0.0,0.0,0.0,0.0,0.0,0.0,0.0,0.0,0.0,0.0,0.0,0.0,2.6081,2.557,2.6409,2.7052,2.7052,2.7052,2.7052,2.7052,2.7374,2.7557,2.7557,2.7908,2.8109,2.8109,2.8109,2.8109,2.8109,2.8109,2.8109,2.8109,2.8109,2.8109,2.8109,2.8109,2.8109,2.8109,2.8109,2.8109,2.8109,2.8109,2.767,2.7052,2.7052,2.7052,2.7052,2.7052,2.7052,2.7052,0.0,0.0,0.0,0.0,0.0,0.0,0.0,2.1493,2.119,2.119,2.119,2.1376,2.1816,2.1453,2.1521,2.2381,2.2087,2.17,2.1318,2.1023,2.0603,1.9982,2.118,2.1714,2.1337,2.29,2.3364,2.2633,2.3787,2.459,2.5014,2.4183,2.4251,2.5033,2.4202,2.431,2.5112,2.5112,2.5112,2.5072,2.4609,2.441,2.4394,0.0,0.0,0.0,0.0,0.0,0.0,0.0,0.0,0.0,0.0,0.0,0.0,0.0,0.0,0.0,0.0,0.0,0.0,0.0,0.0,0.0,0.0,0.0,0.0,0.0,0.0,0.0,0.0,0.0,0.0,0.0,0.0,0.0,2.4222,2.5101,2.5949,2.6401,2.7403,2.8073,2.8109,2.8109,2.8109,2.8109,2.8122,2.8134,2.8134,2.8147,2.816,2.8185,2.8185,2.8197,2.821,2.821,2.821,2.821,2.821,2.821,2.821,2.821,2.821,2.821,2.821,2.821,2.821,2.821,2.821,2.8197,2.8134,2.8109,2.8109,2.8109,2.8109,2.8109,0.0,0.0,0.0,0.0,0.0,0.0,0.0,2.1493,2.119,2.119,2.119,2.1239,2.1376,2.0765,2.0665,2.149,2.1228,2.0976,2.086,2.0563,1.9931,1.8888,2.0519,2.1562,2.1789,2.1933,2.2472,2.3469,2.3464,2.3532,2.364,2.3406,2.3757,2.458,2.4346,2.4727,2.5532,2.5532,2.5532,2.5493,2.5092,2.4916,2.4867,0.0,0.0,0.0,0.0,0.0,0.0,0.0,0.0,0.0,0.0,0.0,0.0,0.0,0.0,0.0,0.0,0.0,0.0,0.0,0.0,0.0,0.0,0.0,0.0,0.0,0.0,0.0,0.0,0.0,0.0,0.0,2.4454,2.3668,2.3571,2.4421,2.5164,2.5389,2.6316,2.7254,2.8005,2.8109,2.8109,2.8109,2.8455,2.8681,2.8681,2.9082,2.9515,2.9898,2.991,3.0105,3.0482,3.0482,3.0482,3.0482,3.0482,3.0482,3.0482,3.0482,3.0482,3.0482,3.0482,3.0482,3.0482,3.0482,3.0482,3.0331,2.8725,2.8109,2.8109,2.8109,2.8109,2.8109,0.0,0.0,0.0,0.0,0.0,0.0,0.0,2.0939,2.0915,2.0806,2.0489,2.0641,2.1647,2.0146,1.9587,2.0872,2.0356,1.9746,1.9275,1.8901,1.8443,1.793,1.9434,2.0501,2.0947,2.1172,2.1531,2.2011,2.2228,2.2169,2.1834,2.167,2.232,2.3653,2.3653,2.4325,2.5469,2.564,2.5693,2.5689,2.5449,2.5352,2.5303,2.4853,2.4687,2.4668,2.4459,2.4391,2.4391,2.4391,0.0,0.0,0.0,0.0,0.0,0.0,0.0,0.0,0.0,0.0,0.0,0.0,0.0,0.0,0.0,0.0,0.0,0.0,0.0,0.0,0.0,0.0,0.0,0.0,2.4221,2.3509,2.3509,2.4488,2.5315,2.5598,2.653,2.7594,2.8706,2.838,2.8292,2.8775,2.9308,2.9622,2.9622,3.0168,3.0608,3.0934,3.0947,3.1085,3.1406,3.1406,3.1406,3.1406,3.1406,3.1406,3.1406,3.1406,3.1406,3.1406,3.1406,3.1406,3.1406,3.1406,3.1406,0.0,0.0,0.0,0.0,0.0,2.9013,2.8812,0.0,0.0,0.0,0.0,0.0,0.0,0.0,2.0059,2.0375,2.0221,1.9419,1.9797,2.2225,1.9637,1.8514,2.0522,1.9502,1.831,1.7274,1.6907,1.6818,1.6995,1.8122,1.8928,1.9283,2.035,2.044,1.9497,2.0567,2.0718,2.002,1.9668,2.0508,2.232,2.2516,2.3457,2.4922,2.5474,2.5693,2.5693,2.5693,2.5693,2.5669,2.5293,2.517,2.5112,2.4707,2.4547,2.4547,2.4547,0.0,0.0,0.0,0.0,0.0,0.0,0.0,0.0,0.0,0.0,0.0,0.0,0.0,0.0,0.0,0.0,0.0,0.0,0.0,0.0,0.0,0.0,0.0,0.0,2.4426,2.3721,2.3721,2.4862,2.5837,2.6262,2.7258,2.8331,2.9393,2.8812,2.8777,2.9721,3.034,3.0636,3.0483,0.0,0.0,0.0,0.0,3.1512,3.1595,3.1587,3.1587,3.1587,3.1587,3.1587,3.1587,3.1587,3.1587,3.1587,3.1587,3.1587,3.1595,3.1532,3.1486,3.1474,3.1411,3.1406,3.1336,3.0871,3.0394,2.9967,0.0,0.0,0.0,0.0,0.0,0.0,0.0,1.943,1.9518,2.0117,1.8925,1.9165,2.2169,1.9303,1.8103,2.0502,1.8999,1.7712,1.7221,1.7386,1.6971,1.5805,1.7153,1.7964,1.8048,1.828,1.8749,1.9497,1.9739,1.978,1.9618,1.9552,1.9881,2.0642,2.2005,2.2997,2.3755,2.5126,2.5693,2.5693,2.5693,2.5693,2.5698,2.562,2.5581,2.5571,2.5493,2.5464,2.5464,2.5464,2.5234,2.4965,2.4965,2.4437,0.0,0.0,0.0,0.0,0.0,0.0,0.0,0.0,0.0,0.0,0.0,0.0,0.0,0.0,0.0,0.0,0.0,0.0,0.0,2.4892,2.3975,2.324,2.324,2.4254,2.5019,2.5115,2.613,2.7021,2.7565,2.9128,2.9982,2.9656,3.0638,3.0823,2.9848,3.082,3.1162,3.0605,3.1545,3.2277,3.2776,3.2776,3.2776,3.2776,0.0,0.0,3.2776,3.2776,3.2776,3.2776,3.2776,3.2776,3.2738,3.2252,3.2051,3.2001,3.1562,3.1406,3.1386,3.1273,3.1173,3.1105,0.0,0.0,0.0,0.0,0.0,0.0,0.0,1.7938,1.8234,1.8471,1.7576,1.7982,2.0694,1.8013,1.6795,1.8786,1.7357,1.6341,1.6304,1.646,1.6281,1.5635,1.6333,1.7061,1.7692,1.7692,1.8002,1.8596,1.8596,1.8265,1.7638,1.7638,1.8101,1.8949,1.9983,2.1277,2.2711,2.3727,2.4488,2.5054,2.5054,2.5054,2.5103,2.5518,2.5571,2.543,2.564,2.5571,2.5439,2.564,2.5562,2.54,2.54,2.4951,2.4408,0.0,0.0,0.0,0.0,0.0,0.0,0.0,0.0,0.0,0.0,0.0,0.0,0.0,0.0,2.4617,2.4049,0.0,2.4034,2.4267,2.3823,2.3513,2.3728,2.4242,2.4717,2.5068,2.5594,2.6333,2.7309,2.8528,2.9087,2.8683,3.0052,3.0643,3.0024,3.0834,3.1434,3.1736,3.2331,3.2801,3.3102,3.3379,3.3504,3.3504,3.3771,3.3897,3.3897,3.3897,3.3746,3.3492,3.3228,3.2939,3.2604,3.2039,3.18,3.1775,3.1499,3.1562,3.18,3.18,3.1625,3.1406,0.0,0.0,0.0,0.0,0.0,0.0,0.0,1.6437,1.6937,1.6825,1.6277,1.6805,1.9245,1.6852,1.5533,1.6674,1.5741,1.5173,1.5384,1.5451,1.5561,1.5795,1.5808,1.6268,1.7318,1.7318,1.7318,1.7318,1.7318,1.681,1.5808,1.5808,1.6339,1.7356,1.7997,1.9414,2.1342,2.2222,2.3154,2.4081,2.4299,2.4391,2.4469,2.5181,2.5254,2.5033,2.5523,2.5367,2.5043,2.5532,2.5601,2.5493,2.5659,2.5371,2.4896,2.4521,2.4121,0.0,0.0,0.0,0.0,0.0,0.0,0.0,0.0,2.2859,2.2713,2.3023,2.3091,2.3091,2.3091,2.3091,2.3259,2.3721,2.3789,2.3935,2.4332,2.4391,2.4627,2.5261,2.5458,2.5959,2.7094,2.769,2.8042,2.8032,2.9593,3.0462,3.021,3.0925,3.1701,3.252,3.285,3.3143,3.3416,3.3579,3.3791,3.406,3.423,3.4464,3.4703,3.4703,3.4424,3.3872,3.3341,3.2826,3.234,3.1775,3.157,3.1537,3.1436,3.1725,3.2194,3.2194,3.2001,3.1733,0.0,0.0,0.0,0.0,0.0,0.0,0.0,0.0,1.6095,1.6716,1.5808,1.6244,1.9178,1.7027,1.5326,1.5248,1.5308,1.5357,1.5391,1.5615,1.5775,1.5808,1.5808,1.5872,1.6015,1.6015,1.6015,1.6015,1.6015,1.5944,1.5808,1.5808,1.5879,1.6076,1.7624,1.8449,1.8869,2.1483,2.2675,2.2887,2.3965,2.4391,2.4401,2.4498,2.4508,2.46,2.5415,2.5171,2.4596,2.5435,2.5191,2.4684,2.5464,2.5142,2.4459,2.4434,2.4121,2.3691,2.324,2.3091,2.3091,2.3091,2.3062,2.3033,0.0,2.3062,2.3042,2.3081,2.3091,2.3091,2.3091,2.3091,2.3259,2.3721,2.3789,2.3935,2.4332,2.4391,2.4587,2.5084,2.5655,2.5857,2.5425,2.7283,2.8701,2.9183,3.0402,3.0639,2.9568,3.0994,3.1411,3.0546,3.1972,3.3318,3.4515,3.3402,3.3426,3.4615,3.3464,3.3546,3.4703,3.4703,3.4424,3.3872,3.3341,3.3065,3.2952,3.2353,3.2106,3.2056,3.1587,3.1725,3.2194,3.2194,3.2503,3.2914,0.0,0.0,0.0,0.0,0.0,0.0,0.0,0.0,0.0,1.5683,1.5458,1.5771,1.7182,1.6049,1.512,1.5022,1.5099,1.524,1.5384,1.5641,1.5808,1.5808,1.5808,1.5808,1.5808,1.5808,1.5808,1.5808,1.5808,1.5808,1.5808,1.5808,1.6197,1.6927,1.7638,1.8738,2.0111,2.1338,2.2249,2.2934,2.3438,2.3649,2.3679,2.3955,2.3874,2.3767,2.4635,2.4547,0.0,2.4742,2.4693,2.4459,2.483,2.4693,2.4342,2.4121,2.3926,2.3691,2.324,2.2937,2.281,2.3033,2.3091,2.3091,2.3091,2.3091,2.3091,2.3091,2.3091,2.3091,2.3091,2.3327,2.3574,2.376,2.3994,2.4307,2.476,2.4818,2.4961,2.541,2.5688,2.5767,2.5487,2.7014,2.7919,2.7668,2.8765,2.9346,2.9082,2.9733,3.0216,3.0489,3.1168,3.2183,3.3511,3.3289,3.3832,3.5157,3.4958,3.5153,3.569,3.533,3.4527,3.3404,3.2817,3.239,3.2097,3.1838,3.1738,3.1712,3.1486,3.1725,3.2156,3.1851,3.1888,3.2123,0.0,0.0,0.0,0.0,0.0,0.0,0.0,0.0,0.0,0.0,1.524,1.5478,1.5668,1.5337,1.5073,1.5015,1.5059,1.5227,1.5498,1.5688,1.5841,1.5921,1.5848,1.5808,1.5808,1.5808,1.5808,1.5808,1.5808,1.5808,1.5808,1.5808,1.6292,1.7201,1.7552,1.868,2.035,2.1025,2.18,2.2633,2.2982,2.3091,2.313,2.3486,2.3318,2.3054,2.3913,2.3896,2.3506,2.3926,2.3994,2.3913,2.417,2.417,2.4033,2.3848,2.3711,2.3516,2.3064,2.281,2.2732,2.3023,2.3091,2.3091,2.3091,2.3091,2.3091,2.3091,2.3188,2.3298,2.3298,2.3649,2.4004,2.4144,2.4394,2.4746,2.5209,2.5278,2.5371,2.5679,2.5693,2.5693,2.5693,2.6659,2.7203,2.7068,2.7883,2.8488,2.8787,2.8934,2.942,3.0395,3.0883,3.1787,3.3161,3.3553,3.4412,3.5744,3.5641,3.5777,3.613,3.5393,3.449,3.3504,3.2767,3.2315,3.2085,3.1934,3.1871,3.1859,3.1687,3.1863,3.2152,3.1599,3.1607,3.1859,0.0,0.0,0.0,0.0,0.0,0.0,0.0,0.0,0.0,0.0,0.0,0.0,0.0,1.5391,1.5271,1.5013,1.524,1.5504,1.5775,1.5801,1.5959,1.627,1.5961,1.5808,1.5808,1.5808,1.5808,1.5808,1.5808,1.5808,1.5808,1.5808,1.5825,1.592,1.7154,1.7731,1.7963,2.0305,2.1315,2.1458,2.2633,2.3091,2.3091,2.3132,2.2879,2.2625,2.3506,2.3271,2.2617,2.3078,2.2942,2.2715,2.3545,2.3548,2.3303,2.3694,2.3486,2.3023,2.2625,2.2801,2.3081,2.3091,2.3091,2.3091,2.3091,2.3091,2.3091,2.3091,2.3454,2.3769,2.3769,2.4111,2.4531,2.4984,2.5063,2.5229,2.563,2.5689,2.5698,2.5693,2.5693,2.5693,2.5693,2.6148,2.7063,2.8607,2.8763,2.8798,2.8808,2.9237,2.9564,2.9726,3.1373,3.2935,3.4338,3.435,3.5054,3.6356,3.4473,3.4266,3.5483,3.4427,3.4211,3.459,3.352,3.3366,3.3784,3.3266,3.3052,3.2989,3.2403,3.2202,3.2152,3.1599,3.2097,3.2964,0.0,0.0,0.0,0.0,0.0,0.0,0.0,0.0,0.0,0.0,0.0,0.0,0.0,0.0,0.0,0.0,1.5451,1.5518,1.5788,1.6012,1.6166,1.6297,1.6203,1.6126,1.6126,1.5901,1.5808,1.5808,1.5808,1.5808,1.5808,1.5808,1.6244,1.7084,1.7505,1.8141,1.9001,2.0621,2.1148,2.1029,2.2497,2.2925,2.2732,2.3006,2.2859,2.2488,0.0,2.2344,2.2119,2.2287,2.2217,2.2148,2.2453,2.2453,2.2423,2.2822,2.2646,2.2402,2.2791,2.2801,2.2771,2.3023,2.3091,2.3091,2.3091,2.3091,2.3201,2.3493,2.3435,2.3425,2.374,2.4131,2.444,2.4609,2.5127,2.5542,2.5689,2.5962,2.6172,2.6172,2.6172,2.6279,2.6537,2.6176,2.6389,2.7507,2.7617,2.7867,2.8447,2.8627,2.9132,3.0071,3.0066,3.1003,3.298,3.2412,3.2667,3.3664,3.302,3.2756,3.287,3.3373,3.3542,3.3395,3.3918,3.406,3.3884,3.3709,3.3429,3.3077,3.2889,3.2801,3.2788,3.26,3.2776,3.2964,0.0,0.0,0.0,0.0,0.0,0.0,0.0,0.0,0.0,0.0,0.0,0.0,0.0,0.0,0.0,0.0,0.0,1.5678,1.5972,1.6066,1.6159,1.629,1.6096,1.5983,1.5983,1.5671,1.5571,1.5648,1.5648,1.5708,1.5808,1.5808,1.648,1.7715,1.8141,1.9001,2.0223,2.1422,2.1785,2.1646,2.2691,2.2957,2.2732,2.2849,2.2635,0.0,2.1807,2.1553,2.1436,2.1436,2.1523,2.165,2.165,2.1865,2.21,2.2049,2.2166,2.2401,2.2791,2.2801,2.2781,2.3054,2.3091,2.314,2.3308,2.3347,2.3435,2.373,2.3659,2.361,2.3769,2.4131,2.4391,2.4391,2.5132,2.5693,2.5693,2.624,2.6562,2.6431,2.6523,2.666,2.6777,2.6264,2.6235,2.6937,2.7295,2.7715,2.8262,2.8437,2.8899,2.9764,2.9712,3.0271,3.1582,3.1512,3.1658,3.2023,3.2023,3.1741,3.1236,3.2121,3.2308,3.2065,3.3396,3.3512,3.2785,3.3262,3.3268,3.2936,3.2751,3.2975,3.3366,3.3178,3.3102,3.2964,0.0,0.0,0.0,0.0,0.0,0.0,0.0,0.0,0.0,0.0,0.0,0.0,0.0,0.0,0.0,0.0,0.0,0.0,1.6257,1.5999,1.5979,1.6284,1.5738,1.5438,1.5438,1.5166,1.5153,1.5418,1.5404,1.5545,1.5808,1.5808,1.6433,1.7645,1.8795,1.9951,2.1105,2.2303,2.2843,2.2848,2.2933,2.2989,2.2955,2.2606,2.2217,2.1817,2.1366,2.0947,2.0605,2.0615,2.0898,2.1229,2.1229,2.1805,2.2303,2.1492,2.2116,2.2984,2.2625,2.283,2.313,2.313,2.314,2.3266,2.373,2.3809,2.3821,2.3818,2.4082,2.4176,2.3828,2.4082,2.4332,2.4362,2.5103,2.5689,2.5708,2.643,2.6836,2.646,2.6738,2.6826,2.6426,0.0,2.6572,2.6953,2.7754,2.8242,2.8291,2.8672,2.8914,2.8959,3.022,3.0711,3.0292,3.1495,3.1845,3.134,3.134,3.1071,3.0579,3.0652,3.0676,3.0749,3.2099,3.1934,3.0836,3.2112,3.2617,3.2546,3.2039,3.2599,3.3645,3.3121,3.2943,3.283,0.0,0.0,0.0,0.0,0.0,0.0,0.0,0.0,0.0,0.0,0.0,0.0,0.0,0.0,0.0,0.0,0.0,0.0,1.5915,1.6079,1.6217,1.6297,1.6157,1.6076,1.6076,1.5568,1.5431,1.5695,1.5504,1.5545,1.5808,1.5808,1.5967,1.6292,1.6615,1.6906,1.728,1.8542,1.9214,1.957,2.0817,2.1464,2.1707,2.1963,2.1777,2.1366,2.1239,2.0947,2.0654,2.0947,2.1357,2.1719,2.1719,2.1865,2.206,2.2137,2.2401,2.2693,2.2898,2.3279,2.3623,2.3623,2.3857,2.4098,2.4206,2.4014,2.3887,2.4199,2.3562,2.3066,2.3303,2.3398,2.3552,2.3896,2.4668,2.5361,2.5669,2.6186,2.6504,2.6396,2.6484,2.6504,2.6396,2.667,2.6768,2.6562,2.7041,2.7617,2.8262,2.8398,2.891,2.9903,2.9611,2.9722,3.0292,2.966,2.9252,2.9114,2.9114,2.9053,2.8942,2.9946,3.0385,3.0487,3.1812,3.197,3.1314,3.1656,3.1563,3.1199,3.1063,3.1003,3.0974,3.0848,3.0594,3.0327,0.0,0.0,0.0,0.0,0.0,0.0,0.0,0.0,0.0,0.0,0.0,0.0,0.0,0.0,0.0,0.0,0.0,0.0,0.0,1.5985,1.6079,1.6079,1.5983,1.5916,1.5916,1.5467,1.5351,1.5615,1.5351,1.5357,1.5615,1.5504,1.5738,1.6246,1.6246,1.6907,1.8093,1.8806,1.947,0.0,0.0,2.1493,2.1503,2.1582,2.1425,2.1191,2.0996,2.1035,2.1202,2.1435,2.168,2.1905,2.1905,2.2012,2.2207,2.242,2.2625,2.2859,2.3288,2.3603,2.3838,2.4014,2.4238,2.4391,2.4391,2.4238,2.4023,2.3864,2.3269,2.2754,2.2648,2.2744,2.2918,2.3193,2.429,2.518,2.541,2.6143,2.6592,2.6406,2.6553,2.666,2.666,2.6875,2.708,2.7217,2.7441,2.7783,2.8271,2.8643,2.9129,2.9676,2.9364,2.9278,2.9418,2.8671,2.8291,2.8291,2.8291,2.8291,2.8318,2.9075,2.9434,2.9513,3.085,3.092,3.0134,3.0723,3.0798,3.0502,3.0271,3.0364,3.062,3.0384,3.0018,2.9674,0.0,0.0,0.0,0.0,0.0,0.0,0.0,0.0,0.0,0.0,1.5828,1.5808,0.0,0.0,0.0,0.0,0.0,0.0,0.0,0.0,1.5808,1.5808,1.5585,1.5451,1.5451,1.5193,1.5186,1.5451,1.5186,1.5193,1.5444,1.522,1.5664,1.6677,1.6632,1.8012,2.0372,2.034,2.1013,2.2092,2.2092,2.1934,2.169,0.0,0.0,2.1074,2.0723,2.1114,2.1807,2.1886,2.1963,2.2051,2.2051,2.2305,2.2576,2.2576,2.2869,2.3288,2.3691,2.3867,2.4053,2.4414,2.4479,2.4479,2.4479,2.4352,2.402,2.3269,2.2964,2.2645,2.1934,2.2148,2.2451,2.2479,2.3896,2.5024,2.5082,2.6094,2.6709,2.6348,2.668,2.6934,2.6934,2.7031,2.7412,2.8154,2.8262,2.831,2.8369,2.9061,2.9256,2.882,2.9227,2.907,2.8301,2.8291,2.8291,2.8291,2.8291,2.8291,2.8291,2.8291,2.8291,2.8361,2.9539,2.9381,2.8398,2.9555,3.0042,3.0,2.9528,3.0032,3.094,3.0474,2.997,2.9522,0.0,0.0,0.0,0.0,0.0,0.0,0.0,0.0,0.0,0.0,1.5979,1.5808,0.0,0.0,0.0,0.0,0.0,0.0,0.0,0.0,0.0,1.5808,1.5761,1.5728,1.5728,1.5471,1.5464,1.5728,1.5464,1.5471,1.5728,1.5681,1.5765,1.5963,1.5734,1.6407,1.7648,1.7445,1.8346,1.9937,1.9937,2.0298,2.082,0.0,0.0,0.0,2.0635,2.0898,2.1376,2.1768,2.2344,2.2898,2.2898,2.2925,2.3006,2.3006,2.3318,2.3691,2.3769,2.433,2.4887,2.4965,2.4975,2.4975,2.4975,2.4154,2.3362,2.3152,2.2262,2.1503,2.1357,2.1699,2.2109,2.2461,2.3643,2.4658,2.5043,2.5586,2.5903,2.5835,2.623,2.6494,2.6494,2.7164,2.7643,2.779,2.8096,2.8447,2.8762,2.8623,2.8476,2.8398,2.8476,2.8447,2.8291,2.8291,2.8291,2.8291,2.8291,2.8291,2.8291,2.8291,2.8291,2.8318,2.8548,0.0,2.8318,2.8548,2.8654,2.8644,2.8539,2.8449,2.8354,2.8248,2.7718,2.7017,0.0,0.0,0.0,0.0,0.0,0.0,0.0,1.5334,1.5855,1.6025,1.6052,1.6059,1.6059,1.5895,1.5808,0.0,0.0,0.0,0.0,0.0,0.0,0.0,0.0,0.0,1.5808,1.5668,1.5668,1.5808,0.0,1.5471,1.5581,1.5451,1.5732,1.6321,1.6195,1.7205,1.9015,1.8885,1.9677,2.0985,2.0799,2.0795,0.0,0.0,0.0,0.0,2.0605,2.0859,2.122,2.1454,2.2088,2.283,2.3023,2.3091,2.314,2.3386,2.3623,2.3887,2.4359,2.4779,2.5151,2.5361,2.5244,2.4975,2.4525,2.375,2.2959,2.2243,2.1619,2.1142,2.0928,2.125,2.1689,2.2119,2.3252,2.4238,2.4668,2.5289,2.5693,2.5693,2.6123,2.6475,2.6699,2.7321,2.778,2.8005,2.8174,2.8379,2.8584,2.8398,2.8398,2.8613,2.8408,2.8291,2.8291,2.8291,2.8291,2.8291,2.8291,2.8291,2.8291,2.8291,2.8291,2.8291,2.8291,2.8291,2.8291,2.8291,2.8291,2.8291,2.8291,2.8164,2.8015,2.8015,2.7624,2.7047,0.0,0.0,0.0,0.0,0.0,0.0,1.4487,1.5188,1.5735,1.5795,1.6086,1.6297,1.6297,1.6005,1.5808,0.0,0.0,0.0,0.0,0.0,0.0,0.0,0.0,0.0,0.0,0.0,0.0,1.6204,1.5715,0.0,0.0,0.0,0.0,0.0,1.692,1.8365,2.0837,2.0776,2.1312,0.0,0.0,2.1484,0.0,0.0,0.0,0.0,0.0,2.0791,2.1084,2.1161,2.1659,2.2293,2.2713,2.2955,2.3181,2.3555,2.3721,2.3978,2.475,2.4945,2.5043,2.5337,2.5117,2.4613,2.3851,2.3252,2.2537,2.1424,2.1132,2.0966,2.0654,2.0937,2.1327,2.1689,2.2891,2.3906,2.4238,2.5103,2.5693,2.5693,2.6201,2.665,2.6982,2.749,2.7966,2.8271,2.8291,2.8291,2.8291,2.8379,2.8535,2.8752,2.8467,2.8291,2.8291,2.8291,2.8291,2.8291,2.8291,2.8291,2.8291,2.8291,2.8291,2.8291,2.8291,2.8291,2.8291,2.8291,2.8291,2.8291,2.8291,2.8291,2.8291,2.8291,2.8054,2.7624,0.0,0.0,0.0,0.0,0.0,0.0,1.4461,1.5021,1.5531,1.5768,1.6086,1.6297,1.6297,1.6005,1.5808,0.0,0.0,0.0,0.0,0.0,0.0,0.0,0.0,0.0,0.0,0.0,0.0,1.7528,1.6335,0.0,0.0,0.0,0.0,0.0,0.0,1.8481,2.0688,2.0392,0.0,0.0,0.0,0.0,0.0,0.0,0.0,0.0,0.0,2.0615,2.0703,2.1074,2.1249,2.1405,2.1865,2.2498,2.3123,2.3225,2.3518,2.3896,2.4346,2.4449,2.4459,2.4498,2.4219,2.3811,2.3364,2.2609,2.1855,2.1298,2.0908,2.0635,2.0615,2.0937,2.121,2.1269,2.2695,2.3799,2.3838,2.4918,2.5693,2.5693,2.643,2.6947,2.7012,2.7754,2.8252,2.8291,2.8291,2.8291,2.8291,2.8662,2.8701,2.8359,2.831,2.8291,2.8291,2.8291,2.8291,2.8291,2.8291,2.8291,2.8291,2.8291,2.8291,2.8291,2.8291,2.8291,0.0,2.8291,2.8291,2.8291,2.8291,2.8291,2.8291,2.8291,2.8054,2.7624,0.0,0.0,0.0,0.0,0.0,0.0,1.4454,1.487,1.5304,1.5741,1.5908,1.6072,1.6277,1.6005,1.5808,1.5808,0.0,0.0,0.0,0.0,0.0,0.0,0.0,0.0,0.0,0.0,1.6826,1.6551,1.6826,0.0,0.0,0.0,0.0,0.0,0.0,1.9925,2.2148,2.1999,0.0,0.0,0.0,0.0,0.0,0.0,0.0,0.0,0.0,0.0,2.0615,2.0771,2.0996,2.1201,2.1123,2.1855,2.2791,2.3054,2.3447,2.3887,2.4284,2.4391,2.4391,2.4391,2.4102,2.3613,2.293,2.2314,2.171,2.0996,2.0703,2.0605,2.0605,2.0732,2.0918,2.1151,2.2215,2.3115,2.3401,2.4545,2.5332,2.5332,2.6328,2.6986,2.6986,2.7793,2.8291,2.8291,2.8291,2.8291,2.8291,2.8447,2.8467,2.8301,2.8291,2.8291,2.8291,2.8291,2.8291,2.8291,2.8291,2.8291,2.8291,2.8291,2.8291,2.8291,2.8291,2.8291,0.0,2.8291,2.8291,2.8291,2.8291,2.8291,2.8291,2.8291,2.821,2.7966,0.0,0.0,0.0,0.0,0.0,1.4182,1.4454,1.477,1.516,1.5615,1.5748,1.5888,1.6119,1.5928,1.5808,1.5808,1.5808,0.0,0.0,0.0,0.0,0.0,0.0,0.0,0.0,0.0,1.6873,1.6362,1.6873,1.6692,0.0,0.0,1.7109,1.9497,0.0,0.0,0.0,0.0,0.0,0.0,0.0,0.0,0.0,0.0,0.0,0.0,0.0,0.0,0.0,0.0,0.0,2.0937,2.0537,2.1182,2.2225,2.2771,2.324,2.3691,2.4111,2.4118,2.402,2.402,2.3721,2.3223,2.249,2.2002,2.1484,2.0762,2.0605,2.0605,2.0605,2.0605,2.0693,2.0986,2.1845,2.2617,2.2951,2.4095,2.4945,2.5072,2.6113,2.6875,2.6976,2.7793,2.8291,2.8291,2.8291,2.8291,2.8291,2.8291,2.8291,2.8291,2.8291,2.8291,2.8291,2.8291,2.8291,2.8291,2.8291,2.8291,2.8291,2.8291,2.8291,2.8291,2.8291,2.8291,0.0,2.8291,2.8291,2.8291,2.8291,2.8291,2.8291,2.8291,2.8291,2.8174,0.0,0.0,0.0,0.0,0.0,0.0,1.4454,1.477,1.5093,1.5364,1.5628,1.5808,1.5808,1.5808,1.5808,1.5808,1.5808,0.0,0.0,0.0,0.0,0.0,0.0,0.0,0.0,0.0,1.6433,1.7692,1.6433,1.5801,1.5808,1.5808,1.7109,1.9497,0.0,0.0,0.0,0.0,0.0,0.0,0.0,0.0,0.0,0.0,0.0,0.0,0.0,0.0,0.0,0.0,0.0,0.0,0.0,2.0518,2.1375,2.2245,2.2791,2.322,2.3682,2.3464,2.311,2.311,2.281,2.2412,2.2013,2.1532,2.1093,2.0674,2.0605,2.0605,2.0605,2.0605,2.0605,2.0615,2.166,2.2488,2.2519,2.3601,2.458,2.5033,2.5874,2.6562,2.6947,2.7793,2.8291,2.8291,2.8291,2.8291,2.8291,2.8291,2.8291,2.8291,2.8291,2.8291,2.8291,2.8291,2.8291,2.8291,2.8291,2.8291,2.8291,2.8291,2.8291,2.8291,2.8291,2.8291,0.0,2.8291,2.8291,2.8291,2.8291,2.8291,2.8291,2.8291,2.8291,2.8174,0.0,0.0,0.0,0.0,0.0,0.0,1.4454,1.4429,1.4564,1.5059,1.5003,1.5068,1.5491,1.5531,1.5588,1.5788,1.5808,0.0,0.0,0.0,0.0,0.0,0.0,0.0,0.0,0.0,1.7295,1.7692,1.7295,1.7108,1.7108,1.7108,1.7521,1.8342,1.9988,2.1159,0.0,0.0,0.0,0.0,0.0,0.0,0.0,0.0,0.0,0.0,0.0,0.0,0.0,0.0,0.0,0.0,0.0,0.0,0.0,2.1191,2.1904,2.2654,2.2529,2.2598,2.2625,2.2353,2.2178,2.1973,2.1523,2.1318,2.1084,2.0674,2.0605,2.0605,2.0605,2.0605,2.0605,2.0605,2.1436,2.209,2.209,2.3428,2.4473,2.4609,2.5918,2.71,2.7822,2.8135,2.8291,2.8291,2.8291,2.8291,2.8291,2.8291,2.8291,2.8291,2.8291,2.8291,2.8291,2.8291,2.8291,2.8291,2.8291,2.8291,2.8291,2.8291,2.8291,2.8291,2.8291,2.8291,2.8291,2.8291,2.8291,2.8291,2.8291,2.8291,2.8291,2.8291,2.8142,2.7809,0.0,0.0,0.0,0.0,0.0,0.0,1.4454,1.4362,1.4422,1.4926,1.4825,1.4823,1.522,1.5331,1.5471,1.5628,1.5741,0.0,0.0,0.0,0.0,0.0,0.0,0.0,1.5808,1.6574,1.699,1.699,1.699,1.699,1.699,1.699,1.7474,1.8434,1.9943,2.0868,0.0,0.0,0.0,0.0,0.0,0.0,2.0605,0.0,0.0,0.0,0.0,0.0,0.0,0.0,0.0,0.0,0.0,0.0,0.0,0.0,2.0908,2.1787,2.1886,2.208,2.2207,2.1974,2.1768,2.1562,2.1279,2.1084,2.0908,2.0644,2.0605,2.0605,2.0605,2.0605,2.0605,2.0605,2.1329,2.1943,2.21,2.331,2.4424,2.5088,2.626,2.7353,2.8213,2.8291,2.8291,2.8291,2.8291,2.8291,2.8291,2.8291,2.8291,2.8291,2.8291,2.8291,2.8291,2.8291,2.8291,2.8291,2.8291,2.8291,2.8291,2.8291,2.8291,2.8291,2.8291,2.8291,0.0,2.8291,2.8291,2.8291,2.8291,2.8291,2.8291,2.8291,2.8054,2.7624,0.0,0.0,0.0,0.0,0.0,0.0,0.0,1.4467,1.4589,1.4908,1.4948,1.4932,1.4952,1.5213,1.5378,1.5398,1.5641,0.0,0.0,0.0,0.0,0.0,0.0,0.0,1.5808,1.5808,1.5849,1.5944,1.5944,1.5944,1.5944,1.6015,1.7257,1.9382,1.9557,2.0279,0.0,0.0,0.0,0.0,0.0,0.0,0.0,0.0,0.0,0.0,0.0,0.0,0.0,0.0,0.0,0.0,0.0,0.0,0.0,0.0,0.0,0.0,0.0,2.1837,2.1836,2.1817,2.1484,2.1162,2.1162,2.0869,0.0,2.0605,2.0605,2.0605,2.0605,2.0605,2.0605,2.0605,2.1329,2.2031,2.243,2.3301,2.4545,2.623,2.6777,2.7353,2.8213,2.8291,2.8291,2.8291,2.8291,2.8291,2.8291,2.8291,2.8291,2.8291,2.8291,2.8291,2.8291,2.8291,2.8291,2.8291,2.8291,2.8291,2.8291,2.8291,2.8291,0.0,2.8291,2.8291,2.8291,2.8291,2.8291,2.8291,2.8291,2.8291,2.8291,2.8262,2.7952,2.7445,0.0,0.0,0.0,0.0,0.0,0.0,0.0,0.0,0.0,0.0,1.431,1.4397,1.4596,1.4912,1.518,0.0,0.0,0.0,0.0,0.0,0.0,0.0,0.0,0.0,1.5808,1.5808,1.6268,1.7248,1.7248,1.7248,1.7271,1.8195,1.8449,1.8211,2.0056,2.1218,0.0,0.0,0.0,0.0,0.0,0.0,0.0,0.0,0.0,0.0,2.0605,2.0605,0.0,0.0,0.0,0.0,0.0,0.0,0.0,0.0,1.9658,2.0185,2.0752,0.0,2.1288,2.0977,2.082,2.0742,0.0,2.0664,2.0605,2.0605,2.0605,2.0605,2.0605,2.0605,2.0605,2.0605,2.1329,2.2031,2.243,2.3809,2.5317,2.6699,2.6953,2.7353,2.8213,2.8291,2.8291,2.8291,2.8291,2.8291,2.8291,2.8291,2.8291,2.8291,2.8291,2.8291,2.8291,2.8291,2.8291,2.8291,2.8291,2.8291,2.8291,2.8291,2.8291,2.8291,2.8291,2.8291,2.8291,2.8291,2.8291,2.8291,2.8291,2.8291,2.8252,2.7956,2.69,2.5563,0.0,0.0,0.0,0.0,0.0,0.0,0.0,0.0,0.0,0.0,1.4109,1.417,1.4302,1.4583,1.4899,0.0,0.0,0.0,0.0,0.0,0.0,0.0,0.0,1.5808,1.5808,1.5808,1.6133,1.6833,1.6833,1.6833,1.685,1.7506,1.8056,1.8611,2.0281,2.1352,0.0,0.0,0.0,0.0,2.0605,0.0,0.0,0.0,0.0,0.0,2.0605,2.0605,0.0,2.0605,2.0605,2.0458,0.0,0.0,0.0,0.0,1.9443,1.9766,2.041,2.0762,2.0869,2.0644,2.0605,2.0605,2.0605,2.0605,2.0605,2.0605,2.0605,2.0605,2.0605,2.0605,2.0605,2.0605,2.1495,2.2529,2.3545,2.4658,2.5713,2.6621,2.6894,2.7275,2.7966,2.8174,2.8291,2.8291,2.8291,2.8291,2.8291,2.8291,2.8291,2.8291,2.8291,2.8291,2.8291,2.8291,2.8291,2.8291,2.8291,2.8291,2.8291,2.8291,2.8291,2.8291,2.8291,2.8291,2.8291,2.8291,2.8291,2.8271,2.8112,2.7634,2.7026,2.6619,2.532,2.373,0.0,0.0,0.0,0.0,0.0,0.0,0.0,0.0,0.0,0.0,0.0,0.0,0.0,0.0,0.0,0.0,0.0,0.0,0.0,0.0,0.0,0.0,1.5808,1.5808,1.5808,1.5808,1.5808,1.5808,1.5991,1.5991,1.5808,1.5991,1.7181,1.9193,2.0267,2.1046,0.0,0.0,0.0,0.0,2.0605,0.0,0.0,0.0,0.0,0.0,0.0,0.0,0.0,2.0527,2.0488,2.0332,1.9481,0.0,0.0,0.0,0.0,0.0,2.0439,2.0684,2.0693,2.0625,2.0605,2.0605,2.0605,2.0605,2.0605,2.0605,2.0605,2.0605,2.0605,2.0644,2.0684,2.0684,2.1816,2.3262,2.4867,2.5449,2.5874,2.6338,2.6699,2.7119,2.7643,2.8015,2.8223,2.8291,2.8291,2.8291,2.8291,2.8291,2.8262,2.8203,2.822,2.8164,2.8096,2.8223,2.8291,2.8291,2.8291,2.8291,2.8291,2.8291,2.8291,2.8291,2.8291,2.8262,2.8193,2.797,2.7842,2.7755,2.7187,2.6244,2.5147,2.4735,2.3496,2.197,0.0,0.0,0.0,0.0,0.0,0.0,0.0,0.0,0.0,0.0,0.0,0.0,0.0,0.0,0.0,0.0,0.0,0.0,0.0,0.0,0.0,1.5808,1.5808,1.5808,1.5808,1.5808,1.5808,1.5808,1.688,1.6857,1.5825,1.6897,1.7458,1.7658,1.9873,2.0522,1.9941,1.9673,0.0,0.0,0.0,0.0,0.0,0.0,0.0,0.0,0.0,0.0,0.0,2.0137,2.0019,1.9863,1.8986,0.0,0.0,0.0,0.0,0.0,2.0781,2.1113,2.1025,2.0684,2.0605,2.0605,2.0605,2.0605,2.0605,2.0605,2.0605,2.0605,2.0605,2.0879,2.1113,2.1113,2.2519,2.3935,2.4955,2.5449,2.5874,2.6338,2.6445,2.6822,2.7614,2.7751,2.7936,2.8262,2.8291,2.8291,2.8291,2.8291,2.8125,2.78,2.779,2.7614,2.7217,2.793,2.8291,2.8291,2.8291,2.8291,2.8291,2.8291,2.8291,2.8291,2.8291,2.8122,2.7701,2.65,2.5801,2.5385,2.4131,2.3488,2.326,2.2872,2.181,2.04,0.0,0.0,0.0,0.0,0.0,0.0,0.0,0.0,0.0,0.0,0.0,0.0,0.0,0.0,0.0,0.0,0.0,0.0,0.0,0.0,1.5808,1.5808,1.5808,1.5808,1.5808,1.5808,1.5808,1.5808,1.625,1.6227,1.5825,1.692,1.7356,1.7251,1.8691,1.9438,1.9586,1.9369,1.9786,0.0,0.0,0.0,0.0,0.0,0.0,0.0,0.0,0.0,0.0,0.0,1.9766,1.9463,1.882,0.0,0.0,0.0,0.0,0.0,2.0274,2.0674,2.082,2.0654,2.0772,2.0859,2.0644,2.0605,2.0605,2.0605,2.0605,2.0674,2.0879,2.1074,2.1513,2.244,2.3281,2.418,2.5273,2.5581,2.5786,2.5991,2.625,2.6568,2.6969,2.7178,2.7393,2.7588,2.7598,2.7598,2.7598,2.7598,2.7519,2.7324,2.7314,2.7217,2.6986,2.7402,2.7598,2.7598,2.7598,2.7598,2.7598,2.7598,2.7598,2.7545,2.6836,2.6398,2.6141,2.473,2.4042,2.3782,2.2902,2.2136,2.1357,2.0181,1.9361,1.8722,0.0,0.0,0.0,0.0,0.0,0.0,0.0,0.0,0.0,0.0,0.0,0.0,0.0,0.0,0.0,0.0,0.0,0.0,0.0,1.5631,1.5808,1.5808,1.5808,1.5808,1.5808,1.5808,1.5775,1.5708,1.5548,1.5588,1.5818,1.6753,1.7026,1.6719,1.7327,1.8141,1.9046,1.8742,1.9382,0.0,0.0,0.0,0.0,0.0,0.0,0.0,0.0,0.0,0.0,0.0,0.0,0.0,0.0,0.0,0.0,1.8568,1.8849,1.9248,1.9757,2.0156,2.0429,2.0429,2.0752,2.0996,2.0801,2.0742,2.0772,2.0869,2.0899,2.0996,2.1298,2.1445,2.204,2.3682,2.3935,2.4355,2.5542,2.5693,2.5693,2.5693,2.601,2.6279,2.6402,2.668,2.6904,2.6986,2.6986,2.6986,2.6986,2.6986,2.6973,2.6875,2.6865,2.6816,2.6693,2.6693,2.6791,2.6986,2.6986,2.6849,2.6532,2.6532,2.6343,2.5973,2.4951,2.4445,2.4252,2.2881,2.2223,2.2065,2.1432,2.0579,1.9512,1.8104,1.7608,1.7608,0.0,0.0,0.0,0.0,0.0,0.0,0.0,0.0,0.0,0.0,0.0,0.0,0.0,0.0,0.0,0.0,0.0,0.0,0.0,1.5518,1.5808,1.5808,1.5808,1.5808,1.5808,1.5808,1.5675,1.5431,1.5655,1.5781,1.5818,1.6753,1.648,1.5201,1.6052,1.6807,1.7456,1.7423,1.8649,2.0605,2.0605,0.0,0.0,0.0,0.0,0.0,0.0,0.0,0.0,0.0,0.0,0.0,0.0,0.0,1.8118,1.849,1.8627,1.8831,1.9669,1.9913,1.9942,1.9942,2.0293,2.0732,2.1084,2.1162,2.1279,2.1729,2.1808,2.1817,2.1836,2.2158,2.282,2.4137,2.4352,2.4664,2.5557,2.5693,2.5693,2.5693,2.5713,2.5923,2.6348,2.6416,2.6592,2.6957,2.6986,2.6986,2.6986,2.6986,2.6836,2.6445,2.6435,2.624,2.5815,2.5781,2.6206,2.6986,2.6986,2.6343,2.5133,2.5133,2.4437,2.32,2.3086,2.2849,2.2384,2.1049,2.0234,1.9721,1.8443,1.7872,1.7793,1.7641,1.7608,1.7608,0.0,0.0,0.0,0.0,0.0,0.0,0.0,0.0,0.0,0.0,0.0,0.0,0.0,0.0,0.0,0.0,0.0,0.0,0.0,1.5504,1.5808,1.5808,1.5808,1.5808,1.5808,1.5808,1.5748,1.5641,1.5748,1.5708,1.5551,1.5745,1.5523,1.501,1.4939,1.5802,1.7261,1.658,1.7971,2.0547,1.9883,0.0,0.0,0.0,0.0,0.0,0.0,0.0,0.0,0.0,1.8432,1.8205,1.804,1.7991,1.802,1.8176,1.8393,1.8666,1.8997,1.9493,1.9835,1.959,1.9844,2.0273,2.0742,2.084,2.1035,2.1759,2.1905,2.1984,2.2227,2.2596,2.321,2.4225,2.4391,2.4703,2.5591,2.5693,2.5693,2.5693,2.5693,2.5776,2.5942,2.5962,2.602,2.6186,2.6196,2.6196,2.6196,2.6196,2.6118,2.5962,2.5159,2.4644,2.4461,2.3633,2.3376,2.3719,2.4546,2.4235,2.2963,2.2963,2.2655,2.2115,2.1242,2.0755,2.0509,1.9175,1.8506,1.8297,1.7786,1.7608,1.7608,1.7608,1.7608,1.7608,0.0,0.0,0.0,0.0,0.0,0.0,0.0,0.0,0.0,0.0,0.0,0.0,0.0,0.0,0.0,0.0,0.0,0.0,1.5008,1.5504,1.5808,1.5808,1.5808,1.5808,1.5808,1.5808,1.5761,1.5668,1.5668,1.5615,1.5524,1.526,1.5126,1.5099,1.4511,1.5443,1.7376,1.6196,1.76,2.0508,1.9441,1.9638,0.0,0.0,0.0,0.0,0.0,0.0,0.0,0.0,1.8235,1.7991,1.7991,1.7991,1.7991,1.7991,1.8196,1.8403,1.8403,1.8849,1.923,1.8955,1.9181,1.9679,2.0429,2.0693,2.1064,2.207,2.2275,2.2373,2.2635,2.2896,2.3396,2.4254,2.4391,2.4703,2.5591,2.5693,2.5693,2.5693,2.5693,2.5693,2.5693,2.5693,2.5693,2.5693,2.5693,2.5693,2.5693,2.5693,2.5513,2.5069,2.4171,2.3509,2.3076,2.2156,2.1473,2.1041,2.1963,2.1912,2.1041,2.1041,2.0812,2.0359,1.9395,1.8961,1.889,1.797,1.7608,1.7608,1.7608,1.7608,1.7608,1.7608,1.7608,1.7608,0.0,0.0,0.0,0.0,0.0,0.0,0.0,0.0,0.0,0.0,0.0,0.0,0.0,0.0,0.0,0.0,0.0,0.0,1.5008,1.5504,1.5808,1.5808,1.5808,1.5808,1.5808,1.5808,1.5668,1.5398,1.5398,1.5545,1.5795,1.5531,1.5391,1.5364,1.4776,1.5719,1.7687,1.6275,1.758,2.0479,1.9421,1.9638,2.0605,0.0,0.0,0.0,0.0,0.0,0.0,0.0,1.7991,1.7991,1.7991,1.7991,1.7991,1.7991,1.7991,1.7991,1.7991,1.8001,1.8018,1.8018,1.8313,1.8966,2.0293,2.0918,2.1561,2.2828,2.3091,2.3091,2.3091,2.3091,2.3374,2.4245,2.4391,2.4703,2.5581,2.5693,2.5693,2.5693,2.5693,2.5693,2.5693,2.5693,2.5693,2.5693,2.5693,2.5684,2.5684,2.5659,2.5045,2.3716,2.3658,2.3026,2.1693,2.1676,2.0965,1.9576,1.9576,1.9576,1.9576,1.9576,1.8864,1.7608,1.7608,1.7608,1.7608,1.7608,1.7608,1.7608,1.7608,1.7608,1.7608,1.7608,1.7608,1.7608,0.0,0.0,0.0,0.0,0.0,0.0,0.0,0.0,0.0,0.0,0.0,0.0,0.0,0.0,0.0,0.0,0.0,0.0,1.5008,1.5504,1.5808,1.5808,1.5808,1.5808,1.5808,1.5808,1.5761,1.5675,1.5498,1.5545,1.5795,1.5324,1.512,1.5099,1.4696,1.5177,1.6254,1.5076,1.6457,1.9382,1.825,1.8937,2.0605,0.0,0.0,0.0,0.0,0.0,0.0,0.0,0.0,0.0,1.7991,1.7991,1.7991,1.7991,1.7991,1.7991,1.7991,1.8205,1.8412,1.8412,1.8762,1.9434,2.0723,2.1123,2.1561,2.2828,2.3091,2.3091,2.3091,2.3091,2.3298,2.3887,2.4228,2.4619,2.5209,2.5513,2.5693,2.5693,2.5693,2.5693,2.5693,2.5693,2.5693,2.5693,2.4839,2.4304,2.4304,2.3409,2.2692,2.2316,2.1329,2.0615,2.0238,1.9291,1.8603,1.8199,1.8199,1.8199,1.8199,1.8199,1.797,1.7608,1.7608,1.7608,1.7608,1.7608,1.7608,1.7608,1.7608,1.7608,1.7608,1.7608,1.7608,1.7608,0.0,0.0,0.0,0.0,0.0,0.0,0.0,0.0,0.0,0.0,0.0,0.0,0.0,0.0,0.0,0.0,0.0,0.0,0.0,1.5504,1.5808,1.5808,1.5808,1.5808,1.5808,1.5808,1.5748,1.5635,1.5484,1.5484,1.5628,1.5297,1.522,1.5297,1.4997,1.5297,1.5979,1.478,1.6101,1.8897,1.7759,1.863,2.0605,0.0,0.0,0.0,0.0,0.0,0.0,0.0,0.0,0.0,1.7991,1.7991,1.7991,1.7991,1.7991,1.7923,1.7552,1.8006,1.8509,1.8146,1.8475,1.9231,2.051,2.1399,2.2165,2.2935,2.3091,2.3091,2.3091,2.3091,2.3259,2.3721,2.4004,2.4375,2.5004,2.5303,2.5513,2.5689,2.5226,2.4922,2.4922,2.4427,2.4097,2.4097,2.3359,2.2901,2.2901,2.2131,2.1448,2.0888,2.0033,1.935,1.8812,1.7989,1.7608,1.7608,1.7608,1.7608,1.7608,1.7608,1.7608,1.7608,1.7608,1.7608,1.7608,1.7608,1.7608,1.7608,1.7608,1.7608,1.7608,1.7608,1.7608,1.7608,0.0,0.0,0.0,0.0,0.0,0.0,0.0,0.0,0.0,0.0,0.0,0.0,0.0,0.0,0.0,0.0,0.0,0.0,0.0,1.5524,1.5808,1.5808,1.5808,1.5808,1.5808,1.5808,1.5648,1.5357,1.5357,1.5371,1.5398,1.5364,1.5511,1.5755,1.5484,1.5737,1.6309,1.5026,1.6148,1.8758,1.7617,1.8481,2.044,2.0401,0.0,0.0,0.0,0.0,0.0,0.0,0.0,0.0,1.7991,1.7991,1.7991,1.7991,1.7991,1.7803,1.6882,1.7517,1.8254,1.7379,1.7742,1.8597,1.9764,2.1453,2.2796,2.2906,2.2928,2.2906,2.2796,2.2775,2.29,2.3339,2.3435,2.3747,2.4519,2.4687,2.4837,2.5218,2.4196,2.348,2.348,2.2391,2.1702,2.1702,2.1575,2.1524,2.1524,2.1389,2.0735,1.9446,1.942,1.8838,1.7608,1.7608,1.7608,1.7608,1.7608,1.7608,1.7608,1.7608,1.7608,1.7608,1.7608,1.7608,1.7608,1.7608,1.7608,1.7608,1.7608,1.7608,1.7608,1.7608,1.7608,1.7608,0.0,0.0,0.0,0.0,0.0,0.0,0.0,0.0,0.0,0.0,0.0,0.0,0.0,0.0,0.0,0.0,0.0,0.0,0.0,1.5608,1.5808,1.5808,1.5808,1.5808,1.5808,1.5808,1.5578,1.5079,1.5079,1.5193,1.5391,1.5186,1.5233,1.5478,1.5213,1.5046,1.491,1.4409,1.5536,1.7577,1.6478,1.7366,1.9306,1.8916,0.0,0.0,0.0,0.0,0.0,0.0,0.0,0.0,1.7991,1.7991,1.7991,1.7991,1.7991,1.7837,1.7115,1.7117,1.7252,1.6907,1.7592,1.8444,1.8722,1.9574,2.0539,2.148,2.1689,2.1391,2.0449,2.026,2.0317,2.0403,2.0683,2.0948,2.1158,2.149,2.1754,2.1841,2.1793,2.1742,2.1742,2.1703,2.1702,2.1702,2.0692,2.0058,2.0058,1.9057,1.8349,1.8042,1.8022,1.7891,1.7608,1.7608,1.7608,1.7608,1.7608,1.7608,1.7608,1.7608,1.7608,1.7608,1.7608,1.7608,1.7608,1.7608,1.7608,1.7608,1.7608,1.7608,1.7608,1.7608,1.7608,1.7608,0.0,0.0,0.0,0.0,0.0,0.0,0.0,0.0,0.0,0.0,0.0,0.0,0.0,0.0,0.0,0.0,0.0,0.0,0.0,0.0,1.5808,1.5808,1.5808,1.5808,1.5808,1.5668,1.5404,1.5008,1.4845,1.4903,1.5213,1.5059,1.5213,1.5591,1.5297,1.5033,1.471,1.4422,1.5155,1.6478,1.5923,1.6695,1.8186,0.0,0.0,0.0,0.0,0.0,0.0,0.0,0.0,0.0,0.0,0.0,1.7991,1.7991,1.7991,1.7722,1.6484,1.672,1.7167,1.64,1.7214,1.8102,1.7727,1.8505,1.9358,1.9546,2.0034,2.026,1.9625,1.9497,1.9497,1.9497,1.9668,1.9873,2.007,2.03,2.0562,2.0761,2.0321,1.9993,1.9993,1.9587,1.93,1.93,1.8633,1.8208,1.8208,1.7702,1.7401,1.7401,1.7535,1.7608,1.7608,1.7608,1.7608,1.7608,1.7608,1.7608,1.7608,1.7608,1.7608,1.7608,1.7608,1.7608,1.7608,1.7608,1.7608,1.7608,1.7608,1.7608,1.7608,1.7608,1.7608,1.7608,0.0,0.0,0.0,0.0,0.0,0.0,0.0,0.0,0.0,0.0,0.0,0.0,0.0,0.0,0.0,0.0,0.0,0.0,0.0,0.0,0.0,1.5808,1.5808,1.5808,1.5808,1.5545,1.528,1.5008,1.4663,1.4669,1.5008,1.5008,1.5267,1.5721,1.5451,1.5186,1.4892,1.4569,1.4922,1.5675,1.5496,1.6075,0.0,0.0,0.0,0.0,0.0,0.0,0.0,0.0,0.0,0.0,0.0,0.0,1.7991,1.7991,1.7991,1.7598,1.577,1.6104,1.6723,1.5601,1.6393,1.7239,1.663,1.7507,1.8261,1.7524,1.8342,1.9131,1.8902,1.8848,1.8848,1.8848,1.8848,1.8975,1.9309,1.9365,1.9501,1.9893,1.8959,1.8304,1.8304,1.7307,1.6707,1.6707,1.6707,1.6707,1.6707,1.6966,1.71,1.71,1.7334,1.7428,1.7428,1.7508,1.7535,1.7535,1.7582,1.7608,1.7608,1.7608,1.7608,1.7608,1.7608,1.7608,1.7608,1.7608,1.7608,1.7608,1.7608,1.7635,1.7655,1.7655,1.753,1.733,0.0,0.0,0.0,0.0,0.0,0.0,0.0,0.0,0.0,0.0,0.0,0.0,0.0,0.0,0.0,0.0,0.0,0.0,0.0,0.0,0.0,1.5808,1.5808,1.5808,1.5808,1.5545,1.528,1.5008,1.4663,1.4669,1.5008,1.5008,1.516,1.5444,1.5173,1.4879,1.4541,1.4269,1.4748,1.5621,1.4699,0.0,0.0,0.0,0.0,0.0,0.0,0.0,0.0,0.0,1.7991,0.0,0.0,0.0,1.7991,1.7991,1.7991,1.7638,1.5996,1.4854,1.4095,1.394,1.4418,1.5019,1.5195,1.5586,1.5927,1.6025,1.7061,1.7614,1.6497,1.6285,1.6285,1.6285,1.6285,1.6298,1.6363,1.637,1.6408,1.6449,1.6553,1.6619,1.6619,1.6677,1.6707,1.6707,1.6707,1.6707,1.6707,1.674,1.6767,1.6767,1.68,1.682,1.682,1.7107,1.7259,1.7266,1.7488,1.7608,1.7608,1.7608,1.7608,1.7608,1.7608,1.7608,1.7608,1.7608,1.7608,1.7608,1.7608,1.7736,1.7956,1.7956,1.7259,1.6293,0.0,0.0,0.0,0.0,0.0,0.0,0.0,0.0,0.0,0.0,0.0,0.0,0.0,0.0,0.0,0.0,0.0,0.0,0.0,0.0,0.0,1.5808,1.5808,1.5808,1.5808,1.5384,1.5113,1.5008,1.4502,1.4516,1.5008,1.5008,1.5227,1.5618,1.5186,1.4912,1.4758,1.4282,1.437,0.0,0.0,0.0,0.0,0.0,0.0,0.0,0.0,0.0,0.0,0.0,1.7217,1.7303,1.7828,0.0,0.0,0.0,1.7991,1.7657,1.6037,1.4402,1.322,1.352,1.3793,1.4127,1.4609,1.4966,1.526,1.5524,1.6135,1.6457,1.5896,1.5808,1.5808,1.5808,1.5808,1.5808,1.5808,1.5808,1.5808,1.5808,1.5921,1.6025,1.6025,1.6139,1.6195,1.6195,1.6195,1.6195,1.6195,1.6373,1.6491,1.6491,1.662,1.6707,1.6707,1.6859,1.6926,1.6926,1.7034,1.7174,1.7367,1.7367,1.7454,1.7608,1.7608,1.7608,1.7608,1.7608,1.7689,1.7816,1.7816,1.7462,1.6946,1.6946,1.6009,1.4775,0.0,0.0,0.0,0.0,0.0,0.0,0.0,0.0,0.0,0.0,0.0,0.0,0.0,0.0,0.0,0.0,0.0,0.0,0.0,0.0,0.0,1.5808,1.5808,1.5768,1.5695,1.5247,1.4952,1.4872,1.4357,1.441,1.5008,1.4905,1.5164,1.5675,1.5213,1.4899,1.4732,1.4297,0.0,0.0,0.0,0.0,0.0,0.0,0.0,0.0,0.0,0.0,0.0,0.0,0.0,1.6671,1.7131,1.7449,0.0,0.0,0.0,1.6648,1.5431,1.3977,1.2891,1.33,1.3453,1.3667,1.4254,1.4583,1.4885,1.5304,1.5571,1.5721,1.5788,1.5808,1.5808,1.5808,1.5808,1.5808,1.5808,1.5808,1.5808,1.5808,1.5808,1.5808,1.5808,1.5808,1.5808,1.5808,1.5808,1.5808,1.5808,1.6039,1.6159,1.6159,1.6373,1.6455,1.6455,1.656,1.6633,1.6707,1.6707,1.682,1.7066,1.7066,1.7019,1.6912,1.7384,1.7608,1.7582,1.7199,1.7189,1.738,1.6993,1.6348,1.5609,1.5609,1.4642,1.3317,0.0,0.0,0.0,0.0,0.0,0.0,0.0,0.0,0.0,0.0,0.0,0.0,0.0,1.5608,1.5781,1.5781,1.5795,1.5808,1.5808,1.5808,1.5808,1.5808,1.5808,0.0,1.5424,1.514,1.4845,1.4521,1.4235,1.441,1.5001,1.4676,1.4856,1.5404,1.5126,1.4678,1.4128,0.0,0.0,0.0,0.0,0.0,0.0,0.0,0.0,0.0,0.0,0.0,0.0,0.0,0.0,0.0,0.0,1.5956,1.6498,0.0,0.0,0.0,1.3814,1.3303,1.281,1.2824,1.3032,1.3387,1.3975,1.4122,1.4397,1.5224,1.5404,1.5504,1.5755,1.5808,1.5808,1.5808,1.5808,1.5808,1.5808,1.5808,1.5808,1.5808,1.5808,1.5808,1.5808,1.5808,1.5808,1.5808,1.5808,1.5808,1.5808,1.5821,1.5828,1.5828,1.5841,1.5848,1.5848,1.6152,1.6458,1.6707,1.6707,1.6714,1.6727,1.6727,1.6067,1.5049,1.6834,1.7608,1.7503,1.6088,1.5629,1.568,1.4266,1.3974,1.4293,1.4293,1.3433,1.2273,0.0,0.0,0.0,0.0,0.0,0.0,0.0,0.0,0.0,0.0,0.0,0.0,0.0,1.5741,1.5808,1.5808,1.5808,1.5808,1.5808,1.5808,1.5808,1.5808,1.5808,1.5668,1.5404,1.5133,1.4845,1.4501,1.4229,1.4289,1.4676,1.4569,1.4614,1.483,1.4723,1.4563,1.4355,1.4168,0.0,0.0,0.0,0.0,0.0,0.0,0.0,0.0,0.0,0.0,0.0,0.0,0.0,0.0,0.0,0.0,0.0,1.5305,1.4486,1.3709,1.3709,1.3103,1.2524,1.2756,1.2864,1.3039,1.3434,1.3814,1.4196,1.4489,1.5003,1.5431,1.5531,1.5681,1.5808,1.5808,1.5808,1.5808,1.5808,1.5808,1.5808,1.5808,1.5808,1.5808,1.5808,1.5808,1.5808,1.5808,1.5808,1.5808,1.5808,1.5808,1.5808,1.5808,1.5808,1.5808,1.5808,1.5915,1.6039,1.6122,1.6122,1.5787,1.5153,1.5153,1.4564,1.356,1.423,1.4516,1.4487,1.4189,1.4212,1.4371,1.402,1.3481,1.291,1.291,1.1944,1.066,0.0,0.0,0.0,0.0,0.0,0.0,0.0,0.0,0.0,1.5781,0.0,0.0,0.0,0.0,1.5808,1.5808,1.5808,1.5808,1.5808,1.5808,1.5808,1.5808,1.5708,1.5545,1.528,1.5086,1.4792,1.4376,1.4282,1.4335,1.4494,1.4422,1.4407,1.4494,1.4422,1.4376,0.0,0.0,0.0,1.4109,0.0,0.0,1.4109,0.0,0.0,0.0,0.0,0.0,0.0,0.0,0.0,0.0,0.0,0.0,0.0,0.0,0.0,1.3219,1.3219,1.2769,1.2351,1.2583,1.2636,1.2717,1.3006,1.338,1.3715,1.3895,1.4482,1.4983,1.5084,1.5418,1.5695,1.5788,1.5808,1.5808,1.5808,1.5808,1.5808,1.5808,1.5808,1.5808,1.5808,1.5808,1.5808,1.5808,1.5808,1.5808,1.5808,1.5808,1.5808,1.5808,1.5808,1.5808,1.5808,1.5391,1.517,1.517,1.4711,1.4141,1.3488,1.3488,1.2927,1.1931,1.1931,1.2251,1.2792,1.2578,1.2635,1.2805,1.2553,1.1974,1.1264,1.1264,1.0588,0.9673,0.0,0.0,0.0,0.0,0.0,0.0,0.0,0.0,1.5808,1.5808,0.0,0.0,0.0,0.0,0.0,1.5808,1.5808,1.5808,1.5808,1.5808,1.5808,1.5808,1.5551,1.5257,1.5015,1.5001,1.4691,1.4109,1.4369,1.4481,1.4481,1.4222,1.4242,1.4474,1.4215,1.4109,1.4109,0.0,1.4109,1.4109,0.0,1.4109,1.4109,0.0,0.0,0.0,1.372,1.3613,0.0,1.3005,0.0,0.0,0.0,0.0,0.0,0.0,0.0,0.0,0.0,0.0,0.0,1.2305,1.2305,1.2397,1.2703,1.2796,1.2951,1.3474,1.384,1.4162,1.4421,1.497,1.5464,1.5721,1.5788,1.5808,1.5808,1.5808,1.5808,1.5808,1.5808,1.5808,1.5808,1.5808,1.5808,1.5808,1.5808,1.5808,1.5808,1.5808,1.5808,1.5808,1.5808,1.5778,1.573,1.4513,1.3878,1.3824,1.2533,1.1882,1.1858,1.1843,1.1243,1.0142,1.0142,1.1108,1.2576,1.1358,1.0913,1.0907,0.9683,0.9281,0.941,0.941,0.941,0.941,0.0,0.0,0.0,0.0,0.0,0.0,1.5808,1.5808,1.5808,0.0,0.0,0.0,1.5808,1.5808,1.5808,1.5808,1.5808,1.5808,1.5808,1.5808,1.5808,1.5808,1.5551,1.5257,1.5015,1.475,1.4462,1.4109,1.4168,1.4208,1.4208,1.4122,1.4128,1.4202,1.4122,1.4109,1.4109,1.4109,0.0,1.4109,1.4109,1.4109,0.0,0.0,0.0,0.0,0.0,1.3807,1.358,0.0,1.3296,1.3084,0.0,0.0,0.0,0.0,0.0,0.0,1.2305,0.0,0.0,0.0,0.0,0.0,1.2423,1.263,1.2831,1.2979,1.3407,1.3767,1.3847,1.4347,1.4767,1.4848,1.5394,1.5808,1.5808,1.5808,1.5808,1.5808,1.5808,1.5808,1.5808,1.5808,1.5808,1.5808,1.5808,1.5808,1.5808,1.5808,1.5808,1.5808,1.5808,1.5367,1.4435,1.407,1.3416,1.2455,1.2225,1.1607,1.0664,1.0759,1.0138,0.8983,0.8983,0.9242,0.9668,0.9514,0.947,0.9507,0.9389,0.9373,0.941,0.941,0.941,0.941,0.0,0.0,0.0,0.0,0.0,1.5808,1.5808,1.5808,1.5808,0.0,0.0,0.0,1.5808,1.5808,1.5808,1.5808,1.5695,1.5628,1.5628,1.5538,1.5471,1.5471,1.519,1.495,1.4783,1.4609,1.4382,1.4109,1.4208,1.4208,1.4109,1.4109,1.4109,1.4109,1.4109,0.0,0.0,0.0,1.4202,1.4109,1.4109,0.0,0.0,1.4109,1.4109,0.0,0.0,0.0,1.3787,1.3646,1.3247,0.0,0.0,0.0,0.0,0.0,0.0,0.0,0.0,0.0,0.0,0.0,0.0,0.0,1.2305,1.2457,1.2596,1.2596,1.2959,1.3273,1.3273,1.3734,1.4174,1.4315,1.4848,1.5348,1.5588,1.5628,1.5668,1.5788,1.5808,1.5808,1.5808,1.5808,1.5808,1.5808,1.5808,1.5808,1.5808,1.5808,1.5808,1.5808,1.5808,1.5194,1.3902,1.3349,1.2424,1.1194,1.0765,1.0184,0.9498,0.9573,0.9242,0.8577,0.8577,0.8615,0.8686,0.8838,0.8875,0.8838,0.9103,0.9198,0.9198,0.9198,0.9198,0.9198,0.0,0.0,1.5808,1.5808,1.5808,1.5808,1.5808,1.5808,1.5808,0.0,1.5808,1.5808,1.5808,1.5808,1.5808,1.5808,1.5541,1.5398,1.5398,1.5146,1.5008,1.5008,1.4676,1.4501,1.4501,1.4467,1.4349,1.4109,1.4349,1.4342,1.4109,1.4109,1.4129,1.4135,0.0,0.0,0.0,0.0,1.4422,1.4203,1.417,1.4135,0.0,0.0,1.4109,1.4109,1.4109,1.4109,1.4041,1.37,1.3287,0.0,0.0,0.0,0.0,0.0,1.2305,0.0,0.0,0.0,0.0,0.0,0.0,0.0,1.2305,1.2305,1.2305,1.2305,1.2531,1.2737,1.2737,1.316,1.3614,1.3915,1.4215,1.4621,1.5264,1.5351,1.5444,1.5681,1.5708,1.5721,1.5755,1.5761,1.5768,1.5801,1.5808,1.5808,1.5808,1.5659,1.5588,1.5588,1.5439,1.4771,1.3504,1.2296,1.1131,0.9989,0.8871,0.8396,0.8536,0.8549,0.8608,0.8733,0.8733,0.8784,0.8912,0.8912,0.8831,0.8723,0.8858,0.8912,0.8912,0.8912,0.8912,0.8912,0.0,1.5808,1.5808,1.5808,1.5808,1.5808,1.5808,1.5808,1.5808,1.5808,1.5808,1.5808,1.5808,1.5808,1.5808,1.5808,1.5541,1.5398,1.5398,1.5146,1.5008,1.5008,1.4676,1.4501,1.4501,1.4295,1.4142,1.4109,1.4142,1.4142,1.4109,1.4109,1.4215,1.4414,1.4414,0.0,0.0,1.4879,1.4865,1.4798,1.4536,1.4414,1.4387,1.4175,1.4109,1.4109,1.4109,1.4109,1.4041,1.37,1.3527,1.3353,0.0,0.0,0.0,1.2371,0.0,0.0,0.0,0.0,0.0,0.0,0.0,0.0,1.2305,1.2305,1.2305,1.2305,1.2345,1.2403,1.2403,1.2698,1.2978,1.3038,1.346,1.408,1.4959,1.5073,1.5093,1.5146,1.516,1.5247,1.5458,1.5478,1.5578,1.5788,1.5808,1.5808,1.5808,1.483,1.4262,1.4262,1.3229,1.2099,1.0927,1.056,0.9841,0.8822,0.8569,0.852,0.8669,0.8767,0.8838,0.8869,0.8869,0.8882,0.8912,0.8912,0.8892,0.8869,0.8899,0.8912,0.8912,0.8912,0.8912,0.8912,0.0,1.5708,1.5761,1.5615,1.5708,1.5808,1.5808,1.5808,1.5808,1.5808,1.5808,1.5808,1.5808,1.5808,1.5748,1.5601,1.5351,1.514,1.497,1.4711,1.4544,1.4544,1.4382,1.4302,1.4302,1.4162,1.4109,1.4109,1.4109,1.4162,1.4302,1.4302,1.4462,1.4743,1.4743,1.4845,1.5022,1.514,1.52,1.518,1.4879,1.4743,1.4723,1.4604,1.4457,1.4302,1.4302,1.4208,1.4021,1.356,1.3487,0.0,1.2978,1.2891,1.2939,0.0,1.2544,1.251,0.0,0.0,0.0,1.2305,0.0,0.0,0.0,1.2305,1.2305,1.2305,1.2305,1.2305,1.2305,1.2444,1.261,1.2776,1.3153,1.356,1.4049,1.4491,1.4819,1.4988,1.5008,1.5046,1.5186,1.52,1.5304,1.5591,1.4982,1.468,1.4841,1.3614,1.2909,1.2909,1.2261,1.1311,1.0104,1.0104,0.9568,0.8509,0.856,0.8676,0.8798,0.8875,0.8912,0.8912,0.8912,0.8912,0.8912,0.8912,0.8912,0.8912,0.8912,0.8912,0.8912,0.8912,0.8912,0.8912,0.0,1.5504,1.5585,1.5351,1.5551,1.5708,1.5648,1.5688,1.5721,1.5721,1.5721,1.5741,1.5795,1.5808,1.5708,1.5504,1.524,1.4966,1.4681,1.4416,1.4277,1.4277,1.4277,1.4277,1.4277,1.4277,1.4277,1.4277,1.4277,1.4376,1.4603,1.4603,1.4763,1.5073,1.5073,1.5099,1.5166,1.5384,1.5478,1.5458,1.5247,1.512,1.5059,1.5028,1.4839,1.4596,1.4521,1.4335,1.4036,1.354,1.3474,1.3513,1.3092,1.3072,0.0,0.0,0.0,0.0,0.0,0.0,0.0,0.0,0.0,1.2305,0.0,0.0,0.0,1.2305,1.2305,1.2305,1.2305,1.2305,1.2417,1.2756,1.2979,1.314,1.318,1.38,1.4382,1.4698,1.4778,1.4839,1.4892,1.4952,1.4989,1.4986,1.3965,1.3391,1.3474,1.2212,1.1512,1.1531,1.133,1.0733,0.9734,0.9818,0.9434,0.857,0.8665,0.8764,0.8912,0.8912,0.8912,0.8912,0.8912,0.8912,0.8912,0.8912,0.8912,0.8912,0.8912,0.8912,0.8912,0.8912,0.8912,0.8912,1.5039,1.5059,1.5073,1.5039,1.5273,1.5357,1.5126,1.5284,1.5444,1.5444,1.5444,1.5545,1.5775,1.5808,1.5788,0.0,1.5518,1.5331,1.5297,1.5046,1.4908,1.4908,1.4908,1.4908,1.4908,1.4908,1.4908,1.4908,1.4908,1.4899,1.4932,1.4932,1.5093,1.5344,1.5344,1.5491,1.5708,1.5741,1.5755,1.5755,1.5721,1.5578,1.5317,1.5086,1.4988,1.4899,1.4616,1.4335,1.4096,0.0,1.3814,1.3593,0.0,1.3367,1.3153,1.2878,0.0,0.0,0.0,0.0,0.0,0.0,1.2305,0.0,0.0,0.0,1.2305,1.2305,0.0,1.2305,1.2305,0.0,0.0,1.2756,1.283,1.2938,1.3173,1.33,1.3447,1.374,1.4028,1.431,1.4521,1.4832,1.4559,1.3532,1.3304,1.2859,1.1992,1.072,1.0086,1.0215,0.9243,0.8684,0.8663,0.868,0.8757,0.8858,0.874,0.8764,0.8912,0.8912,0.8912,0.8912,0.8912,0.8912,0.8912,0.8912,0.8912,0.8912,0.8912,0.8912,0.8912,0.8912,0.8912,0.8912,1.4703,1.4865,0.0,1.4736,1.495,1.5126,1.5028,1.5233,1.5398,1.5398,1.5691,1.5976,1.6072,1.6233,0.0,0.0,0.0,1.5758,0.0,0.0,0.0,1.5015,1.5008,1.5008,1.5008,1.5008,1.5008,1.5008,1.5008,1.5073,1.524,1.524,1.5371,1.5628,1.5628,1.5688,1.5808,1.5808,1.5808,1.5808,1.5808,1.5735,1.5608,1.5511,1.528,1.4968,1.4629,1.4335,1.4062,0.0,1.384,0.0,0.0,0.0,0.0,1.3173,0.0,0.0,0.0,0.0,0.0,0.0,0.0,0.0,1.2345,0.0,1.2305,0.0,0.0,0.0,0.0,0.0,0.0,0.0,1.267,1.277,1.2685,1.2986,1.324,1.3353,1.3627,1.3927,1.4242,1.4404,1.4052,1.3036,1.226,1.1409,1.0468,0.9299,0.8653,0.8725,0.8442,0.8325,0.8386,0.853,0.8679,0.8781,0.8804,0.8848,0.8912,0.8912,0.8912,0.8912,0.8912,0.8912,0.8912,0.8912,0.8912,0.8912,0.8912,0.8912,0.8912,0.8912,0.8912,0.8912,1.4643,0.0,0.0,1.4436,1.4649,1.4892,1.4995,1.5166,1.5337,1.5491,1.5842,1.615,1.6391,1.6506,1.6533,0.0,1.6417,1.6206,0.0,0.0,1.5578,1.5467,1.5307,1.526,1.534,1.5267,1.5227,1.5227,1.5227,1.5311,1.5518,1.5518,1.5601,1.5808,1.5808,1.5808,1.5808,1.5808,1.5808,1.5808,1.5808,1.5808,1.5808,1.5808,1.5471,1.4981,1.4716,1.4402,1.4055,1.382,1.364,1.3461,1.3311,1.3148,1.2937,0.0,0.0,0.0,1.2024,0.0,0.0,0.0,0.0,0.0,0.0,0.0,0.0,0.0,0.0,0.0,0.0,0.0,0.0,0.0,0.0,1.2616,1.2464,1.2739,1.2993,1.3073,1.3393,1.3707,1.3941,1.4041,1.3581,1.2287,1.1294,1.0212,0.8978,0.8142,0.7729,0.7811,0.8134,0.8315,0.8355,0.8625,0.8747,0.8747,0.8858,0.8912,0.8912,0.8912,0.8912,0.8912,0.8912,0.8912,0.8912,0.8912,0.8912,0.8912,0.8912,0.8912,0.8912,0.8912,0.8912,0.8912,1.4972,1.4524,0.0,1.4102,1.4342,1.4629,1.4939,1.5015,1.52,1.5721,1.5585,1.5752,1.66,1.6446,1.6417,0.0,0.0,1.6687,1.6667,0.0,1.6391,0.0,0.0,1.5939,1.625,1.5945,1.5775,1.5775,1.5775,1.5781,1.5788,1.5788,1.5795,1.5808,1.5808,1.5808,1.5808,1.5808,1.5808,1.5808,1.5808,1.5808,1.5808,1.5808,1.5471,1.5008,1.4995,1.4598,1.4109,1.4096,1.3153,1.1999,1.2261,1.1408,0.0,0.0,0.0,0.0,0.0,0.0,0.0,1.2086,0.0,0.0,0.0,0.0,1.2305,0.0,0.0,0.0,0.0,0.0,0.0,0.0,0.0,0.0,0.0,1.2517,1.2457,1.2764,1.3287,1.3606,1.3613,1.3915,1.3152,1.0837,1.0621,0.9693,0.7571,0.7429,0.7539,0.7801,0.8134,0.8362,0.8498,0.875,0.8902,0.8902,0.8909,0.8912,0.8912,0.8912,0.8912,0.8912,0.8912,0.8912,0.8912,0.8912,0.8912,0.8912,0.8912,0.8912,0.8912,0.8912,0.8912,0.8912,0.0,0.0,0.0,0.0,1.4772,1.4872,1.4972,1.5146,1.5391,1.5755,1.6055,1.6453,1.6973,1.7113,1.7207,0.0,0.0,1.7227,1.704,1.6958,0.0,1.6707,1.6488,1.6366,0.0,1.6197,1.6025,1.5808,1.5808,1.5808,1.5808,1.5808,1.5808,1.5808,1.5808,1.5808,1.5815,1.6039,1.6012,1.573,1.4878,1.5045,1.5706,1.4854,1.4252,1.3699,1.2842,1.2226,1.1783,1.1783,1.1444,1.1065,1.1144,1.0855,1.0426,1.0243,1.0198,1.0195,1.016,1.0307,1.0674,1.1547,1.178,1.1925,0.0,0.0,0.0,0.0,0.0,0.0,0.0,0.0,0.0,0.0,0.0,0.0,0.0,1.1784,1.1757,1.1864,1.2591,1.3206,1.3567,1.3027,1.2067,1.0708,0.9901,0.8806,0.7281,0.7338,0.7485,0.7665,0.8087,0.8366,0.8505,0.8757,0.8912,0.8912,0.8912,0.8912,0.8912,0.8912,0.8912,0.8912,0.8912,0.8912,0.8912,0.8912,0.8912,0.8912,0.8912,0.8912,0.8912,0.8912,0.8912,0.8912,1.5551,0.0,0.0,1.5019,1.5073,1.514,1.514,1.5474,1.5639,1.5385,1.5686,1.5897,1.5827,1.5852,1.6149,1.6757,1.6823,1.6963,1.7315,1.7259,0.0,1.7021,1.682,1.6667,0.0,0.0,0.0,0.0,1.5855,1.5808,1.5808,1.5808,1.5808,1.5808,1.5808,1.5808,1.5815,1.6032,1.5735,1.4997,1.371,1.3686,1.4274,1.3006,1.2803,1.303,1.1764,1.099,1.0611,1.0611,1.033,0.9988,0.9988,0.9701,0.933,0.9141,0.9106,0.9126,0.922,0.9387,0.9773,1.0634,1.0856,1.1095,1.1965,0.0,1.1846,0.0,0.0,0.0,0.0,0.0,0.0,0.0,0.0,0.0,0.0,1.1406,1.1406,1.1406,1.2111,1.2645,1.2662,1.2214,1.1377,1.0099,0.9323,0.8364,0.7161,0.7288,0.7464,0.7594,0.7984,0.8282,0.8505,0.873,0.8855,0.8912,0.8912,0.8912,0.8912,0.8912,0.8912,0.8912,0.8912,0.8912,0.8912,0.8912,0.8912,0.8912,0.8912,0.8912,0.8912,0.8912,0.8912,0.8912,1.5808,1.5808,1.5635,1.5126,1.526,1.5418,1.5418,1.5858,1.5794,1.4638,1.4456,1.4132,1.338,1.3024,1.3482,1.5154,1.531,1.5876,1.7312,1.7159,0.0,0.0,1.6888,1.6773,1.709,0.0,0.0,0.0,0.0,1.5808,1.5808,1.5808,1.5808,1.5808,1.5808,1.5761,1.5733,1.5722,1.5,1.3738,1.236,1.1863,1.1765,1.0415,1.1196,1.2848,1.1581,1.0816,1.0438,1.0438,0.9705,0.8803,0.8803,0.8013,0.7095,0.7095,0.7095,0.7285,0.8123,0.8331,0.8539,0.9445,0.9648,0.9873,1.0757,1.0948,1.0942,0.0,0.0,0.0,0.0,0.0,0.0,0.0,0.0,0.0,0.0,0.0,1.1355,1.1311,1.1821,1.187,1.107,1.1427,1.0926,0.9048,0.8846,0.8299,0.7161,0.7288,0.7464,0.7594,0.7861,0.8155,0.8495,0.8628,0.8757,0.8899,0.8906,0.8912,0.8912,0.8912,0.8912,0.8912,0.8912,0.8912,0.8912,0.8912,0.8912,0.8912,0.8912,0.8912,0.8912,0.8912,0.8912,0.8912,1.5808,1.5808,1.5761,1.5608,1.5641,1.5695,1.5695,1.5115,1.4639,1.4568,1.3784,1.3241,1.3288,1.3214,1.3365,1.3798,1.3831,0.0,0.0,0.0,0.0,1.4395,1.5267,1.5668,1.5567,1.6238,1.6486,1.6297,0.0,1.5808,1.5808,1.5808,1.5808,1.5808,1.5808,1.534,1.4557,1.475,1.4156,1.2931,1.1309,1.1238,1.187,0.9433,0.9308,1.0283,0.9006,0.8303,0.7987,0.7987,0.7793,0.7555,0.7555,0.7356,0.7095,0.7095,0.7095,0.7155,0.7377,0.7432,0.7701,0.8819,0.8917,0.9025,1.0146,1.0207,1.0023,1.0023,1.0283,0.0,0.0,0.0,0.0,0.0,0.0,0.0,0.0,0.0,0.0,1.005,1.0303,1.0635,1.0977,0.9888,0.9076,0.8908,0.8057,0.7426,0.7117,0.7288,0.7464,0.7594,0.7861,0.8108,0.8349,0.8581,0.873,0.8743,0.8855,0.8912,0.8912,0.8912,0.8912,0.8912,0.8912,0.8912,0.8912,0.8912,0.8912,0.8912,0.8912,0.8912,0.8912,0.8912,0.8912,0.8912,1.5808,1.5808,1.5808,1.5808,1.5399,1.506,1.506,1.507,1.4713,1.3751,1.3159,1.2638,1.2203,1.1679,1.1647,1.2267,1.2349,0.0,1.3264,0.0,0.0,1.3291,1.4073,1.4415,1.425,1.474,0.0,1.5556,0.0,1.5316,1.5808,1.5808,1.5808,1.5808,1.5808,1.5434,1.4783,1.3868,1.3196,1.2525,1.0342,0.9886,0.0,0.8744,0.8385,0.8666,0.7947,0.7432,0.7095,0.7095,0.7095,0.7095,0.7095,0.7095,0.7095,0.7095,0.7095,0.7095,0.7095,0.7095,0.7272,0.7951,0.7966,0.8111,0.9174,0.9275,0.9131,0.9131,0.9544,0.9857,0.9612,0.0,0.0,0.0,0.0,0.0,0.0,0.0,0.0,0.0,0.883,0.8903,0.9266,0.8625,0.8142,0.8043,0.7453,0.7095,0.7095,0.735,0.7532,0.7597,0.7861,0.8088,0.8294,0.8496,0.8645,0.8713,0.8838,0.8912,0.8912,0.8912,0.8912,0.8912,0.8912,0.8912,0.8912,0.8912,0.8912,0.8912,0.8912,0.8519,0.7931,0.7931,0.8349,0.8912,1.5808,1.5808,1.5808,1.5808,1.4862,1.4055,1.3886,1.485,1.4754,1.2468,1.2238,1.1815,1.0605,0.9536,0.9427,1.0699,1.0809,1.1351,1.2647,1.2729,1.2729,1.2729,1.2918,1.3021,1.3021,1.2861,1.3398,0.0,0.0,0.0,1.5808,1.5808,1.5808,1.5808,1.5808,1.5627,1.5202,1.2961,1.2048,1.1907,0.9504,0.8464,0.8349,0.8311,0.8092,0.7814,0.7818,0.7523,0.7152,0.7154,0.7148,0.7144,0.7102,0.7095,0.7095,0.7095,0.7095,0.7095,0.7095,0.7095,0.7095,0.7095,0.7095,0.7303,0.8066,0.8223,0.8223,0.8223,0.9065,0.9285,0.7639,0.0,0.0,0.0,0.0,0.0,0.0,0.0,0.0,0.0,0.0,0.0,0.6971,0.7598,0.7692,0.69,0.6994,0.7095,0.7095,0.7408,0.7607,0.7628,0.7871,0.8077,0.8264,0.8427,0.855,0.8682,0.8828,0.8912,0.8912,0.8912,0.8912,0.8912,0.8912,0.8912,0.8912,0.8912,0.8799,0.8605,0.8605,0.7706,0.6422,0.6422,0.7213,0.8316,1.5808,1.5808,1.5808,1.5808,1.4862,1.379,1.2847,1.2108,1.1533,1.1067,1.017,0.9494,0.925,0.903,0.8992,0.9265,0.9289,0.9399,0.9644,0.0,0.0,0.9671,1.0836,1.1483,1.1483,1.2355,1.3398,0.0,0.0,0.0,1.5808,1.5808,1.5808,1.5808,1.5808,1.4765,1.2908,1.1537,1.0416,0.9494,0.8908,0.8655,0.8608,0.8389,0.8157,0.7959,0.7834,0.7685,0.7499,0.7396,0.7352,0.7309,0.7158,0.7095,0.7095,0.7095,0.7095,0.7095,0.7095,0.7095,0.7095,0.7095,0.7095,0.7132,0.7303,0.7318,0.7318,0.7318,0.749,0.7826,0.847,0.9624,0.0,0.0,0.0,0.0,0.0,0.0,0.0,0.0,0.0,0.718,0.6278,0.6655,0.686,0.66,0.6894,0.7095,0.7095,0.7408,0.7651,0.777,0.7922,0.8027,0.8054,0.8347,0.8522,0.8526,0.8777,0.8912,0.8912,0.8912,0.8912,0.8912,0.8912,0.8912,0.8912,0.8912,0.8183,0.7091,0.7091,0.6172,0.4888,0.4888,0.5041,0.5285,1.5808,1.5808,1.561,1.5018,1.3914,1.2721,1.1545,1.0396,0.9908,1.0621,1.0193,0.9841,0.9841,0.927,0.8912,0.8912,0.8912,0.8912,0.8912,0.8912,0.8912,0.8912,0.9588,0.997,0.997,1.0509,1.1727,1.3656,0.0,0.0,0.0,1.5881,1.5808,1.5761,0.0,1.4419,1.3417,1.1511,1.0459,0.9962,0.9126,0.8754,0.8686,0.8492,0.8289,0.814,0.7959,0.7861,0.777,0.7567,0.7512,0.7475,0.7377,0.7357,0.734,0.7285,0.7258,0.7244,0.7119,0.7095,0.7095,0.7095,0.7095,0.7095,0.7095,0.7095,0.7095,0.7095,0.7095,0.747,0.8671,0.8727,0.8709,0.9037,0.0,0.0,0.0,0.0,0.7493,0.0,0.0,0.0,0.0,0.643,0.6573,0.6498,0.6817,0.7077,0.7251,0.7475,0.7665,0.7807,0.7935,0.7988,0.7988,0.8262,0.8437,0.8512,0.8713,0.8835,0.8912,0.8912,0.8953,0.9045,0.8943,0.8502,0.78,0.6952,0.6189,0.5569,0.5569,0.4641,0.33,0.3301,0.2817,0.2404,1.5597,1.5549,1.5172,1.3941,1.2718,1.159,1.064,0.9558,0.9196,1.016,1.031,1.0307,1.0307,0.9461,0.8912,0.8912,0.8912,0.8912,0.8912,0.8912,0.8912,0.8912,0.8912,0.8912,0.8912,0.8912,1.0019,0.0,0.0,1.3608,1.5929,0.0,0.0,1.5393,1.4556,1.4037,1.3641,1.1582,1.0671,1.0539,0.9372,0.8838,0.8716,0.8587,0.8488,0.8366,0.8128,0.8064,0.8023,0.7784,0.7672,0.7641,0.7607,0.76,0.7577,0.7478,0.7444,0.741,0.7208,0.7168,0.7158,0.7105,0.7095,0.7095,0.7095,0.7095,0.7095,0.7095,0.7095,0.7382,0.8342,0.7731,0.7404,0.8364,0.7539,0.0,0.0,0.0,0.0,0.0,0.0,0.0,0.6375,0.6457,0.6529,0.6495,0.6725,0.7024,0.7376,0.7508,0.7631,0.7804,0.7905,0.7966,0.7966,0.8177,0.8366,0.8509,0.8635,0.8781,0.8956,0.8588,0.8523,0.8676,0.817,0.7359,0.6293,0.5029,0.4303,0.4006,0.402,0.3077,0.1718,0.1718,0.0983,0.0348,1.4885,1.4659,1.426,1.2802,1.172,1.0971,1.0879,0.9993,0.9228,0.8923,0.8992,0.9078,0.9078,0.8958,0.8912,0.8912,0.8912,0.8912,0.8912,0.8912,0.8912,0.8912,0.8912,0.8912,0.8912,0.8912,0.9567,0.0,0.0,1.3211,1.4764,0.0,0.0,1.4267,1.4395,1.3209,1.1044,1.08,1.0085,0.9103,0.8964,0.8902,0.8872,0.872,0.8679,0.8632,0.8376,0.8274,0.8247,0.803,0.7881,0.777,0.7641,0.76,0.7597,0.7584,0.758,0.7546,0.7416,0.7372,0.7338,0.7154,0.7095,0.7095,0.7095,0.7095,0.7095,0.7095,0.7095,0.7139,0.725,0.7183,0.7139,0.725,0.716,0.0,0.0,0.0,0.7009,0.688,0.0,0.0,0.6501,0.661,0.662,0.6501,0.6627,0.6912,0.7372,0.741,0.7546,0.7801,0.78,0.7807,0.7807,0.8148,0.8366,0.8509,0.8635,0.8859,0.913,0.7613,0.6992,0.7042,0.5544,0.4846,0.4707,0.4561,0.3682,0.241,0.2416,0.1509,0.0201,0.0204,0.0119,0.003,1.337,1.3268,1.2879,1.1588,1.1052,1.0546,0.9814,0.9472,0.9206,0.9026,0.911,0.9205,0.9205,0.912,0.9066,0.9066,0.896,0.8912,0.8912,0.8912,0.8912,0.8912,0.8912,0.8912,0.8912,0.8912,0.9559,0.0,0.0,0.0,1.3522,1.3676,1.3521,1.3039,1.247,1.1652,1.0656,0.9934,0.9342,0.8912,0.8912,0.8912,0.8892,0.874,0.871,0.8672,0.8403,0.8298,0.8274,0.8067,0.7973,0.7912,0.7858,0.7841,0.782,0.7753,0.7726,0.7695,0.755,0.7532,0.7472,0.7319,0.7278,0.7255,0.7119,0.7095,0.7095,0.7095,0.7095,0.7095,0.7095,0.7095,0.7095,0.7095,0.7095,0.0,0.0,0.0,0.0,0.7018,0.0,0.6985,0.6864,0.677,0.6749,0.6843,0.683,0.6931,0.7195,0.7407,0.76,0.7804,0.7875,0.7922,0.7922,0.8044,0.7801,0.7188,0.7239,0.6959,0.6351,0.5685,0.5414,0.5393,0.3939,0.3243,0.3065,0.2174,0.1426,0.0887,0.0893,0.0532,0.0,0.0,0.0,0.0,1.2095,1.2016,1.1621,1.0388,1.0209,0.9979,0.9185,0.9191,0.9332,0.9373,0.9471,0.9479,0.942,0.9315,0.923,0.9214,0.9059,0.8956,0.8916,0.8912,0.8912,0.8912,0.8912,0.8912,0.8912,0.8912,0.9399,1.0457,1.0632,0.0,1.231,1.256,1.24,1.1862,1.1146,1.057,1.0097,0.9274,0.8912,0.8912,0.8912,0.8912,0.8899,0.8791,0.875,0.8716,0.8489,0.8427,0.8396,0.8174,0.8081,0.8074,0.803,0.7988,0.7993,0.7885,0.7854,0.782,0.7702,0.7662,0.7628,0.7502,0.7427,0.7365,0.7212,0.7151,0.7095,0.7095,0.7095,0.7095,0.7095,0.7095,0.7095,0.7095,0.7095,0.7095,0.0,0.7095,0.0,0.7095,0.7095,0.7095,0.7095,0.6993,0.6966,0.7085,0.711,0.7148,0.7246,0.7438,0.7617,0.7804,0.7891,0.7949,0.7949,0.8077,0.7513,0.631,0.6374,0.5766,0.4545,0.4124,0.3658,0.3126,0.217,0.1697,0.1485,0.0425,0.0,0.0,0.0,0.0,0.0,0.0,0.0,0.0,1.1397,1.1128,1.064,0.9182,0.908,0.9255,0.9383,0.9507,0.9652,0.9765,0.9785,0.9703,0.9441,0.941,0.9345,0.9224,0.9207,0.9117,0.8919,0.8912,0.8912,0.8912,0.8912,0.8912,0.8912,0.8912,0.8912,0.8937,0.0,1.0843,1.1156,1.2611,1.2366,1.0732,1.0994,1.0292,0.8909,0.8909,0.8912,0.8912,0.8912,0.8912,0.8912,0.8909,0.8909,0.8889,0.8733,0.8706,0.8662,0.8393,0.8294,0.8267,0.8064,0.7988,0.7988,0.7988,0.7985,0.7979,0.7824,0.7811,0.7773,0.7634,0.7508,0.7393,0.7393,0.7251,0.7095,0.7095,0.7095,0.7095,0.7095,0.7095,0.7095,0.7095,0.7095,0.7095,0.0,0.7095,0.0,0.7095,0.7095,0.7095,0.7095,0.7275,0.7302,0.7105,0.7398,0.7594,0.7594,0.7478,0.7532,0.7801,0.7814,0.779,0.779,0.8255,0.7749,0.6312,0.658,0.5987,0.4654,0.3175,0.1632,0.0062,0.0031,0.0031,0.0031,0.0,0.0,0.0,0.0,0.0,0.0,0.0,0.0,0.0,0.9699,0.9588,0.9454,0.8992,0.9059,0.9233,0.9386,0.951,0.9659,0.9771,0.9792,0.9754,0.969,0.9595,0.9517,0.9469,0.9301,0.9162,0.9114,0.8963,0.8912,0.8912,0.8912,0.8912,0.8912,0.8912,0.8912,0.8912,0.9298,0.9514,0.962,1.008,0.9995,0.9492,0.9567,0.9344,0.8912,0.8912,0.8912,0.8912,0.8912,0.8912,0.8912,0.8912,0.8912,0.8892,0.8737,0.871,0.8679,0.8509,0.844,0.8434,0.8357,0.8175,0.7988,0.7988,0.7988,0.7978,0.7956,0.7942,0.7905,0.778,0.7706,0.7621,0.744,0.7251,0.7095,0.7095,0.7095,0.7095,0.7095,0.7095,0.7095,0.7095,0.7095,0.7095,0.7095,0.0,0.7095,0.7095,0.7212,0.7299,0.7299,0.7434,0.7506,0.7458,0.7546,0.7553,0.7474,0.7587,0.7303,0.6465,0.6534,0.6138,0.5223,0.5365,0.4738,0.3358,0.3457,0.2784,0.1468,0.1015,0.0494,0.0,0.0,0.0,0.0,0.0,0.0,0.0,0.0,0.0,0.0,0.0,0.0,0.0,0.8912,0.8912,0.8912,0.8912,0.9015,0.9172,0.9379,0.9462,0.9595,0.9765,0.9792,0.9792,0.9792,0.971,0.9666,0.9615,0.9435,0.9305,0.9217,0.9069,0.8967,0.8912,0.8912,0.8912,0.8912,0.8912,0.8912,0.8912,0.8912,0.8912,0.8912,0.8912,0.8912,0.8912,0.8912,0.8912,0.8912,0.8912,0.8912,0.8912,0.8912,0.8912,0.8912,0.8912,0.8912,0.8899,0.8801,0.877,0.8747,0.8618,0.8567,0.8557,0.8526,0.8316,0.8101,0.8101,0.806,0.7988,0.7988,0.7988,0.7993,0.7895,0.7827,0.775,0.7536,0.7336,0.7205,0.7205,0.7205,0.7205,0.7205,0.7252,0.729,0.729,0.729,0.729,0.729,0.729,0.729,0.729,0.7397,0.7481,0.7481,0.7141,0.6935,0.6935,0.6496,0.6221,0.6121,0.6723,0.6461,0.5158,0.5203,0.4842,0.4015,0.4131,0.3451,0.1981,0.1477,0.0817,0.0,0.0,0.0,0.0,0.0,0.0,0.0,0.0,0.0,0.0,0.0,0.0,0.0,0.0,0.0,0.0,0.894,0.8933,0.8926,0.8926,0.8926,0.9021,0.9337,0.942,0.95,0.9754,0.9792,0.9792,0.9792,0.9792,0.9737,0.9635,0.9615,0.9486,0.9245,0.9214,0.9117,0.8919,0.8912,0.8912,0.8912,0.8912,0.8912,0.8912,0.8912,0.8912,0.8912,0.8912,0.8912,0.8912,0.8912,0.8912,0.8912,0.8912,0.8912,0.8912,0.8912,0.8912,0.8912,0.8912,0.8912,0.8912,0.8912,0.8912,0.8889,0.8747,0.8726,0.8703,0.856,0.8444,0.8321,0.8301,0.817,0.803,0.803,0.8037,0.8044,0.8044,0.7932,0.7807,0.7662,0.7519,0.7437,0.7427,0.7423,0.7423,0.7413,0.7525,0.76,0.76,0.76,0.76,0.76,0.76,0.7574,0.748,0.7466,0.7446,0.7352,0.6339,0.5674,0.5674,0.4623,0.3966,0.3865,0.4919,0.5029,0.3893,0.3854,0.3816,0.3725,0.4027,0.3416,0.1848,0.0604,0.0,0.0,0.0,0.0,0.0,0.0,0.0,0.0,0.0,0.0,0.0,0.0,0.0,0.0,0.0,0.0,0.0,0.9276,0.9209,0.9131,0.9131,0.9131,0.9192,0.9383,0.9479,0.9618,0.9768,0.9792,0.9792,0.9792,0.9792,0.9775,0.9744,0.9673,0.953,0.9369,0.9247,0.9117,0.8919,0.8912,0.8912,0.8912,0.8912,0.8912,0.8912,0.8912,0.8912,0.8912,0.8912,0.8912,0.8912,0.8912,0.8912,0.8912,0.8912,0.8912,0.8912,0.8912,0.8912,0.8912,0.8912,0.8912,0.8912,0.8912,0.8912,0.8906,0.8869,0.8855,0.8852,0.8814,0.8699,0.8564,0.8362,0.827,0.824,0.824,0.8296,0.8377,0.8377,0.8269,0.8123,0.7946,0.7885,0.7824,0.7733,0.7706,0.7675,0.7567,0.7577,0.76,0.76,0.76,0.76,0.76,0.76,0.7214,0.6188,0.6175,0.582,0.4804,0.454,0.4438,0.4438,0.4155,0.3565,0.2539,0.274,0.2766,0.2481,0.247,0.1983,0.0968,0.1033,0.0859,0.0455,0.0154,0.0,0.0,0.0,0.0,0.0,0.0,0.0,0.0,0.0,0.0,0.0,0.0,0.0,0.0,0.0,0.0,0.0,0.941,0.9342,0.9284,0.9284,0.9284,0.9339,0.9462,0.9557,0.9659,0.9771,0.9792,0.9792,0.9792,0.9792,0.9792,0.9792,0.9721,0.9642,0.9496,0.9373,0.922,0.9042,0.8946,0.8912,0.8912,0.8912,0.8912,0.8912,0.8912,0.8912,0.8912,0.8912,0.8912,0.8912,0.8912,0.8912,0.8912,0.8912,0.8912,0.8912,0.8912,0.8912,0.8912,0.8912,0.8912,0.8912,0.8912,0.8912,0.8912,0.8912,0.8912,0.8912,0.8912,0.8804,0.8679,0.852,0.8447,0.8393,0.8393,0.8451,0.8509,0.8509,0.8451,0.8369,0.8262,0.8191,0.8123,0.8038,0.8021,0.7977,0.7804,0.7858,0.7687,0.6982,0.6873,0.6653,0.6039,0.5967,0.5671,0.4964,0.4936,0.4697,0.3958,0.3396,0.309,0.309,0.2514,0.1844,0.1122,0.1091,0.1076,0.1076,0.1086,0.0725,0.0,0.0,0.0,0.0,0.0,0.0,0.0,0.0,0.0,0.0,0.0,0.0,0.0,0.0,0.0,0.0,0.0,0.0,0.0,0.0,0.0,0.0,0.9449,0.9432,0.9415,0.9415,0.9415,0.9459,0.9591,0.9629,0.9686,0.9775,0.9792,0.9792,0.9792,0.9792,0.9792,0.9792,0.9792,0.9731,0.9618,0.9466,0.9342,0.9217,0.9015,0.8912,0.8912,0.8912,0.8912,0.8912,0.8912,0.8912,0.8912,0.8912,0.8912,0.8912,0.8912,0.8912,0.8912,0.8912,0.8912,0.8912,0.8912,0.8912,0.8912,0.8912,0.8912,0.8912,0.8912,0.8912,0.8912,0.8912,0.8912,0.8912,0.8912,0.8821,0.872,0.872,0.8652,0.8547,0.8549,0.8533,0.8547,0.8523,0.8533,0.8547,0.8523,0.8282,0.805,0.8027,0.784,0.7612,0.7421,0.7544,0.7217,0.5919,0.5701,0.529,0.4168,0.3991,0.3915,0.3715,0.369,0.3615,0.3416,0.2363,0.1688,0.1693,0.0633,0.0,0.0,0.0,0.0,0.0,0.0,0.0,0.0,0.0,0.0,0.0,0.0,0.0,0.0,0.0,0.0,0.0,0.0,0.0,0.0,0.0,0.0,0.0,0.0,0.0,0.0,0.0,0.0,0.0,0.9751,0.9656,0.9574,0.9574,0.9574,0.9581,0.9605,0.968,0.9765,0.9788,0.9792,0.9792,0.9792,0.9792,0.9792,0.9792,0.9792,0.9731,0.9618,0.9466,0.9342,0.9217,0.9015,0.8912,0.8912,0.8912,0.8912,0.8912,0.8912,0.8912,0.8912,0.8912,0.8912,0.8912,0.8912,0.8912,0.8912,0.8912,0.8912,0.8912,0.8912,0.8912,0.8912,0.8912,0.8912,0.8912,0.8912,0.8912,0.8912,0.8912,0.8912,0.8912,0.8912,0.8896,0.8875,0.8875,0.8858,0.8814,0.871,0.8743,0.8808,0.8706,0.8743,0.8804,0.8706,0.7771,0.6926,0.6797,0.575,0.478,0.4643,0.4637,0.4592,0.4356,0.4316,0.4242,0.4024,0.3991,0.359,0.244,0.2314,0.1862,0.0731,0.0429,0.0305,0.031,0.0129,0.0,0.0,0.0,0.0,0.0,0.0,0.0,0.0,0.0,0.0,0.0,0.0,0.0,0.0,0.0,0.0,0.0,0.0,0.0,0.0,0.0,0.0,0.0,0.0,0.0,0.0,0.0,0.0,0.0,0.9792,0.9737,0.9694,0.9694,0.9694,0.9694,0.9694,0.9748,0.9792,0.9792,0.9792,0.9792,0.9792,0.9792,0.9792,0.9792,0.9792,0.9731,0.9618,0.9466,0.9342,0.9217,0.9015,0.8912,0.8912,0.8912,0.8912,0.8912,0.8912,0.8912,0.8912,0.8912,0.8912,0.8912,0.8912,0.8912,0.8912,0.8912,0.8912,0.8912,0.8912,0.8912,0.8912,0.8912,0.8912,0.8912,0.8912,0.838,0.7706,0.7706,0.7177,0.6533,0.6533,0.6533,0.6533,0.6533,0.7651,0.8699,0.7856,0.7659,0.7498,0.6663,0.6496,0.6521,0.6441,0.5969,0.549,0.5446,0.4858,0.4311,0.4129,0.4115,0.3851,0.305,0.2911,0.2667,0.1946,0.1841,0.1608,0.0987,0.0917,0.0685,0.0053,0.0,0.0,0.0,0.0,0.0,0.0,0.0,0.0,0.0,0.0,0.0,0.0,0.0,0.0,0.0,0.0,0.0,0.0,0.0,0.0,0.0,0.0,0.0,0.0,0.0,0.0,0.0,0.0,0.0,0.0,0.0,0.0,0.0,0.9741,0.9768,0.9792,0.9792,0.9792,0.9792,0.9792,0.9792,0.9792,0.9792,0.9792,0.9792,0.9792,0.9792,0.9792,0.9792,0.9792,0.9714,0.9568,0.9445,0.9342,0.9217,0.9015,0.8912,0.8912,0.8912,0.8912,0.8912,0.8912,0.8912,0.8912,0.8912,0.8912,0.8912,0.8912,0.8912,0.8912,0.8912,0.8912,0.8912,0.8912,0.8688,0.838,0.838,0.8183,0.7875,0.7875,0.7149,0.62,0.62,0.5447,0.4498,0.4498,0.4498,0.4498,0.4498,0.6114,0.7623,0.6505,0.62,0.5919,0.4777,0.4498,0.4498,0.4498,0.4219,0.3967,0.3967,0.3689,0.3396,0.3242,0.3233,0.2863,0.1717,0.1526,0.1178,0.0134,0.0,0.0,0.0,0.0,0.0,0.0,0.0,0.0,0.0,0.0,0.0,0.0,0.0,0.0,0.0,0.0,0.0,0.0,0.0,0.0,0.0,0.0,0.0,0.0,0.0,0.0,0.0,0.0,0.0,0.0,0.0,0.0,0.0,0.0,0.0,0.0,0.0,0.0,0.0,0.9625,0.97,0.9792,0.9792,0.9792,0.9792,0.9792,0.9792,0.9792,0.9792,0.9792,0.9792,0.9792,0.9792,0.9792,0.9792,0.9792,0.97,0.9444,0.9417,0.9342,0.9217,0.9015,0.8912,0.8912,0.8912,0.8912,0.8912,0.8912,0.8912,0.8912,0.8912,0.8912,0.8912,0.8912,0.8912,0.8912,0.8912,0.8912,0.8912,0.8912,0.8069,0.6869,0.6869,0.6003,0.4832,0.4832,0.4751,0.4667,0.4667,0.4582,0.4498,0.4498,0.4498,0.4498,0.4498,0.4667,0.4804,0.4693,0.4667,0.4639,0.4528,0.4498,0.4498,0.4498,0.3409,0.2375,0.2375,0.1287,0.0336,0.0308,0.0308,0.0278,0.0164,0.0137,0.0109,0.0027,0.0,0.0,0.0,0.0,0.0,0.0,0.0,0.0,0.0,0.0,0.0,0.0,0.0,0.0,0.0,0.0,0.0,0.0,0.0,0.0,0.0,0.0,0.0,0.0,0.0,0.0,0.0,0.0,0.0,0.0,0.0,0.0,0.0,0.0,0.0,0.0,0.0,0.0,0.0,0.9591,0.9652,0.9717,0.9775,0.9792,0.9792,0.9792,0.9792,0.9792,0.9792,0.9792,0.9792,0.9792,0.9792,0.9792,0.9792,0.971,0.9602,0.9424,0.9322,0.9203,0.9025,0.894,0.8912,0.8912,0.8912,0.8912,0.8912,0.8912,0.8912,0.8912,0.8912,0.8912,0.8912,0.8912,0.8912,0.8847,0.7926,0.7532,0.7468,0.6546,0.5842,0.5337,0.5339,0.4976,0.449,0.451,0.3883,0.3073,0.3073,0.2461,0.1707,0.1707,0.1707,0.1707,0.1707,0.1707,0.1707,0.1707,0.2377,0.285,0.193,0.1707,0.1707,0.1707,0.126,0.084,0.084,0.0392,0.0,0.0,0.0,0.0,0.0,0.0,0.0,0.0,0.0,0.0,0.0,0.0,0.0,0.0,0.0,0.0,0.0,0.0,0.0,0.0,0.0,0.0,0.0,0.0,0.0,0.0,0.0,0.0,0.0,0.0,0.0,0.0,0.0,0.0,0.0,0.0,0.0,0.0,0.0,0.0,0.0,0.0,0.0,0.0,0.0,0.0,0.0,0.9517,0.9612,0.9707,0.9771,0.9792,0.9792,0.9792,0.9792,0.9792,0.9792,0.9792,0.9792,0.9792,0.9792,0.9771,0.9727,0.9666,0.9523,0.9352,0.9199,0.9042,0.8916,0.8912,0.8912,0.8912,0.8912,0.8912,0.8912,0.8912,0.8912,0.8912,0.8912,0.8912,0.8881,0.8405,0.8214,0.8112,0.6646,0.5996,0.5934,0.4904,0.4219,0.3776,0.3789,0.3489,0.3088,0.3084,0.2404,0.151,0.151,0.084,0.0,0.0,0.0,0.0,0.0,0.0,0.0,0.0,0.0728,0.1259,0.0252,0.0,0.0,0.0,0.0,0.0,0.0,0.0,0.0,0.0,0.0,0.0,0.0,0.0,0.0,0.0,0.0,0.0,0.0,0.0,0.0,0.0,0.0,0.0,0.0,0.0,0.0,0.0,0.0,0.0,0.0,0.0,0.0,0.0,0.0,0.0,0.0,0.0,0.0,0.0,0.0,0.0,0.0,0.0,0.0,0.0,0.0,0.0,0.0,0.0,0.0,0.0,0.0,0.0,0.0,0.9413,0.9618,0.9788,0.9792,0.9792,0.9792,0.9792,0.9792,0.9792,0.9792,0.9792,0.9792,0.9792,0.9788,0.9734,0.9622,0.9608,0.9476,0.9228,0.9018,0.8912,0.8912,0.8912,0.8912,0.8912,0.8912,0.8912,0.8912,0.8881,0.8881,0.8881,0.8881,0.8854,0.8799,0.7343,0.6693,0.6586,0.5118,0.4475,0.4482,0.4482,0.3555,0.2184,0.2195,0.1284,0.0,0.0,0.0,0.0,0.0,0.0,0.0,0.0,0.0,0.0,0.0,0.0,0.0,0.0,0.0,0.0,0.0,0.0,0.0,0.0,0.0,0.0,0.0,0.0,0.0,0.0,0.0,0.0,0.0,0.0,0.0,0.0,0.0,0.0,0.0,0.0,0.0,0.0,0.0,0.0,0.0,0.0,0.0,0.0,0.0,0.0,0.0,0.0,0.0,0.0,0.0,0.0,0.0,0.0,0.0,0.0,0.0,0.0,0.0,0.0,0.0,0.0,0.0,0.0,0.0,0.0,0.0,0.0,0.0,0.0,0.0,0.952,0.9612,0.9673,0.9771,0.9792,0.9792,0.9792,0.9792,0.9792,0.9792,0.9792,0.9792,0.9792,0.9704,0.9656,0.9612,0.9441,0.9237,0.9015,0.8933,0.8912,0.8912,0.8912,0.8912,0.8912,0.8912,0.8912,0.8912,0.7873,0.7343,0.7343,0.6311,0.5826,0.5791,0.5362,0.5168,0.5053,0.3532,0.2888,0.2785,0.175,0.1059,0.0655,0.0667,0.0379,0.0,0.0,0.0,0.0,0.0,0.0,0.0,0.0,0.0,0.0,0.0,0.0,0.0,0.0,0.0,0.0,0.0,0.0,0.0,0.0,0.0,0.0,0.0,0.0,0.0,0.0,0.0,0.0,0.0,0.0,0.0,0.0,0.0,0.0,0.0,0.0,0.0,0.0,0.0,0.0,0.0,0.0,0.0,0.0,0.0,0.0,0.0,0.0,0.0,0.0,0.0,0.0,0.0,0.0,0.0,0.0,0.0,0.0,0.0,0.0,0.0,0.0,0.0,0.0,0.0,0.0,0.0,0.0,0.0,0.0,0.0,0.949,0.9568,0.9652,0.9765,0.9792,0.9792,0.9792,0.9792,0.9792,0.9792,0.9792,0.9768,0.9714,0.9659,0.9561,0.9439,0.9208,0.9032,0.8916,0.8912,0.8629,0.8042,0.8602,0.8912,0.8912,0.8912,0.8605,0.8042,0.7149,0.6394,0.5808,0.4916,0.4502,0.446,0.3865,0.3578,0.3485,0.1973,0.1317,0.1241,0.0356,0.0,0.0,0.0,0.0,0.0,0.0,0.0,0.0,0.0,0.0,0.0,0.0,0.0,0.0,0.0,0.0,0.0,0.0,0.0,0.0,0.0,0.0,0.0,0.0,0.0,0.0,0.0,0.0,0.0,0.0,0.0,0.0,0.0,0.0,0.0,0.0,0.0,0.0,0.0,0.0,0.0,0.0,0.0,0.0,0.0,0.0,0.0,0.0,0.0,0.0,0.0,0.0,0.0,0.0,0.0,0.0,0.0,0.0,0.0,0.0,0.0,0.0,0.0,0.0,0.0,0.0,0.0,0.0,0.0,0.0,0.0,0.0,0.0,0.0,0.0,0.9403,0.9523,0.9669,0.9768,0.9792,0.9792,0.9792,0.9792,0.9785,0.9771,0.9771,0.9717,0.9605,0.9578,0.9456,0.9234,0.9022,0.8912,0.8912,0.8912,0.8294,0.6952,0.8069,0.8716,0.8716,0.8716,0.7986,0.6505,0.6364,0.5611,0.4303,0.4164,0.4105,0.4044,0.2625,0.1993,0.1905,0.0564,0.0,0.0,0.0,0.0,0.0,0.0,0.0,0.0,0.0,0.0,0.0,0.0,0.0,0.0,0.0,0.0,0.0,0.0,0.0,0.0,0.0,0.0,0.0,0.0,0.0,0.0,0.0,0.0,0.0,0.0,0.0,0.0,0.0,0.0,0.0,0.0,0.0,0.0,0.0,0.0,0.0,0.0,0.0,0.0,0.0,0.0,0.0,0.0,0.0,0.0,0.0,0.0,0.0,0.0,0.0,0.0,0.0,0.0,0.0,0.0,0.0,0.0,0.0,0.0,0.0,0.0,0.0,0.0,0.0,0.0,0.0,0.0,0.0,0.0,0.0,0.0,0.0,0.0,0.9554,0.9676,0.9754,0.9785,0.9792,0.9792,0.9792,0.9792,0.9751,0.9669,0.9656,0.9598,0.9449,0.9352,0.9254,0.9214,0.9022,0.8912,0.8912,0.8912,0.8771,0.8436,0.7623,0.7177,0.7177,0.7177,0.645,0.4973,0.377,0.3016,0.2682,0.1511,0.0974,0.0963,0.0613,0.0468,0.0456,0.0136,0.0,0.0,0.0,0.0,0.0,0.0,0.0,0.0,0.0,0.0,0.0,0.0,0.0,0.0,0.0,0.0,0.0,0.0,0.0,0.0,0.0,0.0,0.0,0.0,0.0,0.0,0.0,0.0,0.0,0.0,0.0,0.0,0.0,0.0,0.0,0.0,0.0,0.0,0.0,0.0,0.0,0.0,0.0,0.0,0.0,0.0,0.0,0.0,0.0,0.0,0.0,0.0,0.0,0.0,0.0,0.0,0.0,0.0,0.0,0.0,0.0,0.0,0.0,0.0,0.0,0.0,0.0,0.0,0.0,0.0,0.0,0.0,0.0,0.0,0.0,0.0,0.0,0.0,0.9595,0.9669,0.969,0.969,0.969,0.9696,0.9622,0.9612,0.9585,0.951,0.95,0.9442,0.9318,0.923,0.9155,0.9055,0.8307,0.7848,0.7848,0.7204,0.6478,0.5748,0.5667,0.4972,0.3548,0.4188,0.4188,0.3409,0.2598,0.1845,0.1147,0.0364,0.0,0.0,0.0,0.0,0.0,0.0,0.0,0.0,0.0,0.0,0.0,0.0,0.0,0.0,0.0,0.0,0.0,0.0,0.0,0.0,0.0,0.0,0.0,0.0,0.0,0.0,0.0,0.0,0.0,0.0,-0.0535,-0.0854,-0.0174,0.0,0.0,0.0,0.0,0.0,0.0,0.0,0.0,0.0,0.0,0.0,0.0,0.0,0.0,0.0,0.0,0.0,0.0,0.0,0.0,0.0,0.0,0.0,0.0,0.0,0.0,0.0,0.0,0.0,0.0,0.0,0.0,0.0,0.0,0.0,0.0,0.0,0.0,0.0,0.0,0.0,0.0,0.0,0.0,0.0,0.0,0.0,0.0,0.0,0.0,0.0,0.9507,0.9554,0.9482,0.9209,0.9179,0.9049,0.8693,0.8645,0.8636,0.8614,0.8611,0.8555,0.8417,0.8401,0.8329,0.8165,0.7035,0.6339,0.6339,0.5168,0.3939,0.2654,0.3576,0.2936,0.042,0.1315,0.1817,0.1817,0.1817,0.1203,0.0,0.0,0.0,0.0,0.0,0.0,0.0,0.0,0.0,0.0,0.0,0.0,0.0,0.0,0.0,0.0,0.0,0.0,0.0,0.0,0.0,0.0,0.0,0.0,0.0,0.0,0.0,-0.0056,-0.0308,-0.0364,-0.0448,-0.07,-0.1696,-0.2265,-0.105,-0.0763,-0.077,-0.0761,-0.0797,-0.0798,-0.0798,-0.0585,-0.0432,-0.0432,-0.0185,0.0,0.0,0.0,0.0,0.0,0.0,0.0,0.0,0.0,0.0,0.0,0.0,0.0,0.0,0.0,0.0,0.0,0.0,0.0,0.0,0.0,0.0,0.0,0.0,0.0,0.0,0.0,0.0,0.0,0.0,0.0,0.0,0.0,0.0,0.0,0.0,0.0,0.0,0.0,0.0,0.0,0.924,0.9349,0.8997,0.7673,0.7436,0.699,0.5716,0.551,0.5453,0.5347,0.5337,0.5277,0.5138,0.5128,0.5124,0.5085,0.4916,0.4804,0.4804,0.4609,0.4414,0.4191,0.3101,0.2319,0.1901,0.084,0.0308,0.0308,0.0308,0.0196,0.0,0.0,0.0,0.0,0.0,0.0,0.0,0.0,0.0,0.0,0.0,0.0,0.0,0.0,0.0,0.0,0.0,0.0,0.0,0.0,0.0,0.0,0.0,0.0,0.0,0.0,0.0,-0.028,-0.1566,-0.1901,-0.2235,-0.355,-0.4032,-0.4139,-0.3946,-0.3889,-0.3904,-0.3892,-0.3998,-0.4066,-0.4066,-0.3018,-0.2155,-0.2155,-0.0956,0.0,0.0,0.0,0.0,0.0,0.0,0.0,0.0,0.0,0.0,0.0,0.0,0.0,0.0,0.0,0.0,0.0,0.0,0.0,0.0,0.0,0.0,0.0,0.0,0.0,0.0,0.0,0.0,0.0,0.0,0.0,0.0,0.0,0.0,0.0,0.0,0.0,0.0,0.0,0.0,0.0,0.681,0.685,0.6662,0.5876,0.5753,0.5504,0.4774,0.4681,0.4642,0.4606,0.4602,0.4562,0.4503,0.4498,0.4498,0.4498,0.3716,0.3214,0.3214,0.2433,0.1986,0.1986,0.1343,0.098,0.098,0.0336,0.0,0.0,0.0,0.0,0.0,0.0,0.0,0.0,0.0,0.0,0.0,0.0,0.0,0.0,0.0,0.0,0.0,0.0,0.0,0.0,0.0,0.0,0.0,0.0,0.0,-0.014,-0.098,-0.1231,-0.1399,-0.2265,-0.2517,-0.2656,-0.3297,-0.3491,-0.366,-0.4331,-0.5111,-0.5736,-0.5719,-0.6355,-0.6479,-0.4846,-0.4601,-0.4712,-0.4712,-0.4228,-0.3844,-0.3844,-0.2462,-0.1387,-0.1387,-0.0586,0.0,0.0,0.0,0.0,0.0,0.0,0.0,0.0,0.0,0.0,0.0,0.0,0.0,0.0,0.0,0.0,0.0,0.0,0.0,0.0,0.0,0.0,0.0,0.0,0.0,0.0,0.0,0.0,0.0,0.0,0.0,0.0,0.0,0.0,0.0,0.0,0.0,0.0]},{"header":{"parameterUnit":"m.s-1","parameterCategory":1,"la1":30.6,"la2":28.766,"lo1":-90.7593,"lo2":-88.6598,"dy":0.0162,"dx":0.0183,"nx":116,"ny":114,"refTime":"2023-04-02T06:00:00:Z","depth":0,"parameterNumber":3,"parameterNumberName":"V-component_of_WINDS"},"data":[0.0,0.0,0.0,0.0,0.0,0.0,0.0,0.0,0.0,0.0,0.0,0.0,0.0,0.0,0.0,0.0,0.0,0.0,0.0,0.0,0.0,0.0,0.0,0.0,0.0,0.0,0.0,0.0,0.0,0.0,0.0,0.0,0.0,0.0,0.0,0.0,0.0,0.0,0.0,0.0,0.0,0.0,0.0,0.0,0.0,0.0,0.0,0.0,0.0,0.0,0.0,0.0,0.0,0.0,0.0,0.0,0.0,0.0,0.0,0.0,0.0,0.0,0.0,0.0,0.0,0.0,0.0,0.0,0.0,0.0,0.0,0.0,0.0,0.0,0.0,0.0,0.0,0.0,0.0,0.0,0.0,0.0,0.0,0.0,0.0,0.0,0.0,0.0,0.0,0.0,0.0,0.0,0.0,0.0,0.0,0.0,0.0,0.0,0.0,0.0,0.0,0.0,0.0,0.0,0.0,0.0,0.0,0.0,0.0,0.0,0.0,0.0,0.0,0.0,0.0,0.0,0.0,0.0,0.0,0.0,0.0,0.0,0.0,0.0,0.0,0.0,0.0,0.0,0.0,0.0,0.0,0.0,0.0,0.0,0.0,0.0,0.0,0.0,0.0,0.0,0.0,0.0,0.0,0.0,0.0,0.0,0.0,0.0,0.0,0.0,0.0,0.0,0.0,0.0,0.0,0.0,0.0,0.0,0.0,0.0,0.0,0.0,0.0,0.0,0.0,0.0,0.0,0.0,0.0,0.0,0.0,0.0,0.0,0.0,0.0,0.0,0.0,0.0,0.0,0.0,0.0,0.0,0.0,0.0,0.0,0.0,0.0,0.0,0.0,0.0,0.0,0.0,0.0,0.0,0.0,0.0,0.0,0.0,0.0,0.0,0.0,0.0,0.0,0.0,0.0,0.0,0.0,0.0,0.0,0.0,0.0,0.0,0.0,0.0,0.0,0.0,0.0,0.0,0.0,0.0,0.0,0.0,0.0,0.0,0.0,0.0,0.0,0.0,0.0,0.0,0.0,0.0,0.0,0.0,0.0,0.0,0.0,0.0,0.0,0.0,0.0,0.0,0.0,0.0,0.0,0.0,0.0,0.0,0.0,0.0,0.0,0.0,0.0,0.0,0.0,0.0,0.0,0.0,0.0,0.0,0.0,0.0,0.0,0.0,0.0,0.0,0.0,0.0,0.0,0.0,0.0,0.0,0.0,0.0,0.0,0.0,0.0,0.0,0.0,0.0,0.0,0.0,0.0,0.0,0.0,0.0,0.0,0.0,0.0,0.0,0.0,0.0,0.0,0.0,0.0,0.0,0.0,0.0,0.0,0.0,0.0,0.0,0.0,0.0,0.0,0.0,0.0,0.0,0.0,0.0,0.0,0.0,0.0,0.0,0.0,0.0,0.0,0.0,0.0,0.0,0.0,0.0,0.0,0.0,0.0,0.0,0.0,0.0,0.0,0.0,0.0,0.0,0.0,0.0,0.0,0.0,0.0,0.0,0.0,0.0,0.0,0.0,0.0,0.0,0.0,0.0,0.0,0.0,0.0,0.0,0.0,0.0,0.0,0.0,0.0,0.0,0.0,0.0,0.0,0.0,0.0,0.0,0.0,0.0,0.0,0.0,0.0,0.0,0.0,0.0,0.0,0.0,0.0,0.0,0.0,0.0,0.0,0.0,0.0,0.0,0.0,0.0,0.0,0.0,0.0,0.0,0.0,0.0,0.0,0.0,0.0,0.0,0.0,0.0,0.0,0.0,0.0,0.0,0.0,0.0,0.0,0.0,0.0,0.0,0.0,0.0,0.0,0.0,0.0,0.0,0.0,0.0,0.0,0.0,0.0,0.0,0.0,0.0,0.0,0.0,0.0,0.0,0.0,0.0,0.0,0.0,0.0,0.0,0.0,0.0,0.0,0.0,0.0,0.0,0.0,0.0,0.0,0.0,0.0,0.0,0.0,0.0,0.0,0.0,0.0,0.0,0.0,0.0,0.0,0.0,0.0,0.0,0.0,0.0,0.0,0.0,0.0,0.0,0.0,0.0,0.0,0.0,0.0,0.0,0.0,0.0,0.0,0.0,0.0,0.0,0.0,0.0,0.0,0.0,0.0,0.0,0.0,0.0,0.0,0.0,0.0,0.0,0.0,0.0,0.0,0.0,0.0,0.0,0.0,0.0,0.0,0.0,0.0,0.0,0.0,0.0,0.0,0.0,0.0,0.0,0.0,0.0,0.0,0.0,0.0,0.0,0.0,0.0,0.0,0.0,0.0,0.0,0.0,0.0,0.0,0.0,0.0,0.0,0.0,0.0,0.0,0.0,0.0,0.0,0.0,0.0,0.0,0.0,0.0,0.0,0.0,0.0,0.0,0.0,0.0,0.0,0.0,0.0,0.0,0.0,0.0,0.0,0.0,0.0,0.0,0.0,0.0,0.0,0.0,0.0,0.0,0.0,0.0,0.0,0.0,0.0,0.0,0.0,0.0,0.0,0.0,0.0,0.0,0.0,0.0,0.0,0.0,0.0,0.0,0.0,0.0,0.0,0.0,0.0,0.0,0.0,0.0,0.0,0.0,0.0,0.0,0.0,0.0,0.0,0.0,0.0,0.0,0.0,0.0,0.0,0.0,0.0,0.0,0.0,0.0,0.0,0.0,0.0,0.0,0.0,0.0,0.0,0.0,0.0,0.0,0.0,0.0,0.0,0.0,0.0,0.0,0.0,0.0,0.0,0.0,0.0,0.0,0.0,0.0,0.0,0.0,0.0,0.0,0.0,0.0,0.0,0.0,0.0,0.0,0.0,0.0,0.0,0.0,0.0,0.0,0.0,0.0,0.0,0.0,0.0,0.0,0.0,0.0,0.0,0.0,0.0,0.0,0.0,0.0,0.0,0.0,0.0,0.0,0.0,0.0,0.0,0.0,0.0,0.0,0.0,0.0,0.0,0.0,0.0,0.0,0.0,0.0,0.0,0.0,0.0,0.0,0.0,0.0,0.0,0.0,0.0,0.0,0.0,0.0,0.0,0.0,0.0,0.0,0.0,0.0,0.0,0.0,0.0,0.0,0.0,0.0,0.0,0.0,0.0,0.0,0.0,0.0,0.0,0.0,0.0,0.0,0.0,0.0,0.0,0.0,0.0,0.0,0.0,0.0,0.0,0.0,0.0,0.0,0.0,0.0,0.0,0.0,0.0,0.0,0.0,0.0,0.0,0.0,0.0,0.0,0.0,0.0,0.0,0.0,0.0,0.0,0.0,0.0,0.0,0.0,0.0,0.0,0.0,0.0,0.0,0.0,0.0,0.0,0.0,0.0,0.0,0.0,0.0,0.0,0.0,0.0,0.0,0.0,0.0,0.0,0.0,0.0,0.0,0.0,0.0,0.0,0.0,0.0,0.0,0.0,0.0,0.0,0.0,0.0,0.0,0.0,0.0,0.0,0.0,0.0,0.0,0.0,0.0,0.0,0.0,0.0,0.0,0.0,0.0,0.0,0.0,0.0,0.0,0.0,0.0,0.0,0.0,0.0,0.0,0.0,0.0,0.0,0.0,0.0,0.0,0.0,0.0,0.0,0.0,0.0,0.0,0.0,0.0,0.0,0.0,0.0,0.0,0.0,0.0,0.0,0.0,0.0,0.0,0.0,0.0,0.0,0.0,0.0,0.0,0.0,0.0,0.0,0.0,0.0,0.0,0.0,0.0,0.0,0.0,0.0,0.0,0.0,0.0,0.0,0.0,0.0,0.0,0.0,0.0,0.0,0.0,0.0,0.0,0.0,0.0,0.0,0.0,0.0,0.0,0.0,0.0,0.0,0.0,0.0,0.0,0.0,0.0,0.0,0.0,0.0,0.0,0.0,0.0,0.0,0.0,0.0,0.0,0.0,0.0,0.0,0.0,0.0,0.0,0.0,0.0,0.0,0.0,0.0,0.0,0.0,0.0,0.0,0.0,0.0,0.0,0.0,0.0,0.0,0.0,0.0,0.0,0.0,0.0,0.0,0.0,0.0,0.0,0.0,0.0,0.0,0.0,0.0,0.0,0.0,0.0,0.0,0.0,0.0,0.0,0.0,0.0,0.0,0.0,0.0,0.0,0.0,0.0,0.0,0.0,0.0,0.0,0.0,0.0,0.0,0.0,0.0,0.0,0.0,0.0,0.0,0.0,0.0,0.0,0.0,0.0,0.0,0.0,0.0,0.0,0.0,0.0,0.0,0.0,0.0,0.0,0.0,0.0,0.0,0.0,0.0,0.0,0.0,0.0,0.0,0.0,0.0,0.0,0.0,0.0,0.0,0.0,0.0,0.0,0.0,0.0,0.0,0.0,0.0,0.0,0.0,0.0,0.0,0.0,0.0,0.0,0.0,0.0,0.0,0.0,0.0,0.0,0.0,0.0,0.0,0.0,0.0,0.0,0.0,0.0,0.0,0.0,0.0,0.0,0.0,0.0,0.0,0.0,0.0,0.0,0.0,0.0,0.0,0.0,0.0,0.0,0.0,0.0,0.0,0.0,0.0,0.0,0.0,0.0,0.0,0.0,0.0,0.0,0.0,0.0,0.0,0.0,0.0,0.0,0.0,0.0,0.0,0.0,0.0,0.0,0.0,0.0,0.0,0.0,0.0,0.0,0.0,0.0,0.0,0.0,0.0,0.0,0.0,0.0,0.0,0.0,0.0,0.0,0.0,0.0,0.0,0.0,0.0,0.0,0.0,0.0,0.0,0.0,0.0,0.0,0.0,0.0,0.0,0.0,0.0,0.0,0.0,0.0,0.0,0.0,0.0,0.0,0.0,0.0,0.0,0.0,0.0,0.0,0.0,0.0,0.0,0.0,0.0,0.0,0.0,0.0,0.0,0.0,0.0,0.0,0.0,0.0,0.0,0.0,0.0,0.0,0.0,0.0,0.0,0.0,0.0,0.0,0.0,0.0,0.0,0.0,0.0,0.0,0.0,0.0,0.0,0.0,0.0,0.0,0.0,0.0,0.0,0.0,0.0,0.0,0.0,0.0,0.0,0.0,0.0,0.0,0.0,0.0,0.0,0.0,0.0,0.0,0.0,0.0,0.0,0.0,0.0,0.0,0.0,0.0,0.0,0.0,0.0,0.0,0.0,0.0,0.0,0.0,0.0,0.0,0.0,0.0,0.0,0.0,0.0,0.0,0.0,0.0,0.0,0.0,0.0,0.0,0.0,0.0,0.0,0.0,0.0,0.0,0.0,0.0,0.0,0.0,0.0,0.0,0.0,0.0,0.0,0.0,0.0,0.0,0.0,0.0,0.0,0.0,0.0,0.0,0.0,0.0,0.0,0.0,0.0,0.0,0.0,0.0,0.0,0.0,0.0,0.0,0.0,0.0,0.0,0.0,0.0,0.0,0.0,0.0,0.0,0.0,0.0,0.0,0.0,0.0,0.0,0.0,0.0,0.0,0.0,0.0,0.0,0.0,0.0,0.0,0.0,0.0,0.0,0.0,0.0,0.0,0.0,0.0,0.0,0.0,0.0,0.0,0.0,0.0,0.0,0.0,0.0,0.0,0.0,0.0,0.0,0.0,0.0,0.0,0.0,0.0,0.0,0.0,0.0,0.0,0.0,0.0,0.0,0.0,0.0,0.0,0.0,0.0,0.0,0.0,0.0,0.0,0.0,0.0,0.0,0.0,0.0,0.0,0.0,0.0,0.0,0.0,0.0,0.0,0.0,0.0,0.0,0.0,0.0,0.0,0.0,0.0,0.0,0.0,0.0,0.0,0.0,0.0,0.0,0.0,0.0,0.0,0.0,0.0,0.0,0.0,0.0,0.0,0.0,0.0,0.0,0.0,0.0,0.0,0.0,0.0,0.0,0.0,0.0,0.0,0.0,0.0,0.0,0.0,0.0,0.0,0.0,0.0,0.0,0.0,0.0,0.0,0.0,0.0,0.0,0.0,0.0,0.0,0.0,0.0,0.0,0.0,0.0,0.0,0.0,0.0,0.0,0.0,0.0,0.0,0.0,0.0,0.0,0.0,0.0,0.0,0.0,0.0,0.0,0.0,0.0,0.0,0.0,0.0,0.0,0.0,0.0,0.0,0.0,0.0,0.0,0.0,0.0,0.0,0.0,0.0,0.0,0.0,0.0,0.0,0.0,0.0,0.0,0.0,3.1423,0.0,0.0,0.0,0.0,0.0,0.0,0.0,0.0,0.0,0.0,0.0,0.0,0.0,0.0,0.0,0.0,0.0,0.0,0.0,0.0,0.0,0.0,0.0,0.0,0.0,0.0,0.0,0.0,0.0,0.0,0.0,0.0,0.0,0.0,0.0,0.0,0.0,0.0,0.0,3.6214,3.6214,3.6197,3.7364,3.7505,3.6794,0.0,0.0,0.0,0.0,0.0,0.0,0.0,0.0,0.0,0.0,0.0,0.0,0.0,0.0,0.0,0.0,0.0,0.0,0.0,0.0,0.0,0.0,0.0,0.0,0.0,0.0,0.0,0.0,0.0,0.0,0.0,0.0,0.0,0.0,0.0,0.0,0.0,0.0,0.0,0.0,0.0,0.0,0.0,0.0,0.0,0.0,0.0,0.0,0.0,0.0,0.0,0.0,0.0,0.0,0.0,0.0,0.0,0.0,0.0,0.0,0.0,0.0,0.0,0.0,0.0,0.0,0.0,0.0,0.0,0.0,0.0,3.1511,0.0,0.0,0.0,0.0,0.0,0.0,0.0,0.0,0.0,0.0,0.0,0.0,0.0,0.0,0.0,0.0,0.0,0.0,0.0,0.0,0.0,0.0,0.0,0.0,3.966,3.9051,3.887,3.8548,0.0,0.0,0.0,0.0,0.0,0.0,0.0,3.5949,3.6056,3.6186,3.6321,3.6721,3.7388,3.7872,3.7471,3.6377,3.6118,0.0,0.0,0.0,0.0,0.0,0.0,0.0,0.0,0.0,0.0,0.0,0.0,0.0,0.0,0.0,0.0,0.0,0.0,0.0,0.0,0.0,0.0,0.0,0.0,0.0,0.0,0.0,0.0,0.0,0.0,0.0,0.0,0.0,0.0,0.0,0.0,0.0,0.0,0.0,0.0,0.0,0.0,0.0,0.0,0.0,0.0,0.0,0.0,0.0,0.0,0.0,0.0,0.0,0.0,0.0,0.0,0.0,0.0,0.0,0.0,0.0,0.0,0.0,3.1511,3.1511,3.1511,3.1511,3.1511,3.1511,3.1511,3.1511,3.1511,3.1511,0.0,0.0,0.0,0.0,0.0,0.0,0.0,0.0,0.0,0.0,0.0,0.0,0.0,0.0,0.0,0.0,0.0,0.0,0.0,0.0,0.0,3.9153,3.9119,3.9017,3.8413,3.7995,0.0,0.0,0.0,0.0,0.0,0.0,3.6631,3.7263,3.7922,3.8548,3.9186,3.9559,3.9656,3.9119,3.9089,3.9437,3.8164,3.7657,3.7719,0.0,0.0,0.0,0.0,0.0,0.0,0.0,0.0,0.0,0.0,0.0,0.0,0.0,0.0,0.0,0.0,0.0,0.0,0.0,0.0,0.0,0.0,0.0,0.0,0.0,0.0,0.0,0.0,0.0,0.0,0.0,0.0,0.0,0.0,0.0,0.0,0.0,0.0,0.0,0.0,0.0,3.1735,3.1645,0.0,0.0,0.0,0.0,0.0,0.0,0.0,0.0,0.0,0.0,0.0,0.0,0.0,3.1511,3.1511,3.1511,3.1511,3.1511,3.1511,3.1511,3.1511,3.1511,3.1511,3.1511,3.1511,0.0,3.1511,3.1511,0.0,0.0,0.0,0.0,0.0,0.0,0.0,0.0,0.0,0.0,0.0,0.0,0.0,0.0,0.0,0.0,0.0,0.0,0.0,0.0,0.0,3.9,3.9,3.9,3.87,3.8159,3.7342,3.7376,0.0,0.0,0.0,3.7427,3.7427,3.7736,3.8261,3.9,4.0138,4.0726,4.0726,4.0811,4.1018,4.1288,4.024,3.9529,3.9102,3.834,0.0,0.0,0.0,0.0,0.0,0.0,0.0,0.0,0.0,0.0,0.0,0.0,0.0,0.0,0.0,0.0,0.0,0.0,0.0,0.0,0.0,0.0,0.0,0.0,0.0,0.0,0.0,0.0,0.0,0.0,0.0,0.0,0.0,0.0,0.0,0.0,0.0,0.0,0.0,3.1511,3.1511,3.1511,3.1511,3.1511,0.0,0.0,0.0,0.0,0.0,0.0,0.0,0.0,0.0,3.1511,3.1511,3.1511,3.1511,3.1511,3.1511,3.1511,3.1511,3.1511,3.1511,3.1511,3.1511,3.1511,3.1511,3.1511,3.1511,3.1511,3.1511,3.1511,0.0,0.0,0.0,0.0,3.1511,3.1511,0.0,0.0,0.0,0.0,0.0,0.0,0.0,0.0,0.0,0.0,0.0,0.0,3.8734,3.8717,3.8785,3.8983,3.8662,3.8137,3.741,3.7702,0.0,0.0,3.7499,3.7893,3.7893,3.865,3.9394,4.0138,4.1424,4.2066,4.2066,4.2232,4.2401,4.254,4.161,4.1001,4.0603,3.9474,3.9106,3.9191,0.0,0.0,0.0,0.0,0.0,0.0,0.0,0.0,0.0,0.0,0.0,0.0,0.0,0.0,0.0,0.0,0.0,0.0,0.0,0.0,0.0,0.0,0.0,0.0,0.0,0.0,0.0,0.0,0.0,0.0,0.0,0.0,0.0,0.0,0.0,0.0,0.0,3.1511,3.1511,3.1511,3.1511,3.1511,0.0,0.0,0.0,0.0,0.0,0.0,3.1511,3.1511,3.1511,3.1511,3.1511,3.1511,3.1511,3.1511,3.1511,3.1511,3.1511,3.1511,3.1511,3.1511,3.1511,3.1511,3.1511,3.1511,3.1511,3.1511,3.1511,3.1511,3.1511,3.1511,3.1511,3.1511,3.1511,3.1511,0.0,0.0,0.0,0.0,0.0,0.0,0.0,0.0,0.0,0.0,0.0,3.8717,3.8041,3.7973,3.8244,3.8937,3.7714,3.7461,3.8797,3.8278,3.7567,3.6829,3.7499,3.7893,3.7893,4.0646,4.2439,4.3186,4.4012,4.4429,4.4398,4.2976,4.2675,4.3288,4.1833,4.1576,4.2046,3.9914,3.9411,3.9923,3.8485,0.0,0.0,0.0,0.0,0.0,0.0,0.0,0.0,0.0,0.0,0.0,0.0,0.0,0.0,0.0,0.0,0.0,0.0,0.0,0.0,0.0,0.0,0.0,0.0,0.0,0.0,0.0,0.0,0.0,0.0,0.0,0.0,0.0,0.0,0.0,0.0,0.0,0.0,3.1511,3.1511,0.0,0.0,0.0,0.0,3.1511,3.1511,3.1511,3.1511,3.1511,3.1511,3.1511,3.1511,3.1511,3.1511,3.1511,3.1511,3.1511,3.1511,3.1511,3.1511,3.1511,3.1511,3.1511,3.1511,3.1511,3.1511,3.1511,3.1511,3.1511,3.1511,3.1511,3.1511,3.1511,3.1511,3.1511,0.0,0.0,0.0,0.0,0.0,0.0,0.0,0.0,3.8548,3.7359,3.7838,3.8007,3.7274,3.7618,3.8012,3.8278,3.8244,3.8239,3.8294,3.8481,3.8481,3.8222,3.8464,3.9056,3.999,4.1052,4.1948,4.2692,4.2976,4.3112,4.3112,4.257,4.2692,4.3355,4.2354,4.2621,4.3653,4.1877,4.1542,4.2091,4.0616,4.002,0.0,0.0,0.0,0.0,0.0,0.0,0.0,0.0,0.0,0.0,0.0,0.0,0.0,0.0,0.0,0.0,0.0,0.0,0.0,0.0,0.0,0.0,0.0,0.0,0.0,0.0,0.0,0.0,0.0,0.0,0.0,0.0,0.0,0.0,0.0,0.0,0.0,3.2146,3.1782,0.0,3.1511,3.1511,3.1511,3.1511,3.1899,3.2138,3.2138,3.2542,3.2781,3.2781,3.2781,3.2781,3.2781,3.2781,3.2781,3.2781,3.2781,3.2781,3.2781,3.2781,3.2781,3.2781,3.2781,3.2781,3.2781,3.2781,3.2288,3.1511,3.1511,3.1511,3.1511,3.1511,3.1511,3.1511,0.0,0.0,0.0,0.0,0.0,0.0,0.0,0.0,3.79,3.6931,3.7224,3.7432,3.7207,3.7393,3.7736,3.8227,3.8481,3.8713,3.8894,3.9116,3.915,3.8901,3.872,3.9403,4.106,4.1167,4.1663,4.2594,4.2406,4.2435,4.2658,4.2151,4.2455,4.3355,4.2371,4.276,4.4144,4.3098,4.2949,4.3304,4.2053,4.1576,4.1491,0.0,0.0,0.0,0.0,0.0,0.0,0.0,0.0,0.0,0.0,0.0,0.0,0.0,0.0,0.0,0.0,0.0,0.0,0.0,0.0,0.0,0.0,0.0,0.0,0.0,0.0,0.0,0.0,0.0,0.0,0.0,0.0,0.0,0.0,0.0,3.2461,3.3211,3.2648,3.2168,3.2168,3.2168,3.2168,3.2168,3.2587,3.2841,3.2841,3.326,3.3499,3.3499,3.3499,3.3499,3.3499,3.3499,3.3499,3.3499,3.3499,3.3499,3.3499,3.3499,3.3499,3.3499,3.3499,3.3499,3.3499,3.3499,3.2976,3.2168,3.2168,3.2168,3.2168,3.2168,3.2168,3.2168,0.0,0.0,0.0,0.0,0.0,0.0,0.0,3.7274,3.6795,3.6795,3.6795,3.7071,3.7787,3.7252,3.7416,3.8814,3.8352,3.8797,4.0735,4.0118,3.9368,3.8745,3.8259,3.8923,4.088,4.1102,4.1827,4.3133,4.253,4.2591,4.3271,4.1833,4.1952,4.3304,4.1867,4.2053,4.344,4.344,4.344,4.3372,4.2625,4.2333,4.2252,0.0,0.0,0.0,0.0,0.0,0.0,0.0,0.0,0.0,0.0,0.0,0.0,0.0,0.0,0.0,0.0,0.0,0.0,0.0,0.0,0.0,0.0,0.0,0.0,0.0,0.0,0.0,0.0,0.0,0.0,0.0,0.0,0.0,3.4875,3.4077,3.3856,3.4641,3.4029,3.353,3.3499,3.3499,3.3499,3.3499,3.3514,3.3529,3.3529,3.3544,3.3559,3.3589,3.3589,3.3604,3.3619,3.3619,3.3619,3.3619,3.3619,3.3619,3.3619,3.3619,3.3619,3.3619,3.3619,3.3619,3.3619,3.3619,3.3619,3.3604,3.3529,3.3499,3.3499,3.3499,3.3499,3.3499,0.0,0.0,0.0,0.0,0.0,0.0,0.0,3.7274,3.6795,3.6795,3.6795,3.688,3.7071,3.7752,3.7962,3.7457,3.8545,3.9503,4.0071,3.9345,3.9012,3.9268,3.9786,4.0607,4.1745,4.125,4.1226,4.1746,4.1053,4.0811,4.0997,4.0591,4.12,4.2574,4.2168,4.2828,4.4279,4.4279,4.4279,4.4212,4.3406,4.3102,4.3017,0.0,0.0,0.0,0.0,0.0,0.0,0.0,0.0,0.0,0.0,0.0,0.0,0.0,0.0,0.0,0.0,0.0,0.0,0.0,0.0,0.0,0.0,0.0,0.0,0.0,0.0,0.0,0.0,0.0,0.0,0.0,3.6042,3.6446,3.6253,3.5615,3.5238,3.5389,3.4804,3.4149,3.3561,3.3499,3.3499,3.3499,3.3949,3.4218,3.4218,3.4697,3.5175,3.567,3.5685,3.5878,3.6327,3.6327,3.6327,3.6327,3.6327,3.6327,3.6327,3.6327,3.6327,3.6327,3.6327,3.6327,3.6327,3.6327,3.6327,3.6148,3.4233,3.3499,3.3499,3.3499,3.3499,3.3499,0.0,0.0,0.0,0.0,0.0,0.0,0.0,3.6916,3.6593,3.7439,3.7012,3.6905,3.7636,3.824,3.8442,3.8094,3.9365,4.0262,4.0468,3.9738,3.9608,4.0271,4.063,4.1175,4.1956,4.1273,4.1087,4.1452,4.0781,4.0724,4.1281,4.097,4.1486,4.2672,4.2672,4.3214,4.4113,4.4465,4.4615,4.455,4.4079,4.391,4.3826,4.3047,4.276,4.2726,4.2418,4.23,4.23,4.23,0.0,0.0,0.0,0.0,0.0,0.0,0.0,0.0,0.0,0.0,0.0,0.0,0.0,0.0,0.0,0.0,0.0,0.0,0.0,0.0,0.0,0.0,0.0,0.0,3.8157,3.8646,3.8646,3.7217,3.6279,3.6558,3.5936,3.52,3.4401,3.462,3.4666,3.4369,3.4967,3.5341,3.5341,3.5953,3.6477,3.6866,3.6881,3.7045,3.7387,3.7387,3.7387,3.7387,3.7387,3.7387,3.7387,3.7387,3.7387,3.7387,3.7387,3.7387,3.7387,3.7387,3.7387,0.0,0.0,0.0,0.0,0.0,3.4577,3.4337,0.0,0.0,0.0,0.0,0.0,0.0,0.0,3.6468,3.6382,3.8333,3.7453,3.7232,3.8836,3.8854,3.9035,3.974,4.0489,4.1064,4.1383,4.088,4.0853,4.1477,4.1125,4.1234,4.1888,4.138,4.1335,4.181,4.1251,4.1612,4.2751,4.2118,4.2281,4.3164,4.3195,4.3314,4.3549,4.429,4.4615,4.4615,4.4615,4.4615,4.4516,4.3809,4.3541,4.344,4.2794,4.257,4.257,4.257,0.0,0.0,0.0,0.0,0.0,0.0,0.0,0.0,0.0,0.0,0.0,0.0,0.0,0.0,0.0,0.0,0.0,0.0,0.0,0.0,0.0,0.0,0.0,0.0,4.0602,4.1085,4.1085,3.8698,3.7201,3.7857,3.7218,3.6508,3.5936,3.6303,3.6381,3.5894,3.6319,3.6632,3.6733,0.0,0.0,0.0,0.0,3.7554,3.7612,3.7644,3.7644,3.7644,3.7644,3.7644,3.7644,3.7644,3.7644,3.7644,3.7644,3.7644,3.7612,3.7537,3.7524,3.7509,3.7434,3.7387,3.7345,3.6791,3.6222,3.5714,0.0,0.0,0.0,0.0,0.0,0.0,0.0,3.6785,3.6805,3.8388,3.8272,3.8283,3.8936,4.013,4.06,3.9861,4.1331,4.2046,4.1447,4.1908,4.2204,4.2133,4.2257,4.2385,4.2519,4.242,4.2172,4.181,4.1675,4.1763,4.2012,4.1871,4.2213,4.2975,4.3129,4.3538,4.4152,4.4466,4.4615,4.4615,4.4615,4.4615,4.4567,4.4432,4.4364,4.4347,4.4212,4.4161,4.4161,4.4161,4.3707,4.3186,4.3186,4.2273,0.0,0.0,0.0,0.0,0.0,0.0,0.0,0.0,0.0,0.0,0.0,0.0,0.0,0.0,0.0,0.0,0.0,0.0,0.0,3.9119,3.9802,4.0303,4.0303,3.9242,3.8526,3.8674,3.8019,3.7752,3.8203,3.7199,3.6942,3.8001,3.7541,3.7516,3.8247,3.7721,3.7971,3.9217,3.8566,3.8467,3.9017,3.9017,3.9017,3.9017,0.0,0.0,3.9017,3.9017,3.9017,3.9017,3.9017,3.9017,3.8973,3.8437,3.8197,3.8138,3.7614,3.7387,3.7404,3.727,3.715,3.7028,0.0,0.0,0.0,0.0,0.0,0.0,0.0,3.7189,3.7436,3.9164,3.9017,3.9175,4.0289,4.0939,4.1116,4.0633,4.1391,4.1886,4.1859,4.2259,4.2621,4.2883,4.304,4.2967,4.2711,4.2711,4.2539,4.2262,4.2262,4.2384,4.2649,4.2649,4.2709,4.281,4.3285,4.3384,4.3225,4.37,4.3727,4.345,4.345,4.345,4.3535,4.431,4.4347,4.4045,4.4465,4.4347,4.4062,4.4465,4.433,4.3995,4.3995,4.3217,4.2222,0.0,0.0,0.0,0.0,0.0,0.0,0.0,0.0,0.0,0.0,0.0,0.0,0.0,0.0,3.9062,3.9437,0.0,3.9606,3.999,4.0393,4.0777,4.1149,4.0848,4.0334,3.9586,3.9177,3.9086,3.9412,3.8685,3.8512,3.9298,3.8856,3.874,3.9173,3.9112,3.9209,3.9542,3.9134,3.9047,3.9406,3.9735,3.9885,3.9885,4.0247,4.0397,4.0397,4.0397,4.0217,3.987,3.9556,3.9212,3.8856,3.8182,3.7898,3.7868,3.7539,3.7614,3.7898,3.7898,3.7689,3.7387,0.0,0.0,0.0,0.0,0.0,0.0,0.0,3.7578,3.8041,3.994,3.9787,4.0076,4.1626,4.1515,4.1338,4.1334,4.1343,4.1617,4.2268,4.2451,4.2827,4.3469,4.3506,4.3294,4.2864,4.2864,4.2864,4.2864,4.2864,4.3087,4.3506,4.3506,4.3268,4.2891,4.3515,4.3287,4.2457,4.2973,4.2923,4.2454,4.2353,4.23,4.2435,4.367,4.3741,4.3304,4.4262,4.3992,4.3321,4.4279,4.4398,4.4212,4.4499,4.3944,4.3068,4.2472,4.1779,0.0,0.0,0.0,0.0,0.0,0.0,0.0,0.0,3.9643,3.9389,3.9977,4.0096,4.0096,4.0096,4.0096,4.0337,4.1085,4.1204,4.1457,4.2198,4.23,4.1913,4.087,4.0494,4.0407,4.0645,4.0336,4.0187,4.0361,4.0084,3.9969,4.0135,4.0623,4.0666,4.0114,4.0072,3.9983,3.978,4.0509,4.0765,4.0591,4.134,4.1577,4.1403,4.1403,4.1025,4.0367,3.969,3.9077,3.8542,3.7868,3.7582,3.7584,3.7464,3.7808,3.8409,3.8409,3.8138,3.7776,0.0,0.0,0.0,0.0,0.0,0.0,0.0,0.0,3.8383,3.9986,4.0585,4.1106,4.1721,4.2012,4.1894,4.1194,4.1776,4.2194,4.2286,4.2974,4.3414,4.3506,4.3506,4.3462,4.341,4.341,4.341,4.341,4.341,4.3436,4.3506,4.3506,4.348,4.3429,4.3689,4.3728,4.3591,4.3325,4.3155,4.3044,4.252,4.23,4.2317,4.2486,4.2503,4.2608,4.4076,4.3653,4.2655,4.411,4.3687,4.2807,4.4161,4.3602,4.2418,4.232,4.1779,4.1035,4.0303,4.0096,4.0096,4.0096,4.0045,3.9994,0.0,4.0045,4.0011,4.0079,4.0096,4.0096,4.0096,4.0096,4.0337,4.1085,4.1204,4.1457,4.2198,4.23,4.2479,4.2959,4.1866,4.1581,4.2894,4.1713,4.1133,4.1725,4.104,4.0937,4.1693,4.1695,4.1969,4.2578,4.2476,4.2028,4.1179,4.2086,4.2117,4.1298,4.2212,4.2221,4.1403,4.1403,4.1025,4.0367,3.969,3.9361,3.9227,3.8556,3.8305,3.8245,3.7644,3.7808,3.8409,3.8409,3.8736,3.9182,0.0,0.0,0.0,0.0,0.0,0.0,0.0,0.0,0.0,4.0591,4.1345,4.2041,4.2729,4.2083,4.147,4.1132,4.1415,4.1801,4.2268,4.3047,4.3506,4.3506,4.3506,4.3506,4.3506,4.3506,4.3506,4.3506,4.3506,4.3506,4.3506,4.3506,4.3321,4.3041,4.3113,4.2775,4.2104,4.1934,4.1679,4.1374,4.1112,4.1014,4.1064,4.1491,4.1403,4.1217,4.2723,4.257,0.0,4.2909,4.2824,4.2418,4.3061,4.2824,4.2215,4.1779,4.1441,4.1035,4.0303,3.9779,3.9559,3.9994,4.0096,4.0096,4.0096,4.0096,4.0096,4.0096,4.0096,4.0096,4.0096,4.0455,4.0832,4.1153,4.1559,4.21,4.2831,4.2932,4.3234,4.4012,4.3555,4.3418,4.4035,4.3023,4.2838,4.4065,4.3357,4.3202,4.399,4.3978,4.3861,4.3695,4.3646,4.3147,4.2224,4.2994,4.2916,4.1991,4.2739,4.2882,4.2487,4.2152,4.1194,3.9765,3.911,3.8601,3.821,3.7943,3.7823,3.7793,3.7524,3.7808,3.8365,3.7958,3.8003,3.824,0.0,0.0,0.0,0.0,0.0,0.0,0.0,0.0,0.0,0.0,4.1801,4.2525,4.3121,4.2139,4.1342,4.1113,4.1305,4.1764,4.258,4.3176,4.3598,4.3818,4.3616,4.3506,4.3506,4.3506,4.3506,4.3506,4.3506,4.3506,4.3506,4.3506,4.3286,4.2911,4.2769,4.2203,4.138,4.1041,4.0679,4.0311,4.0159,4.0096,4.0163,4.0679,4.0438,3.9982,4.1471,4.139,4.0713,4.1441,4.1559,4.1471,4.1863,4.1863,4.1627,4.1305,4.1068,4.073,3.9999,3.9559,3.9423,3.9977,4.0096,4.0096,4.0096,4.0096,4.0096,4.0096,4.0265,4.0405,4.0405,4.1014,4.1576,4.1766,4.2252,4.2861,4.3609,4.3727,4.3944,4.4533,4.4615,4.4615,4.4615,4.4204,4.4445,4.5553,4.5059,4.4933,4.546,4.5691,4.5519,4.4851,4.4777,4.4308,4.3363,4.3826,4.3603,4.2646,4.3188,4.3305,4.301,4.2226,4.1149,3.9885,3.905,3.8512,3.8195,3.8015,3.7941,3.7926,3.7764,3.7973,3.8317,3.7659,3.7627,3.7926,0.0,0.0,0.0,0.0,0.0,0.0,0.0,0.0,0.0,0.0,0.0,0.0,0.0,4.2286,4.1956,4.1177,4.1801,4.2598,4.3414,4.3488,4.3846,4.4626,4.3928,4.3506,4.3506,4.3506,4.3506,4.3506,4.3506,4.3506,4.3506,4.3506,4.3479,4.3444,4.293,4.2674,4.2577,4.1402,4.0891,4.0839,4.0311,4.0096,4.0096,4.0117,3.9677,3.9237,4.0713,4.0307,3.9174,3.9923,3.9686,3.9343,4.0781,4.0734,4.0312,4.0988,4.0679,3.9977,3.9237,3.9542,4.0079,4.0096,4.0096,4.0096,4.0096,4.0096,4.0096,4.0096,4.0675,4.117,4.117,4.1762,4.2489,4.322,4.3355,4.3643,4.4448,4.455,4.4567,4.4615,4.4615,4.4615,4.4615,4.5232,4.5601,4.5505,4.5476,4.5477,4.5493,4.617,4.6518,4.6437,4.624,4.5696,4.475,4.4765,4.4266,4.328,4.363,4.332,4.2381,4.1074,4.0771,4.1268,3.9948,3.972,4.0262,3.9601,3.9346,3.9272,3.8616,3.8377,3.8317,3.7659,3.821,3.9242,0.0,0.0,0.0,0.0,0.0,0.0,0.0,0.0,0.0,0.0,0.0,0.0,0.0,0.0,0.0,0.0,4.2451,4.2635,4.3451,4.3993,4.4415,4.47,4.4443,4.4305,4.4305,4.3763,4.3506,4.3506,4.3506,4.3506,4.3506,4.3506,4.3303,4.2958,4.2788,4.248,4.2059,4.1246,4.0626,4.0181,4.0119,3.9808,3.9423,3.9897,3.9643,3.9,0.0,3.87,3.8311,3.8553,3.8481,3.8362,3.884,3.884,3.879,3.9529,3.9225,3.8802,3.9525,3.9542,3.9491,3.9977,4.0096,4.0096,4.0096,4.0096,4.0235,4.0743,4.0641,4.0625,4.1119,4.1796,4.2384,4.2625,4.3521,4.4296,4.455,4.5024,4.5331,4.5331,4.5331,4.5517,4.6022,4.5396,4.5363,4.6292,4.6363,4.6782,4.7755,4.8057,4.789,4.7259,4.8232,4.7798,4.576,4.6831,4.6653,4.5235,4.5345,4.4982,4.4219,4.3151,4.2548,4.2266,4.1192,4.0591,4.0382,4.0172,3.9795,3.9376,3.9152,3.9047,3.9032,3.8808,3.9017,3.9242,0.0,0.0,0.0,0.0,0.0,0.0,0.0,0.0,0.0,0.0,0.0,0.0,0.0,0.0,0.0,0.0,0.0,4.3075,4.3883,4.414,4.4397,4.4681,4.4149,4.3837,4.3837,4.3057,4.2782,4.3065,4.3065,4.3231,4.3506,4.3506,4.3214,4.2702,4.248,4.2059,4.1464,4.0879,4.0332,3.9919,4.0054,3.9812,3.9423,3.9626,3.9254,0.0,3.777,3.733,3.7082,3.7082,3.728,3.7499,3.7499,3.7872,3.8278,3.8239,3.8442,3.8848,3.9525,3.9542,3.9508,3.9982,4.0096,4.018,4.0422,4.0489,4.0641,4.1102,4.1031,4.0946,4.117,4.1796,4.23,4.23,4.3586,4.4615,4.4615,4.5449,4.6007,4.5722,4.594,4.6177,4.638,4.5548,4.5497,4.6716,4.7276,4.8003,4.8951,4.9255,4.9122,4.8511,4.9206,4.868,4.6712,4.7441,4.7156,4.584,4.584,4.5489,4.4818,4.4211,4.3712,4.3235,4.2315,4.1849,4.1728,4.1398,4.0991,4.0582,4.0355,4.0046,3.972,3.9496,3.9406,3.9242,0.0,0.0,0.0,0.0,0.0,0.0,0.0,0.0,0.0,0.0,0.0,0.0,0.0,0.0,0.0,0.0,0.0,0.0,4.459,4.3956,4.3901,4.4663,4.324,4.2415,4.2415,4.1599,4.1562,4.2359,4.2323,4.2708,4.3506,4.3506,4.3232,4.2731,4.2152,4.1595,4.1088,4.0495,4.017,4.0077,4.0074,4.0019,3.9859,3.9203,3.8481,3.7741,3.7054,3.6282,3.56,3.5661,3.6197,3.6863,3.6863,3.7816,3.8679,3.732,3.8403,3.991,3.9237,3.9592,4.0163,4.0163,4.018,4.04,4.1102,4.1238,4.1208,4.1255,4.1711,4.1927,4.1271,4.1711,4.2198,4.2249,4.3535,4.455,4.4584,4.5836,4.6481,4.5773,4.6312,4.6464,4.5771,0.0,4.6024,4.6684,4.8071,4.8917,4.9001,4.9661,5.0017,4.9969,4.9194,4.838,4.7605,4.6748,4.6012,4.5387,4.5387,4.5051,4.4441,4.4391,4.4374,4.4324,4.338,4.3453,4.4192,4.3298,4.2894,4.2801,4.2181,4.1352,4.0454,3.9824,3.9565,3.943,0.0,0.0,0.0,0.0,0.0,0.0,0.0,0.0,0.0,0.0,0.0,0.0,0.0,0.0,0.0,0.0,0.0,0.0,4.38,4.4176,4.448,4.47,4.4314,4.4094,4.4094,4.27,4.2396,4.3194,4.2598,4.2708,4.3506,4.3506,4.3427,4.3286,4.3142,4.2986,4.2837,4.2264,4.1145,3.9739,3.9829,3.8972,3.7692,3.8041,3.7719,3.7054,3.688,3.6282,3.5684,3.6282,3.6992,3.7618,3.7618,3.7872,3.821,3.8391,3.8848,3.9356,3.9711,4.0371,4.0916,4.0916,4.1322,4.1792,4.1978,4.1593,4.1373,4.1914,4.0861,3.9952,4.0312,4.0527,4.0844,4.139,4.2726,4.3927,4.4516,4.5413,4.5906,4.572,4.5872,4.5906,4.572,4.6194,4.6363,4.6007,4.6836,4.7834,4.8951,4.9187,4.8957,4.8264,4.9221,4.904,4.7605,4.8047,4.8206,4.8038,4.8038,4.7938,4.7754,4.7062,4.6733,4.6666,4.575,4.5185,4.493,4.4689,4.4301,4.384,4.3649,4.3116,4.2389,4.2216,4.182,4.1314,0.0,0.0,0.0,0.0,0.0,0.0,0.0,0.0,0.0,0.0,0.0,0.0,0.0,0.0,0.0,0.0,0.0,0.0,0.0,4.392,4.4176,4.4176,4.3837,4.3654,4.3654,4.2424,4.2176,4.2974,4.2176,4.2194,4.2974,4.2598,4.2304,4.2049,4.2049,4.1977,4.1799,4.1505,4.0591,0.0,0.0,3.8576,3.7291,3.7381,3.7156,3.675,3.6411,3.6434,3.6676,3.7127,3.755,3.7893,3.7893,3.8125,3.8464,3.8882,3.9237,3.9643,4.0388,4.0882,4.1288,4.1593,4.1982,4.23,4.23,4.1982,4.161,4.1386,4.0354,3.9411,3.9179,3.9394,3.9745,4.0172,4.2019,4.3558,4.4012,4.528,4.6058,4.5737,4.5991,4.6177,4.6177,4.6549,4.6904,4.7141,4.753,4.8122,4.8968,4.961,4.9575,4.8725,4.9913,4.9828,4.8242,4.8735,4.9001,4.9001,4.9001,4.9001,4.8986,4.8449,4.8209,4.8161,4.7222,4.6826,4.6848,4.6417,4.6039,4.565,4.5357,4.4753,4.3985,4.3697,4.3119,4.2478,0.0,0.0,0.0,0.0,0.0,0.0,0.0,0.0,0.0,0.0,4.3561,4.3506,0.0,0.0,0.0,0.0,0.0,0.0,0.0,0.0,4.3506,4.3506,4.2818,4.2451,4.2451,4.1672,4.1654,4.2451,4.1654,4.1672,4.2433,4.1746,4.1142,4.0637,4.0528,4.0277,3.9927,3.9812,3.9416,3.88,3.88,3.8328,3.7521,0.0,0.0,3.6547,3.5847,3.6524,3.777,3.786,3.8041,3.8193,3.8193,3.8633,3.9153,3.9153,3.966,4.0388,4.1035,4.1339,4.166,4.2286,4.2452,4.2452,4.2452,4.2232,4.1657,4.0354,3.9876,3.9271,3.799,3.8362,3.8886,3.8983,4.139,4.3288,4.3389,4.5196,4.6261,4.5635,4.621,4.665,4.665,4.6819,4.7479,4.8765,4.8951,4.9035,4.9137,5.0271,5.0609,4.9981,5.0558,5.0288,4.9018,4.9001,4.9001,4.9001,4.9001,4.9001,4.9001,4.9001,4.9001,4.8938,4.8145,4.8241,4.894,4.8112,4.7786,4.772,4.714,4.6356,4.5495,4.4915,4.4171,4.346,0.0,0.0,0.0,0.0,0.0,0.0,0.0,0.0,0.0,0.0,4.3901,4.3506,0.0,0.0,0.0,0.0,0.0,0.0,0.0,0.0,0.0,4.3506,4.3378,4.3286,4.3286,4.2506,4.2488,4.3286,4.2488,4.2506,4.3286,4.3157,4.3023,4.2908,4.2222,4.1651,4.114,4.0483,3.9287,3.7843,3.7843,3.7095,3.5971,0.0,0.0,0.0,3.565,3.6197,3.7071,3.7702,3.87,3.9711,3.9711,3.9808,3.9897,3.9897,4.0438,4.1035,4.117,4.2087,4.3051,4.3186,4.3203,4.3203,4.3203,4.1783,4.0413,4.0151,3.8657,3.7291,3.7038,3.7584,3.8294,3.8903,4.095,4.2709,4.3321,4.4316,4.4922,4.4804,4.5432,4.5889,4.5889,4.6991,4.7819,4.8073,4.8663,4.9272,4.988,4.9576,4.9323,4.9187,4.9323,4.9272,4.9001,4.9001,4.9001,4.9001,4.9001,4.9001,4.9001,4.9001,4.9001,4.8986,4.8829,0.0,4.8986,4.8829,4.8767,4.875,4.8631,4.8117,4.7424,4.7305,4.6416,4.5242,0.0,0.0,0.0,0.0,0.0,0.0,0.0,4.2203,4.3635,4.403,4.4103,4.4121,4.4121,4.3745,4.3506,0.0,0.0,0.0,0.0,0.0,0.0,0.0,0.0,0.0,4.3506,4.3121,4.3121,4.3506,0.0,4.2506,4.2882,4.2451,4.2077,4.1768,4.1377,4.0967,4.0548,4.0156,3.9359,3.83,3.7911,3.7132,0.0,0.0,0.0,0.0,3.56,3.6129,3.6846,3.7207,3.8307,3.9592,3.9977,4.0096,4.018,4.0557,4.0916,4.1373,4.2138,4.2865,4.3507,4.3927,4.3724,4.3203,4.2425,4.1136,3.9766,3.8623,3.754,3.6665,3.6248,3.6806,3.7567,3.8311,4.0273,4.1982,4.2726,4.3856,4.4615,4.4615,4.5246,4.5855,4.6244,4.7261,4.8056,4.8445,4.8798,4.9154,4.9509,4.9187,4.9187,4.956,4.9204,4.9001,4.9001,4.9001,4.9001,4.9001,4.9001,4.9001,4.9001,4.9001,4.9001,4.9001,4.9001,4.9001,4.9001,4.9001,4.9001,4.9001,4.9001,4.8781,4.8462,4.8462,4.7785,4.6788,0.0,0.0,0.0,0.0,0.0,0.0,3.9871,4.1799,4.3304,4.3469,4.4195,4.47,4.47,4.3975,4.3506,0.0,0.0,0.0,0.0,0.0,0.0,0.0,0.0,0.0,0.0,0.0,0.0,4.3339,4.2812,0.0,0.0,0.0,0.0,0.0,4.0536,4.0182,3.9709,3.9542,3.91,0.0,0.0,3.7212,0.0,0.0,0.0,0.0,0.0,3.6011,3.6564,3.6745,3.7562,3.8662,3.9389,3.9859,4.0202,4.0798,4.1085,4.1478,4.2814,4.3152,4.3321,4.3941,4.3504,4.2577,4.1258,4.0273,3.9085,3.7202,3.6648,3.6361,3.5729,3.6265,3.6987,3.7567,3.9648,4.1407,4.1982,4.3535,4.4615,4.4615,4.5382,4.616,4.6735,4.7614,4.8377,4.8968,4.9001,4.9001,4.9001,4.9154,4.9424,4.9863,4.9306,4.9001,4.9001,4.9001,4.9001,4.9001,4.9001,4.9001,4.9001,4.9001,4.9001,4.9001,4.9001,4.9001,4.9001,4.9001,4.9001,4.9001,4.9001,4.9001,4.9001,4.9001,4.8529,4.7785,0.0,0.0,0.0,0.0,0.0,0.0,3.9798,4.134,4.2671,4.3396,4.4195,4.47,4.47,4.3975,4.3506,0.0,0.0,0.0,0.0,0.0,0.0,0.0,0.0,0.0,0.0,0.0,0.0,4.2779,4.3186,0.0,0.0,0.0,0.0,0.0,0.0,4.073,3.9742,3.9016,0.0,0.0,0.0,0.0,0.0,0.0,0.0,0.0,0.0,3.5661,3.5814,3.6547,3.6897,3.7122,3.7872,3.9017,4.01,4.0176,4.0684,4.139,4.2168,4.2401,4.2418,4.2486,4.1948,4.1191,4.0366,3.9111,3.7855,3.6981,3.6214,3.5695,3.5616,3.6265,3.6829,3.6885,3.9309,4.1221,4.1288,4.3213,4.4615,4.4615,4.5836,4.6733,4.6786,4.8071,4.8934,4.9001,4.9001,4.9001,4.9001,4.9644,4.9712,4.912,4.9035,4.9001,4.9001,4.9001,4.9001,4.9001,4.9001,4.9001,4.9001,4.9001,4.9001,4.9001,4.9001,4.9001,0.0,4.9001,4.9001,4.9001,4.9001,4.9001,4.9001,4.9001,4.8529,4.7785,0.0,0.0,0.0,0.0,0.0,0.0,3.978,4.0855,4.2047,4.3322,4.3781,4.4158,4.4645,4.3975,4.3506,4.3506,0.0,0.0,0.0,0.0,0.0,0.0,0.0,0.0,0.0,0.0,4.306,4.3187,4.306,0.0,0.0,0.0,0.0,0.0,0.0,4.1022,3.9956,3.9636,0.0,0.0,0.0,0.0,0.0,0.0,0.0,0.0,0.0,0.0,3.5661,3.5977,3.6411,3.6767,3.6586,3.7855,3.9525,3.9982,4.0612,4.1373,4.2113,4.23,4.23,4.23,4.1745,4.0899,3.9715,3.865,3.7555,3.6321,3.5814,3.56,3.56,3.5864,3.6231,3.6728,3.8526,4.0037,4.0481,4.2459,4.3876,4.3876,4.5602,4.68,4.68,4.8139,4.9001,4.9001,4.9001,4.9001,4.9001,4.9272,4.9306,4.9018,4.9001,4.9001,4.9001,4.9001,4.9001,4.9001,4.9001,4.9001,4.9001,4.9001,4.9001,4.9001,4.9001,4.9001,0.0,4.9001,4.9001,4.9001,4.9001,4.9001,4.9001,4.9001,4.88,4.8377,0.0,0.0,0.0,0.0,0.0,3.8964,3.978,4.0579,4.158,4.2974,4.3341,4.3726,4.4287,4.3836,4.3506,4.3506,4.3506,0.0,0.0,0.0,0.0,0.0,0.0,0.0,0.0,0.0,4.3041,4.3259,4.3041,4.3133,0.0,0.0,4.2885,4.181,0.0,0.0,0.0,0.0,0.0,0.0,0.0,0.0,0.0,0.0,0.0,0.0,0.0,0.0,0.0,0.0,0.0,3.631,3.5526,3.6688,3.8543,3.9491,4.0303,4.1035,4.1762,4.1826,4.1657,4.1657,4.1085,4.0223,3.8954,3.8108,3.7212,3.587,3.56,3.56,3.56,3.56,3.5797,3.6349,3.7884,3.9174,3.9703,4.1681,4.3152,4.3372,4.5229,4.6549,4.6783,4.8139,4.9001,4.9001,4.9001,4.9001,4.9001,4.9001,4.9001,4.9001,4.9001,4.9001,4.9001,4.9001,4.9001,4.9001,4.9001,4.9001,4.9001,4.9001,4.9001,4.9001,4.9001,4.9001,0.0,4.9001,4.9001,4.9001,4.9001,4.9001,4.9001,4.9001,4.9001,4.8798,0.0,0.0,0.0,0.0,0.0,0.0,3.978,4.0579,4.1397,4.2213,4.301,4.3506,4.3506,4.3506,4.3506,4.3506,4.3506,0.0,0.0,0.0,0.0,0.0,0.0,0.0,0.0,0.0,4.3232,4.2711,4.3232,4.3488,4.3506,4.3506,4.2885,4.181,0.0,0.0,0.0,0.0,0.0,0.0,0.0,0.0,0.0,0.0,0.0,0.0,0.0,0.0,0.0,0.0,0.0,0.0,0.0,3.5582,3.7117,3.8577,3.9525,4.0269,4.1018,4.0692,4.013,4.013,3.9559,3.8819,3.8079,3.7342,3.6581,3.5763,3.56,3.56,3.56,3.56,3.56,3.5616,3.7516,3.9,3.9005,4.0929,4.2574,4.3304,4.4759,4.6007,4.6733,4.8139,4.9001,4.9001,4.9001,4.9001,4.9001,4.9001,4.9001,4.9001,4.9001,4.9001,4.9001,4.9001,4.9001,4.9001,4.9001,4.9001,4.9001,4.9001,4.9001,4.9001,4.9001,4.9001,0.0,4.9001,4.9001,4.9001,4.9001,4.9001,4.9001,4.9001,4.9001,4.8798,0.0,0.0,0.0,0.0,0.0,0.0,3.978,3.9643,3.9947,4.1305,4.1222,4.1468,4.2561,4.2671,4.29,4.3451,4.3506,0.0,0.0,0.0,0.0,0.0,0.0,0.0,0.0,0.0,4.2873,4.2711,4.2873,4.2949,4.2949,4.2949,4.276,4.2372,4.1556,4.0972,0.0,0.0,0.0,0.0,0.0,0.0,0.0,0.0,0.0,0.0,0.0,0.0,0.0,0.0,0.0,0.0,0.0,0.0,0.0,3.6705,3.7939,3.9288,3.9022,3.914,3.9237,3.8717,3.8413,3.8058,3.7325,3.697,3.6564,3.5763,3.56,3.56,3.56,3.56,3.56,3.56,3.7082,3.8261,3.8261,4.0578,4.2388,4.2625,4.4891,4.6938,4.8189,4.8731,4.9001,4.9001,4.9001,4.9001,4.9001,4.9001,4.9001,4.9001,4.9001,4.9001,4.9001,4.9001,4.9001,4.9001,4.9001,4.9001,4.9001,4.9001,4.9001,4.9001,4.9001,4.9001,4.9001,4.9001,4.9001,4.9001,4.9001,4.9001,4.9001,4.9001,4.8682,4.8107,0.0,0.0,0.0,0.0,0.0,0.0,3.978,3.946,3.9625,4.0938,4.0663,4.0726,4.1746,4.2121,4.2506,4.301,4.3322,0.0,0.0,0.0,0.0,0.0,0.0,0.0,4.3506,4.3178,4.2995,4.2995,4.2995,4.2995,4.2995,4.2995,4.278,4.2332,4.1578,4.1121,0.0,0.0,0.0,0.0,0.0,0.0,3.56,0.0,0.0,0.0,0.0,0.0,0.0,0.0,0.0,0.0,0.0,0.0,0.0,0.0,3.6169,3.7736,3.786,3.8244,3.8464,3.8012,3.7702,3.7347,3.6902,3.6564,3.6214,3.5712,3.56,3.56,3.56,3.56,3.56,3.56,3.6896,3.8007,3.8278,4.0375,4.2303,4.3453,4.5483,4.7378,4.8866,4.9001,4.9001,4.9001,4.9001,4.9001,4.9001,4.9001,4.9001,4.9001,4.9001,4.9001,4.9001,4.9001,4.9001,4.9001,4.9001,4.9001,4.9001,4.9001,4.9001,4.9001,4.9001,4.9001,0.0,4.9001,4.9001,4.9001,4.9001,4.9001,4.9001,4.9001,4.8529,4.7785,0.0,0.0,0.0,0.0,0.0,0.0,0.0,3.9816,4.0084,4.082,4.093,4.0956,4.1012,4.1727,4.2249,4.2304,4.3047,0.0,0.0,0.0,0.0,0.0,0.0,0.0,4.3506,4.3506,4.347,4.3436,4.3436,4.3436,4.3436,4.341,4.2847,4.1863,4.1761,4.1349,0.0,0.0,0.0,0.0,0.0,0.0,0.0,0.0,0.0,0.0,0.0,0.0,0.0,0.0,0.0,0.0,0.0,0.0,0.0,0.0,0.0,0.0,0.0,3.7775,3.7821,3.7741,3.7212,3.6699,3.6699,3.6146,0.0,3.56,3.56,3.56,3.56,3.56,3.56,3.56,3.6896,3.8159,3.8899,4.0358,4.2459,4.5432,4.638,4.7378,4.8866,4.9001,4.9001,4.9001,4.9001,4.9001,4.9001,4.9001,4.9001,4.9001,4.9001,4.9001,4.9001,4.9001,4.9001,4.9001,4.9001,4.9001,4.9001,4.9001,4.9001,0.0,4.9001,4.9001,4.9001,4.9001,4.9001,4.9001,4.9001,4.9001,4.9001,4.8951,4.8475,4.7776,0.0,0.0,0.0,0.0,0.0,0.0,0.0,0.0,0.0,0.0,3.925,3.9489,4.0102,4.0901,4.1635,0.0,0.0,0.0,0.0,0.0,0.0,0.0,0.0,0.0,4.3506,4.3506,4.3294,4.2892,4.2892,4.2892,4.2883,4.2414,4.2304,4.245,4.1523,4.017,0.0,0.0,0.0,0.0,0.0,0.0,0.0,0.0,0.0,0.0,3.56,3.56,0.0,0.0,0.0,0.0,0.0,0.0,0.0,0.0,3.4049,3.4962,3.5898,0.0,3.6919,3.6287,3.6017,3.5881,0.0,3.5746,3.56,3.56,3.56,3.56,3.56,3.56,3.56,3.56,3.6896,3.8159,3.8899,4.1238,4.3795,4.6244,4.6684,4.7378,4.8866,4.9001,4.9001,4.9001,4.9001,4.9001,4.9001,4.9001,4.9001,4.9001,4.9001,4.9001,4.9001,4.9001,4.9001,4.9001,4.9001,4.9001,4.9001,4.9001,4.9001,4.9001,4.9001,4.9001,4.9001,4.9001,4.9001,4.9001,4.9001,4.9001,4.8934,4.836,4.7973,4.7637,0.0,0.0,0.0,0.0,0.0,0.0,0.0,0.0,0.0,0.0,3.8699,3.8865,3.9294,4.0065,4.0865,0.0,0.0,0.0,0.0,0.0,0.0,0.0,0.0,4.3506,4.3506,4.3506,4.3366,4.3078,4.3078,4.3078,4.305,4.2724,4.2474,4.2234,4.0957,3.9479,0.0,0.0,0.0,0.0,3.56,0.0,0.0,0.0,0.0,0.0,3.56,3.56,0.0,3.56,3.56,3.5346,0.0,0.0,0.0,0.0,3.3677,3.4235,3.5306,3.5915,3.6146,3.5712,3.56,3.56,3.56,3.56,3.56,3.56,3.56,3.56,3.56,3.56,3.56,3.56,3.7183,3.9022,4.0781,4.2709,4.4536,4.6109,4.6583,4.7242,4.8377,4.8798,4.9001,4.9001,4.9001,4.9001,4.9001,4.9001,4.9001,4.9001,4.9001,4.9001,4.9001,4.9001,4.9001,4.9001,4.9001,4.9001,4.9001,4.9001,4.9001,4.9001,4.9001,4.9001,4.9001,4.9001,4.9001,4.8968,4.8631,4.8657,4.8819,4.8084,4.7745,4.7596,0.0,0.0,0.0,0.0,0.0,0.0,0.0,0.0,0.0,0.0,0.0,0.0,0.0,0.0,0.0,0.0,0.0,0.0,0.0,0.0,0.0,0.0,4.3506,4.3506,4.3506,4.3506,4.3506,4.3506,4.3418,4.3418,4.3506,4.3418,4.2793,4.1693,4.0374,3.9067,0.0,0.0,0.0,0.0,3.56,0.0,0.0,0.0,0.0,0.0,0.0,0.0,0.0,3.5464,3.5442,3.5171,3.37,0.0,0.0,0.0,0.0,0.0,3.5357,3.578,3.5752,3.5633,3.56,3.56,3.56,3.56,3.56,3.56,3.56,3.56,3.56,3.5712,3.578,3.578,3.7787,4.029,4.3017,4.4079,4.4871,4.5618,4.6244,4.6972,4.7819,4.8462,4.8883,4.9001,4.9001,4.9001,4.9001,4.9001,4.8951,4.8849,4.8817,4.8781,4.8663,4.8883,4.9001,4.9001,4.9001,4.9001,4.9001,4.9001,4.9001,4.9001,4.9001,4.8951,4.8832,4.8938,4.8899,4.8746,4.8237,4.8335,4.8695,4.7962,4.7712,4.7725,0.0,0.0,0.0,0.0,0.0,0.0,0.0,0.0,0.0,0.0,0.0,0.0,0.0,0.0,0.0,0.0,0.0,0.0,0.0,0.0,0.0,4.3506,4.3506,4.3506,4.3506,4.3506,4.3506,4.3506,4.3059,4.3069,4.3479,4.3032,4.2343,4.1412,4.0243,3.8903,3.7553,3.754,0.0,0.0,0.0,0.0,0.0,0.0,0.0,0.0,0.0,0.0,0.0,3.4878,3.4675,3.4404,3.2926,0.0,0.0,0.0,0.0,0.0,3.6039,3.6615,3.6462,3.578,3.56,3.56,3.56,3.56,3.56,3.56,3.56,3.56,3.56,3.6163,3.6615,3.6615,3.9005,4.1457,4.3169,4.4079,4.4871,4.5618,4.5805,4.6399,4.7768,4.8005,4.8326,4.8951,4.9001,4.9001,4.9001,4.9001,4.8714,4.809,4.8073,4.7768,4.7141,4.8376,4.9001,4.9001,4.9001,4.9001,4.9001,4.9001,4.9001,4.9001,4.9001,4.8648,4.8101,4.8618,4.8462,4.7931,4.84,4.8628,4.863,4.7884,4.7927,4.8353,0.0,0.0,0.0,0.0,0.0,0.0,0.0,0.0,0.0,0.0,0.0,0.0,0.0,0.0,0.0,0.0,0.0,0.0,0.0,0.0,4.3506,4.3506,4.3506,4.3506,4.3506,4.3506,4.3506,4.3506,4.2821,4.283,4.3479,4.2477,4.1772,4.1329,3.9686,3.8408,3.7475,3.706,3.6395,0.0,0.0,0.0,0.0,0.0,0.0,0.0,0.0,0.0,0.0,0.0,3.4235,3.3711,3.2638,0.0,0.0,0.0,0.0,0.0,3.5159,3.5853,3.6062,3.5684,3.5932,3.6129,3.5712,3.56,3.56,3.56,3.56,3.5718,3.6163,3.6547,3.7308,3.8916,4.0324,4.188,4.3775,4.4364,4.4719,4.5074,4.5466,4.5959,4.6652,4.7073,4.7445,4.7784,4.78,4.78,4.78,4.78,4.7665,4.7327,4.731,4.7141,4.68,4.7462,4.78,4.78,4.78,4.78,4.78,4.78,4.78,4.7831,4.8165,4.8117,4.7835,4.847,4.8553,4.8224,4.8151,4.8293,4.8536,4.8127,4.8147,4.8378,0.0,0.0,0.0,0.0,0.0,0.0,0.0,0.0,0.0,0.0,0.0,0.0,0.0,0.0,0.0,0.0,0.0,0.0,0.0,4.2947,4.3506,4.3506,4.3506,4.3506,4.3506,4.3506,4.3414,4.3231,4.279,4.29,4.3461,4.2059,4.1359,4.1252,3.932,3.8088,3.738,3.6834,3.6214,0.0,0.0,0.0,0.0,0.0,0.0,0.0,0.0,0.0,0.0,0.0,0.0,0.0,0.0,0.0,0.0,3.2242,3.2689,3.3339,3.4263,3.4912,3.534,3.534,3.5943,3.6411,3.5983,3.5881,3.5932,3.6101,3.6152,3.6321,3.6936,3.719,3.8222,4.1018,4.1457,4.2185,4.4296,4.4615,4.4615,4.4615,4.5108,4.5517,4.5672,4.621,4.6599,4.68,4.68,4.68,4.68,4.68,4.6718,4.6549,4.6532,4.6447,4.6293,4.6293,4.6462,4.68,4.68,4.6857,4.7014,4.7014,4.7098,4.7281,4.774,4.7847,4.7727,4.8377,4.8554,4.8347,4.7926,4.8044,4.8445,4.8342,4.8296,4.8296,0.0,0.0,0.0,0.0,0.0,0.0,0.0,0.0,0.0,0.0,0.0,0.0,0.0,0.0,0.0,0.0,0.0,0.0,0.0,4.2635,4.3506,4.3506,4.3506,4.3506,4.3506,4.3506,4.3139,4.2396,4.3084,4.3433,4.3461,4.2059,4.1307,4.1066,3.9605,3.8311,3.7223,3.7152,3.6552,3.56,3.56,0.0,0.0,0.0,0.0,0.0,0.0,0.0,0.0,0.0,0.0,0.0,0.0,0.0,3.142,3.2107,3.2344,3.2699,3.411,3.4533,3.4584,3.4584,3.5148,3.5864,3.6564,3.6699,3.6902,3.7589,3.7724,3.7741,3.7821,3.8379,3.9576,4.186,4.2232,4.2773,4.4378,4.4615,4.4615,4.4615,4.4649,4.4956,4.5635,4.5754,4.6058,4.675,4.68,4.68,4.68,4.68,4.6481,4.5805,4.5788,4.5449,4.477,4.4767,4.5447,4.68,4.68,4.7098,4.7644,4.7644,4.7961,4.8572,4.8605,4.8241,4.7662,4.8266,4.8105,4.7536,4.8046,4.8283,4.8312,4.8305,4.8296,4.8296,0.0,0.0,0.0,0.0,0.0,0.0,0.0,0.0,0.0,0.0,0.0,0.0,0.0,0.0,0.0,0.0,0.0,0.0,0.0,4.2598,4.3506,4.3506,4.3506,4.3506,4.3506,4.3506,4.3341,4.3047,4.3341,4.3231,4.2727,4.1696,4.1175,4.1032,3.9496,3.8209,3.7228,3.7515,3.6847,3.5633,3.5963,0.0,0.0,0.0,0.0,0.0,0.0,0.0,0.0,0.0,3.2005,3.1572,3.1285,3.12,3.1251,3.1522,3.1938,3.2412,3.2987,3.3806,3.4398,3.3931,3.437,3.5115,3.5881,3.605,3.6389,3.764,3.7893,3.8029,3.8497,3.9186,4.0252,4.2012,4.23,4.2841,4.4381,4.4615,4.4615,4.4615,4.4615,4.4702,4.499,4.5024,4.5125,4.5413,4.543,4.543,4.543,4.543,4.5294,4.5024,4.5388,4.5448,4.5169,4.552,4.6003,4.6552,4.6165,4.6307,4.6886,4.6886,4.7035,4.7291,4.7711,4.7734,4.7521,4.8138,4.8211,4.7977,4.821,4.8296,4.8296,4.8296,4.8296,4.8296,0.0,0.0,0.0,0.0,0.0,0.0,0.0,0.0,0.0,0.0,0.0,0.0,0.0,0.0,0.0,0.0,0.0,0.0,4.1095,4.2598,4.3506,4.3506,4.3506,4.3506,4.3506,4.3506,4.3378,4.3121,4.3121,4.2974,4.2653,4.1856,4.1489,4.1415,3.98,3.8524,3.7584,3.781,3.7004,3.5656,3.6182,3.6075,0.0,0.0,0.0,0.0,0.0,0.0,0.0,0.0,3.1623,3.12,3.12,3.12,3.12,3.12,3.1556,3.1955,3.1955,3.2689,3.3349,3.2831,3.3264,3.4127,3.534,3.5797,3.6485,3.8227,3.8582,3.8751,3.9254,3.9757,4.0574,4.2063,4.23,4.2841,4.4381,4.4615,4.4615,4.4615,4.4615,4.4615,4.4615,4.4615,4.4615,4.4615,4.4615,4.4615,4.4615,4.4615,4.4696,4.4879,4.528,4.5584,4.5783,4.6192,4.6513,4.671,4.6305,4.6329,4.671,4.671,4.6813,4.7033,4.7481,4.7677,4.7726,4.8142,4.8296,4.8296,4.8296,4.8296,4.8296,4.8296,4.8296,4.8296,0.0,0.0,0.0,0.0,0.0,0.0,0.0,0.0,0.0,0.0,0.0,0.0,0.0,0.0,0.0,0.0,0.0,0.0,4.1095,4.2598,4.3506,4.3506,4.3506,4.3506,4.3506,4.3506,4.3121,4.2304,4.2304,4.2708,4.3469,4.2671,4.2286,4.2213,4.0598,3.9339,3.8365,3.8052,3.7014,3.565,3.6192,3.6075,3.56,0.0,0.0,0.0,0.0,0.0,0.0,0.0,3.12,3.12,3.12,3.12,3.12,3.12,3.12,3.12,3.12,3.1217,3.1207,3.1207,3.1759,3.2892,3.5103,3.6231,3.7438,3.9639,4.0096,4.0096,4.0096,4.0096,4.0587,4.2046,4.23,4.2841,4.4364,4.4615,4.4615,4.4615,4.4615,4.4615,4.4615,4.4615,4.4615,4.4615,4.4615,4.4598,4.4598,4.4612,4.4893,4.5498,4.5507,4.5808,4.6389,4.6419,4.6744,4.7406,4.7406,4.7406,4.7406,4.7406,4.7736,4.8296,4.8296,4.8296,4.8296,4.8296,4.8296,4.8296,4.8296,4.8296,4.8296,4.8296,4.8296,4.8296,0.0,0.0,0.0,0.0,0.0,0.0,0.0,0.0,0.0,0.0,0.0,0.0,0.0,0.0,0.0,0.0,0.0,0.0,4.1095,4.2598,4.3506,4.3506,4.3506,4.3506,4.3506,4.3506,4.3378,4.3139,4.258,4.2708,4.3469,4.2103,4.147,4.1415,4.0377,3.9216,3.8061,3.8333,3.7569,3.6214,3.6754,3.6426,3.56,0.0,0.0,0.0,0.0,0.0,0.0,0.0,0.0,0.0,3.12,3.12,3.12,3.12,3.12,3.12,3.12,3.1572,3.1972,3.1972,3.2537,3.366,3.5938,3.6631,3.7438,3.9639,4.0096,4.0096,4.0096,4.0096,4.0405,4.1373,4.1965,4.2642,4.3609,4.4245,4.4615,4.4615,4.4615,4.4615,4.4615,4.4615,4.4615,4.4615,4.4984,4.5232,4.5232,4.5635,4.5952,4.6136,4.6601,4.6921,4.7106,4.7523,4.7838,4.8035,4.8035,4.8035,4.8035,4.8035,4.8142,4.8296,4.8296,4.8296,4.8296,4.8296,4.8296,4.8296,4.8296,4.8296,4.8296,4.8296,4.8296,4.8296,0.0,0.0,0.0,0.0,0.0,0.0,0.0,0.0,0.0,0.0,0.0,0.0,0.0,0.0,0.0,0.0,0.0,0.0,0.0,4.2598,4.3506,4.3506,4.3506,4.3506,4.3506,4.3506,4.3341,4.3029,4.2543,4.2543,4.301,4.2029,4.1746,4.2029,4.1203,4.0112,3.8875,3.9075,3.8105,3.6447,3.6972,3.6563,3.56,0.0,0.0,0.0,0.0,0.0,0.0,0.0,0.0,0.0,3.12,3.12,3.12,3.12,3.12,3.1239,3.1382,3.1866,3.2344,3.2527,3.3372,3.4739,3.7,3.7823,3.8488,3.9825,4.0096,4.0096,4.0096,4.0096,4.0337,4.1085,4.1576,4.2219,4.3254,4.3826,4.4245,4.455,4.4814,4.4961,4.4961,4.5165,4.532,4.532,4.5661,4.587,4.587,4.6204,4.6524,4.6778,4.7194,4.752,4.7756,4.8114,4.8296,4.8296,4.8296,4.8296,4.8296,4.8296,4.8296,4.8296,4.8296,4.8296,4.8296,4.8296,4.8296,4.8296,4.8296,4.8296,4.8296,4.8296,4.8296,4.8296,0.0,0.0,0.0,0.0,0.0,0.0,0.0,0.0,0.0,0.0,0.0,0.0,0.0,0.0,0.0,0.0,0.0,0.0,0.0,4.2653,4.3506,4.3506,4.3506,4.3506,4.3506,4.3506,4.3065,4.2194,4.2194,4.2231,4.2304,4.2213,4.2616,4.3359,4.2543,4.147,4.0239,3.9922,3.8509,3.6519,3.7039,3.6616,3.5672,3.5604,0.0,0.0,0.0,0.0,0.0,0.0,0.0,0.0,3.12,3.12,3.12,3.12,3.12,3.1308,3.1792,3.2137,3.2511,3.312,3.4494,3.6206,3.822,3.9512,4.0241,4.0179,4.0167,4.0179,4.0241,4.0254,4.0475,4.1146,4.1316,4.1813,4.3172,4.3413,4.3732,4.4459,4.509,4.5467,4.5467,4.6035,4.6407,4.6407,4.6466,4.6489,4.6489,4.653,4.6847,4.7459,4.747,4.7746,4.8296,4.8296,4.8296,4.8296,4.8296,4.8296,4.8296,4.8296,4.8296,4.8296,4.8296,4.8296,4.8296,4.8296,4.8296,4.8296,4.8296,4.8296,4.8296,4.8296,4.8296,4.8296,0.0,0.0,0.0,0.0,0.0,0.0,0.0,0.0,0.0,0.0,0.0,0.0,0.0,0.0,0.0,0.0,0.0,0.0,0.0,4.2955,4.3506,4.3506,4.3506,4.3506,4.3506,4.3506,4.28,4.136,4.136,4.1672,4.2286,4.1654,4.1782,4.2525,4.1727,4.0852,3.9945,3.9255,3.8212,3.7058,3.756,3.7136,3.6166,3.5576,0.0,0.0,0.0,0.0,0.0,0.0,0.0,0.0,3.12,3.12,3.12,3.12,3.12,3.1446,3.253,3.2882,3.3318,3.4954,3.6986,3.8722,3.9196,4.0411,4.1308,4.0827,4.0738,4.0874,4.1353,4.1424,4.1483,4.1659,4.2174,4.2653,4.2963,4.3518,4.3932,4.4107,4.4805,4.5264,4.5264,4.5953,4.6407,4.6407,4.6887,4.7183,4.7183,4.7617,4.7957,4.8094,4.8123,4.8172,4.8296,4.8296,4.8296,4.8296,4.8296,4.8296,4.8296,4.8296,4.8296,4.8296,4.8296,4.8296,4.8296,4.8296,4.8296,4.8296,4.8296,4.8296,4.8296,4.8296,4.8296,4.8296,0.0,0.0,0.0,0.0,0.0,0.0,0.0,0.0,0.0,0.0,0.0,0.0,0.0,0.0,0.0,0.0,0.0,0.0,0.0,0.0,4.3506,4.3506,4.3506,4.3506,4.3506,4.3121,4.2323,4.1095,4.0718,4.0946,4.1727,4.1305,4.1727,4.2837,4.2029,4.1232,4.0414,3.9625,3.8596,3.756,3.7799,3.7443,3.6676,0.0,0.0,0.0,0.0,0.0,0.0,0.0,0.0,0.0,0.0,0.0,3.12,3.12,3.12,3.1443,3.2526,3.3217,3.4151,3.6355,3.7937,3.9099,3.9698,4.0547,4.1336,4.1679,4.1534,4.1424,4.1729,4.181,4.181,4.181,4.2118,4.2497,4.2857,4.3224,4.3597,4.3957,4.4656,4.5103,4.5103,4.5728,4.6167,4.6167,4.6483,4.6671,4.6671,4.7346,4.7728,4.7728,4.8095,4.8296,4.8296,4.8296,4.8296,4.8296,4.8296,4.8296,4.8296,4.8296,4.8296,4.8296,4.8296,4.8296,4.8296,4.8296,4.8296,4.8296,4.8296,4.8296,4.8296,4.8296,4.8296,4.8296,0.0,0.0,0.0,0.0,0.0,0.0,0.0,0.0,0.0,0.0,0.0,0.0,0.0,0.0,0.0,0.0,0.0,0.0,0.0,0.0,0.0,4.3506,4.3506,4.3506,4.3506,4.2708,4.1911,4.1095,4.0286,4.0304,4.1095,4.1095,4.1874,4.3267,4.2451,4.1654,4.0846,4.0029,3.9,3.7902,3.7997,3.7755,0.0,0.0,0.0,0.0,0.0,0.0,0.0,0.0,0.0,0.0,0.0,0.0,3.12,3.12,3.12,3.1423,3.2423,3.3715,3.5258,3.7319,3.8214,3.889,4.0086,4.0627,4.1256,4.2569,4.2372,4.1979,4.2083,4.2085,4.2085,4.2085,4.2085,4.2307,4.2927,4.2988,4.3227,4.3842,4.453,4.4951,4.4951,4.5532,4.5902,4.5902,4.5902,4.5902,4.5902,4.6535,4.6902,4.6902,4.7544,4.7884,4.7884,4.8021,4.8095,4.8095,4.8223,4.8296,4.8296,4.8296,4.8296,4.8296,4.8296,4.8296,4.8296,4.8296,4.8296,4.8296,4.8296,4.837,4.8508,4.8508,4.8657,4.8853,0.0,0.0,0.0,0.0,0.0,0.0,0.0,0.0,0.0,0.0,0.0,0.0,0.0,0.0,0.0,0.0,0.0,0.0,0.0,0.0,0.0,4.3506,4.3506,4.3506,4.3506,4.2708,4.1911,4.1095,4.0286,4.0304,4.1095,4.1095,4.158,4.2433,4.1617,4.081,4.0018,3.9203,3.8482,3.7946,3.8417,0.0,0.0,0.0,0.0,0.0,0.0,0.0,0.0,0.0,3.12,0.0,0.0,0.0,3.12,3.12,3.12,3.1535,3.3116,3.5261,3.7142,3.7471,3.8627,3.9904,4.0776,4.1548,4.2317,4.3218,4.2967,4.2722,4.3187,4.3267,4.3267,4.3267,4.3267,4.3304,4.3405,4.3423,4.345,4.356,4.4272,4.4748,4.4748,4.5434,4.5902,4.5902,4.5902,4.5902,4.5902,4.5993,4.6067,4.6067,4.6159,4.6214,4.6214,4.692,4.7259,4.7278,4.7966,4.8296,4.8296,4.8296,4.8296,4.8296,4.8296,4.8296,4.8296,4.8296,4.8296,4.8296,4.8296,4.8728,4.9334,4.9334,5.0036,5.0995,0.0,0.0,0.0,0.0,0.0,0.0,0.0,0.0,0.0,0.0,0.0,0.0,0.0,0.0,0.0,0.0,0.0,0.0,0.0,0.0,0.0,4.3506,4.3506,4.3506,4.3506,4.2268,4.1452,4.1095,3.9845,3.9882,4.1095,4.1095,4.1764,4.291,4.1654,4.0901,4.0479,3.9239,3.8562,0.0,0.0,0.0,0.0,0.0,0.0,0.0,0.0,0.0,0.0,0.0,3.1545,3.1498,3.1271,0.0,0.0,0.0,3.12,3.1569,3.3248,3.4878,3.6321,3.7272,3.8025,3.888,4.0139,4.1048,4.1856,4.2653,4.3011,4.3223,4.3453,4.3506,4.3506,4.3506,4.3506,4.3506,4.3506,4.3506,4.3506,4.3506,4.3818,4.403,4.403,4.4342,4.4571,4.4571,4.4571,4.4571,4.4571,4.4984,4.5232,4.5232,4.5663,4.5902,4.5902,4.6241,4.6425,4.6425,4.6801,4.7186,4.7636,4.7636,4.7874,4.8296,4.8296,4.8296,4.8296,4.8296,4.86,4.9031,4.9031,4.9656,5.0556,5.0556,5.1065,5.174,0.0,0.0,0.0,0.0,0.0,0.0,0.0,0.0,0.0,0.0,0.0,0.0,0.0,0.0,0.0,0.0,0.0,0.0,0.0,0.0,0.0,4.3506,4.3506,4.3396,4.3194,4.1819,4.1012,4.0791,3.9378,3.9525,4.1095,4.0883,4.1662,4.3139,4.1727,4.0865,4.0406,3.9213,0.0,0.0,0.0,0.0,0.0,0.0,0.0,0.0,0.0,0.0,0.0,0.0,0.0,3.1771,3.1592,3.1439,0.0,0.0,0.0,3.1981,3.3233,3.4271,3.5298,3.6541,3.7026,3.7613,3.9229,4.0065,4.0828,4.2047,4.2782,4.3267,4.3451,4.3506,4.3506,4.3506,4.3506,4.3506,4.3506,4.3506,4.3506,4.3506,4.3506,4.3506,4.3506,4.3506,4.3506,4.3506,4.3506,4.3506,4.3506,4.4066,4.4397,4.4397,4.4984,4.5287,4.5287,4.5498,4.57,4.5902,4.5902,4.6214,4.681,4.681,4.716,4.7841,4.817,4.8296,4.8306,4.8402,4.8965,4.9767,4.988,5.0691,5.1862,5.1862,5.2245,5.2799,0.0,0.0,0.0,0.0,0.0,0.0,0.0,0.0,0.0,0.0,0.0,0.0,0.0,4.2955,4.3433,4.3433,4.3469,4.3506,4.3506,4.3506,4.3506,4.3506,4.3506,0.0,4.2378,4.1525,4.0718,3.9963,3.9111,3.9525,4.1077,4.0322,4.0818,4.2323,4.1489,4.0259,3.8817,0.0,0.0,0.0,0.0,0.0,0.0,0.0,0.0,0.0,0.0,0.0,0.0,0.0,0.0,0.0,0.0,3.2135,3.1861,0.0,0.0,0.0,3.3197,3.4098,3.5016,3.5114,3.5745,3.678,3.8395,3.8799,3.9489,4.1827,4.2323,4.2598,4.3359,4.3506,4.3506,4.3506,4.3506,4.3506,4.3506,4.3506,4.3506,4.3506,4.3506,4.3506,4.3506,4.3506,4.3506,4.3506,4.3506,4.3506,4.3506,4.3543,4.3561,4.3561,4.3598,4.3616,4.3616,4.4378,4.514,4.5902,4.5902,4.592,4.5957,4.5957,4.6171,4.6574,4.7786,4.8296,4.8335,4.87,4.9382,5.0206,5.0585,5.1699,5.311,5.311,5.3878,5.4935,0.0,0.0,0.0,0.0,0.0,0.0,0.0,0.0,0.0,0.0,0.0,0.0,0.0,4.3322,4.3506,4.3506,4.3506,4.3506,4.3506,4.3506,4.3506,4.3506,4.3506,4.3121,4.2323,4.1507,4.0718,3.9908,3.9093,3.9258,4.0322,4.0029,4.022,4.0744,4.0451,4.001,3.9441,3.8927,0.0,0.0,0.0,0.0,0.0,0.0,0.0,0.0,0.0,0.0,0.0,0.0,0.0,0.0,0.0,0.0,0.0,3.2451,3.2825,3.3199,3.3199,3.3694,3.4351,3.4869,3.5224,3.5764,3.6909,3.7955,3.8938,3.9808,4.1222,4.2396,4.2671,4.3157,4.3506,4.3506,4.3506,4.3506,4.3506,4.3506,4.3506,4.3506,4.3506,4.3506,4.3506,4.3506,4.3506,4.3506,4.3506,4.3506,4.3506,4.3506,4.3506,4.3506,4.3506,4.3506,4.3506,4.38,4.4066,4.4369,4.4369,4.4737,4.5451,4.5451,4.593,4.6806,4.728,4.7479,4.7569,4.8779,4.9768,5.0637,5.1869,5.3201,5.4427,5.4427,5.4867,5.5489,0.0,0.0,0.0,0.0,0.0,0.0,0.0,0.0,0.0,4.3433,0.0,0.0,0.0,0.0,4.3506,4.3506,4.3506,4.3506,4.3506,4.3506,4.3506,4.3506,4.3231,4.2708,4.1911,4.1379,4.0571,3.9496,3.9239,3.9386,3.989,3.9625,3.9651,3.989,3.9625,3.9496,0.0,0.0,0.0,3.8699,0.0,0.0,3.8699,0.0,0.0,0.0,0.0,0.0,0.0,0.0,0.0,0.0,0.0,0.0,0.0,0.0,0.0,3.3397,3.3397,3.3592,3.3935,3.4454,3.4601,3.4821,3.5672,3.6699,3.7617,3.8175,3.979,4.1167,4.1442,4.2359,4.3194,4.3451,4.3506,4.3506,4.3506,4.3506,4.3506,4.3506,4.3506,4.3506,4.3506,4.3506,4.3506,4.3506,4.3506,4.3506,4.3506,4.3506,4.3506,4.3506,4.3506,4.3506,4.3506,4.3614,4.367,4.367,4.3807,4.4261,4.4994,4.4994,4.5646,4.6764,4.6764,4.6842,4.7123,4.8634,4.9749,5.0652,5.2163,5.346,5.4452,5.4452,5.4628,5.4857,0.0,0.0,0.0,0.0,0.0,0.0,0.0,0.0,4.3506,4.3506,0.0,0.0,0.0,0.0,0.0,4.3506,4.3506,4.3506,4.3506,4.3506,4.3506,4.3506,4.2727,4.1919,4.1113,4.1077,4.0296,3.8699,3.9478,3.9853,3.9853,3.9074,3.9129,3.9835,3.9056,3.8699,3.8699,0.0,3.8699,3.8699,0.0,3.8699,3.8699,0.0,0.0,0.0,3.7823,3.7529,0.0,3.561,0.0,0.0,0.0,0.0,0.0,0.0,0.0,0.0,0.0,0.0,0.0,3.3807,3.3807,3.4002,3.4784,3.4979,3.5463,3.7081,3.8091,3.8909,3.9688,4.113,4.2488,4.3267,4.3451,4.3506,4.3506,4.3506,4.3506,4.3506,4.3506,4.3506,4.3506,4.3506,4.3506,4.3506,4.3506,4.3506,4.3506,4.3506,4.3506,4.3506,4.3506,4.3496,4.3513,4.3852,4.4016,4.4013,4.4438,4.4637,4.4643,4.4688,4.5305,4.6345,4.6345,4.6605,4.714,4.8352,4.9355,5.0236,5.146,5.2467,5.3197,5.3197,5.3197,5.3197,0.0,0.0,0.0,0.0,0.0,0.0,4.3506,4.3506,4.3506,0.0,0.0,0.0,4.3506,4.3506,4.3506,4.3506,4.3506,4.3506,4.3506,4.3506,4.3506,4.3506,4.2727,4.1919,4.1113,4.0524,3.9735,3.8699,3.8927,3.9038,3.9038,3.8799,3.8817,3.9019,3.8799,3.8699,3.8699,3.8699,0.0,3.8699,3.8699,3.8699,0.0,0.0,0.0,0.0,0.0,3.7999,3.7437,0.0,3.5919,3.4705,0.0,0.0,0.0,0.0,0.0,0.0,3.3807,0.0,0.0,0.0,0.0,0.0,3.4075,3.4582,3.5133,3.5598,3.6835,3.7889,3.8109,3.9486,4.0642,4.0863,4.2368,4.3506,4.3506,4.3506,4.3506,4.3506,4.3506,4.3506,4.3506,4.3506,4.3506,4.3506,4.3506,4.3506,4.3506,4.3506,4.3506,4.3506,4.3506,4.3622,4.3857,4.3955,4.4139,4.444,4.5131,4.5597,4.5846,4.6486,4.7065,4.7597,4.7597,4.7687,4.7921,4.9524,5.0328,5.0678,5.2249,5.2986,5.3197,5.3197,5.3197,5.3197,0.0,0.0,0.0,0.0,0.0,4.3506,4.3506,4.3506,4.3506,0.0,0.0,0.0,4.3506,4.3506,4.3506,4.3506,4.3194,4.301,4.301,4.269,4.2506,4.2506,4.1735,4.1075,4.0616,4.0139,3.9515,3.8699,3.9038,3.9038,3.8699,3.8699,3.8699,3.8699,3.8699,0.0,0.0,0.0,3.9019,3.8699,3.8699,0.0,0.0,3.8699,3.8699,0.0,0.0,0.0,3.7944,3.7621,3.6395,0.0,0.0,0.0,0.0,0.0,0.0,0.0,0.0,0.0,0.0,0.0,0.0,0.0,3.3807,3.4167,3.4491,3.4491,3.5543,3.6468,3.6468,3.7797,3.9009,3.9331,4.0863,4.2239,4.29,4.301,4.3121,4.3451,4.3506,4.3506,4.3506,4.3506,4.3506,4.3506,4.3506,4.3506,4.3506,4.3506,4.3506,4.3506,4.3506,4.3662,4.4009,4.418,4.4611,4.5318,4.5943,4.6535,4.7079,4.7582,4.8105,4.8644,4.8644,4.8856,4.926,5.0284,5.0495,5.0284,5.1625,5.2164,5.2164,5.2164,5.2164,5.2164,0.0,0.0,4.3506,4.3506,4.3506,4.3506,4.3506,4.3506,4.3506,0.0,4.3506,4.3506,4.3506,4.3506,4.3506,4.3506,4.2772,4.2304,4.2304,4.1544,4.1095,4.1095,4.0322,3.9908,3.9908,3.9816,3.9423,3.8699,3.9423,3.9405,3.8699,3.8699,3.8755,3.8836,0.0,0.0,0.0,0.0,3.9625,3.8956,3.8865,3.8836,0.0,0.0,3.8699,3.8699,3.8699,3.8699,3.8579,3.7768,3.6505,0.0,0.0,0.0,0.0,0.0,3.3807,0.0,0.0,0.0,0.0,0.0,0.0,0.0,3.3807,3.3807,3.3807,3.3807,3.4369,3.4876,3.4876,3.6156,3.7467,3.8167,3.9056,4.0238,4.1937,4.2176,4.2433,4.3157,4.3231,4.3267,4.3359,4.3378,4.3396,4.3488,4.3506,4.3506,4.3506,4.3539,4.3565,4.3565,4.3597,4.3828,4.4255,4.4525,4.5273,4.6498,4.6863,4.7466,4.8255,4.8332,4.8817,4.9529,4.9529,4.9976,5.0707,5.0707,5.0245,4.963,5.0399,5.0707,5.0707,5.0707,5.0707,5.0707,0.0,4.3506,4.3506,4.3506,4.3506,4.3506,4.3506,4.3506,4.3506,4.3506,4.3506,4.3506,4.3506,4.3506,4.3506,4.3506,4.2772,4.2304,4.2304,4.1544,4.1095,4.1095,4.0322,3.9908,3.9908,3.9276,3.8854,3.8699,3.8854,3.8854,3.8699,3.8699,3.9056,3.9669,3.9669,0.0,0.0,4.081,4.0773,4.0589,3.9937,3.9669,3.9596,3.8946,3.8699,3.8699,3.8699,3.8699,3.8579,3.7768,3.729,3.6751,0.0,0.0,0.0,3.399,0.0,0.0,0.0,0.0,0.0,0.0,0.0,0.0,3.3807,3.3807,3.3807,3.3807,3.3917,3.402,3.402,3.4828,3.5536,3.5701,3.6982,3.8752,4.103,4.1342,4.1397,4.1544,4.158,4.1819,4.247,4.2525,4.28,4.3451,4.3506,4.3506,4.3506,4.3767,4.3893,4.3893,4.4216,4.4862,4.5845,4.5289,4.593,4.7746,4.7832,4.8317,4.9163,4.988,5.0284,5.0457,5.0457,5.0534,5.0707,5.0707,5.0592,5.0457,5.063,5.0707,5.0707,5.0707,5.0707,5.0707,0.0,4.3231,4.3378,4.2974,4.3231,4.3506,4.3506,4.3506,4.3506,4.3506,4.3506,4.3506,4.3506,4.3506,4.3341,4.2937,4.2176,4.1525,4.113,4.0351,3.9892,3.9892,3.9515,3.9294,3.9294,3.8909,3.8699,3.8699,3.8699,3.8909,3.9294,3.9294,3.9735,4.0506,4.0506,4.0718,4.1132,4.1525,4.169,4.1635,4.081,4.0506,4.0451,4.0057,3.9654,3.9294,3.9294,3.9038,3.8524,3.732,3.718,0.0,3.5536,3.5298,3.5488,0.0,3.4406,3.4314,0.0,0.0,0.0,3.3807,0.0,0.0,0.0,3.3807,3.3807,3.3807,3.3807,3.3807,3.3807,3.413,3.4527,3.4924,3.6075,3.732,3.8534,3.9745,4.0645,4.104,4.1095,4.1268,4.1654,4.169,4.2047,4.2837,4.3053,4.3323,4.3721,4.4099,4.429,4.429,4.4494,4.4946,4.5693,4.5693,4.6506,4.8101,4.8548,4.9202,5.0053,5.0495,5.0707,5.0707,5.0707,5.0707,5.0707,5.0707,5.0707,5.0707,5.0707,5.0707,5.0707,5.0707,5.0707,5.0707,0.0,4.2598,4.2818,4.2176,4.2727,4.3231,4.3065,4.3176,4.3267,4.3267,4.3267,4.3322,4.3469,4.3506,4.3231,4.2598,4.1801,4.1048,4.0404,3.9606,3.9158,3.9158,3.9158,3.9158,3.9158,3.9158,3.9158,3.9158,3.9158,3.9496,4.012,4.012,4.0561,4.1342,4.1342,4.1415,4.1599,4.2268,4.2525,4.247,4.1819,4.147,4.1305,4.115,4.07,4.0102,3.9963,3.9386,3.8498,3.7202,3.7081,3.7254,3.591,3.5855,0.0,0.0,0.0,0.0,0.0,0.0,0.0,0.0,0.0,3.3807,0.0,0.0,0.0,3.3807,3.3807,3.3807,3.3807,3.3807,3.4057,3.4869,3.5598,3.6101,3.6273,3.7981,3.9515,4.0314,4.0534,4.07,4.0846,4.1012,4.1393,4.21,4.2429,4.2961,4.3815,4.4224,4.4512,4.4688,4.4921,4.5248,4.5673,4.6314,4.7291,4.8606,4.9144,4.9861,5.0707,5.0707,5.0707,5.0707,5.0707,5.0707,5.0707,5.0707,5.0707,5.0707,5.0707,5.0707,5.0707,5.0707,5.0707,5.0707,4.125,4.1305,4.1342,4.125,4.1892,4.2194,4.1489,4.1992,4.2433,4.2433,4.2433,4.2708,4.3414,4.3506,4.3451,0.0,4.2635,4.2121,4.2029,4.1268,4.082,4.082,4.082,4.082,4.082,4.082,4.082,4.082,4.082,4.0865,4.0956,4.0956,4.1397,4.2158,4.2158,4.2561,4.3231,4.3322,4.3359,4.3359,4.3267,4.28,4.2084,4.1379,4.104,4.0865,4.0157,3.9386,3.8663,0.0,3.8017,3.7474,0.0,3.6787,3.6138,3.5261,0.0,0.0,0.0,0.0,0.0,0.0,3.3807,0.0,0.0,0.0,3.3807,3.3807,0.0,3.3807,3.3807,0.0,0.0,3.4869,3.5071,3.5426,3.6193,3.6541,3.7008,3.7815,3.8542,3.925,3.9963,4.0681,4.1256,4.1646,4.1719,4.2226,4.3332,4.3704,4.4236,4.5028,4.6074,4.6997,4.7756,4.7852,4.8731,5.0399,4.9726,4.9861,5.0707,5.0707,5.0707,5.0707,5.0707,5.0707,5.0707,5.0707,5.0707,5.0707,5.0707,5.0707,5.0707,5.0707,5.0707,5.0707,4.0396,4.0773,0.0,4.0487,4.1075,4.1489,4.115,4.1782,4.2304,4.2304,4.3112,4.3819,4.4158,4.4599,0.0,0.0,0.0,4.3296,0.0,0.0,0.0,4.1113,4.1095,4.1095,4.1095,4.1095,4.1095,4.1095,4.1095,4.1342,4.1801,4.1801,4.2231,4.301,4.301,4.3176,4.3506,4.3506,4.3506,4.3506,4.3506,4.3304,4.2955,4.2616,4.1911,4.0985,4.0194,3.9386,3.8634,0.0,3.8091,0.0,0.0,0.0,0.0,3.6131,0.0,0.0,0.0,0.0,0.0,0.0,0.0,0.0,3.3917,0.0,3.3807,0.0,0.0,0.0,0.0,0.0,0.0,0.0,3.4692,3.4968,3.4853,3.5679,3.6439,3.6751,3.7503,3.8329,3.9129,3.9507,4.0027,4.08,4.106,4.1669,4.2781,4.3629,4.426,4.4624,4.6108,4.7062,4.7408,4.8375,4.9221,4.9957,5.0091,5.0341,5.0707,5.0707,5.0707,5.0707,5.0707,5.0707,5.0707,5.0707,5.0707,5.0707,5.0707,5.0707,5.0707,5.0707,5.0707,5.0707,4.023,0.0,0.0,3.9662,4.0249,4.0846,4.1058,4.1599,4.2139,4.2561,4.3452,4.4296,4.4957,4.5351,4.5424,0.0,4.503,4.4525,0.0,0.0,4.28,4.2424,4.1984,4.1856,4.2076,4.1874,4.1764,4.1764,4.1764,4.2066,4.2635,4.2635,4.2937,4.3506,4.3506,4.3506,4.3506,4.3506,4.3506,4.3506,4.3506,4.3506,4.3506,4.3506,4.2506,4.1022,4.0432,3.957,3.8615,3.8036,3.8121,3.8413,3.8051,3.8253,3.8386,0.0,0.0,0.0,3.4735,0.0,0.0,0.0,0.0,0.0,0.0,0.0,0.0,0.0,0.0,0.0,0.0,0.0,0.0,0.0,0.0,3.4546,3.4185,3.5,3.5697,3.5917,3.6861,3.7724,3.8303,3.8579,3.9095,4.0032,4.0384,4.1054,4.224,4.3145,4.3835,4.4297,4.5985,4.7005,4.7235,4.8913,4.9764,4.9764,5.0399,5.0707,5.0707,5.0707,5.0707,5.0707,5.0707,5.0707,5.0707,5.0707,5.0707,5.0707,5.0707,5.0707,5.0707,5.0707,5.0707,5.0707,4.1067,3.9837,0.0,3.8744,3.9405,4.0194,4.0975,4.1113,4.169,4.3267,4.2818,4.3277,4.5608,4.5186,4.503,0.0,0.0,4.5847,4.5792,0.0,4.4957,0.0,0.0,4.3791,4.4571,4.3809,4.3414,4.3414,4.3414,4.3433,4.3451,4.3451,4.3469,4.3506,4.3506,4.3506,4.3506,4.3506,4.3506,4.3506,4.3506,4.3506,4.3506,4.3506,4.2506,4.1095,4.1058,4.0039,3.8699,3.8663,3.8334,3.8055,3.8812,3.8746,0.0,0.0,0.0,0.0,0.0,0.0,0.0,3.4072,0.0,0.0,0.0,0.0,3.3807,0.0,0.0,0.0,0.0,0.0,0.0,0.0,0.0,0.0,0.0,3.4332,3.4167,3.4949,3.6505,3.7511,3.7529,3.823,3.8953,3.9578,3.9637,4.0276,4.1741,4.1865,4.262,4.4239,4.5985,4.7274,4.8043,4.9784,5.0649,5.0649,5.0688,5.0707,5.0707,5.0707,5.0707,5.0707,5.0707,5.0707,5.0707,5.0707,5.0707,5.0707,5.0707,5.0707,5.0707,5.0707,5.0707,5.0707,0.0,0.0,0.0,0.0,4.0516,4.0791,4.1067,4.1544,4.2286,4.3359,4.4185,4.5204,4.6553,4.6938,4.7195,0.0,0.0,4.725,4.6737,4.6434,0.0,4.5902,4.5378,4.4966,0.0,4.4425,4.403,4.3506,4.3506,4.3506,4.3506,4.3506,4.3506,4.3506,4.3506,4.3506,4.3524,4.4066,4.3993,4.3513,4.375,4.3693,4.3522,4.3758,4.2827,4.1468,4.168,4.0703,3.9307,3.9307,3.9183,3.9069,3.9351,3.931,3.9082,3.8565,3.8395,3.8133,3.6949,3.7009,3.7149,3.6006,3.5725,3.5512,0.0,0.0,0.0,0.0,0.0,0.0,0.0,0.0,0.0,0.0,0.0,0.0,0.0,3.2375,3.2302,3.2596,3.4534,3.6285,3.7401,3.7902,3.8566,3.9532,3.9803,4.0239,4.09,4.1485,4.2312,4.347,4.5716,4.7293,4.8082,4.9822,5.0707,5.0707,5.0707,5.0707,5.0707,5.0707,5.0707,5.0707,5.0707,5.0707,5.0707,5.0707,5.0707,5.0707,5.0707,5.0707,5.0707,5.0707,5.0707,5.0707,4.2727,0.0,0.0,4.1195,4.1342,4.1525,4.1525,4.2443,4.3484,4.4444,4.5476,4.6581,4.782,4.8161,4.8351,4.8495,4.8513,4.8237,4.7572,4.7259,0.0,4.6764,4.6214,4.5792,0.0,0.0,0.0,0.0,4.3635,4.3506,4.3506,4.3506,4.3506,4.3506,4.3506,4.3506,4.3524,4.4048,4.4051,4.371,4.4069,4.4076,4.3931,4.4261,4.3222,4.1642,4.1976,4.1014,3.9599,3.9599,3.9673,3.9781,3.9781,3.9832,3.982,3.9302,3.915,3.8945,3.8039,3.8179,3.8304,3.7161,3.6872,3.6577,3.5437,0.0,3.4404,0.0,0.0,0.0,0.0,0.0,0.0,0.0,0.0,0.0,0.0,3.139,3.139,3.139,3.3275,3.5158,3.6643,3.7453,3.8409,3.9672,3.9982,4.0213,4.0485,4.1335,4.2196,4.3066,4.5278,4.6971,4.8082,4.951,5.038,5.0707,5.0707,5.0707,5.0707,5.0707,5.0707,5.0707,5.0707,5.0707,5.0707,5.0707,5.0707,5.0707,5.0707,5.0707,5.0707,5.0707,5.0707,5.0707,4.3506,4.3506,4.3029,4.1489,4.1856,4.2359,4.2359,4.3717,4.5149,4.6337,4.6557,4.733,4.929,4.882,4.8513,4.8897,4.893,4.877,4.8383,4.7628,0.0,0.0,4.6875,4.6397,4.7113,0.0,0.0,0.0,0.0,4.3506,4.3506,4.3506,4.3506,4.3506,4.3506,4.3523,4.3596,4.3641,4.3874,4.4244,4.4568,4.4662,4.4688,4.5002,4.3686,4.1698,4.2027,4.108,3.9645,3.9645,3.9851,4.012,4.012,4.0285,4.0496,4.0496,4.0496,4.0284,3.9266,3.8983,3.8718,3.7621,3.7308,3.7006,3.5883,3.5601,3.5582,0.0,0.0,0.0,0.0,0.0,0.0,0.0,0.0,0.0,0.0,0.0,3.1305,3.1342,3.2756,3.4169,3.5379,3.6945,3.8499,3.9985,4.011,4.0227,4.0485,4.1335,4.2196,4.3066,4.4724,4.6398,4.8024,4.8933,4.9822,5.063,5.0668,5.0707,5.0707,5.0707,5.0707,5.0707,5.0707,5.0707,5.0707,5.0707,5.0707,5.0707,5.0707,5.0707,5.0707,5.0707,5.0707,5.0707,4.3506,4.3506,4.3378,4.2955,4.3047,4.3194,4.3194,4.4289,4.5475,4.6379,4.729,4.8255,4.9376,4.9315,4.9234,4.9337,4.9348,0.0,0.0,0.0,0.0,4.9187,4.8514,4.7954,4.7556,4.6256,4.5296,4.47,0.0,4.3506,4.3506,4.3506,4.3506,4.3506,4.3506,4.4004,4.4886,4.548,4.6302,4.7125,4.6215,4.5709,4.5488,4.5477,4.4146,4.2323,4.2713,4.1741,4.027,4.027,4.0328,4.0393,4.0393,4.043,4.0496,4.0496,4.0496,4.0446,4.0168,4.0098,3.9968,3.9476,3.8913,3.8327,3.7782,3.7199,3.6764,3.6764,3.6692,0.0,0.0,0.0,0.0,0.0,0.0,0.0,0.0,0.0,0.0,3.0702,3.1708,3.3161,3.5285,3.682,3.8355,3.9976,4.0276,4.0437,4.0492,4.1335,4.2196,4.3066,4.4724,4.6129,4.7197,4.8663,4.951,4.9745,5.038,5.0707,5.0707,5.0707,5.0707,5.0707,5.0707,5.0707,5.0707,5.0707,5.0707,5.0707,5.0707,5.0707,5.0707,5.0707,5.0707,5.0707,4.3506,4.3506,4.3506,4.3506,4.3942,4.4287,4.4287,4.4716,4.5451,4.6608,4.765,4.8538,4.9172,4.9721,4.9949,4.978,4.976,0.0,4.9504,0.0,0.0,4.9496,4.928,4.8957,4.8496,4.7471,0.0,4.55,0.0,4.4013,4.3506,4.3506,4.3506,4.3506,4.3506,4.3889,4.4586,4.5716,4.6788,4.7679,4.726,4.6759,0.0,4.6191,4.4967,4.3321,4.3538,4.2281,4.0496,4.0496,4.0496,4.0496,4.0496,4.0496,4.0496,4.0496,4.0496,4.0496,4.0496,4.0496,4.0465,4.0317,3.9936,3.9428,3.8773,3.8267,3.794,3.794,3.7838,3.7859,3.8284,0.0,0.0,0.0,0.0,0.0,0.0,0.0,0.0,0.0,3.1906,3.3081,3.4136,3.6274,3.8204,3.9641,4.0213,4.0496,4.0496,4.1681,4.2581,4.3085,4.4724,4.6013,4.6889,4.8182,4.9029,4.9413,5.0284,5.0707,5.0707,5.0707,5.0707,5.0707,5.0707,5.0707,5.0707,5.0707,5.0707,5.0707,5.0707,5.0735,5.0791,5.0791,5.0743,5.0707,4.3506,4.3506,4.3506,4.3506,4.4498,4.5352,4.5507,4.5366,4.5746,4.7149,4.8076,4.8745,4.9102,5.0077,5.0554,5.0201,5.0177,5.0037,4.9685,4.9664,4.9664,4.9664,4.9615,4.9568,4.9568,4.8742,4.7705,0.0,0.0,0.0,4.3506,4.3506,4.3506,4.3506,4.3506,4.3675,4.4073,4.5576,4.6693,4.7535,4.8053,4.7851,4.7197,4.6985,4.5893,4.4455,4.4335,4.2801,4.0823,4.0704,4.0666,4.0646,4.0535,4.0496,4.0496,4.0496,4.0496,4.0496,4.0496,4.0496,4.0496,4.0496,4.0496,4.0261,3.9318,3.9106,3.9106,3.9106,3.8879,3.9048,4.0238,0.0,0.0,0.0,0.0,0.0,0.0,0.0,0.0,0.0,0.0,0.0,3.2882,3.5744,3.8019,3.8885,3.9919,4.0496,4.0496,4.2147,4.3143,4.3258,4.4782,4.5956,4.6716,4.7639,4.849,4.924,5.0226,5.0707,5.0707,5.0707,5.0707,5.0707,5.0707,5.0707,5.0707,5.0707,5.0707,5.074,5.074,5.0805,5.0925,5.0925,5.0917,5.0887,4.3506,4.3506,4.3506,4.3506,4.4498,4.5638,4.6622,4.7565,4.827,4.8539,4.9573,5.0303,5.0368,5.0567,5.0673,5.0604,5.058,5.0559,5.0493,0.0,0.0,5.0488,5.0171,4.9987,4.9987,4.8872,4.7705,0.0,0.0,0.0,4.3506,4.3506,4.3506,4.3506,4.3506,4.4612,4.6544,4.7827,4.9003,5.0005,4.9418,4.9086,4.8817,4.7428,4.6259,4.5282,4.4571,4.3585,4.2527,4.1812,4.1562,4.145,4.0723,4.0496,4.0496,4.0496,4.0496,4.0496,4.0496,4.0496,4.0496,4.0496,4.0496,4.045,4.0261,4.0218,4.0218,4.0218,4.0167,4.0143,4.0171,3.9147,0.0,0.0,0.0,0.0,0.0,0.0,0.0,0.0,0.0,3.4615,3.3976,3.6349,3.7701,3.7192,3.9223,4.0496,4.0496,4.2147,4.3393,4.4066,4.5071,4.5667,4.5821,4.7336,4.8178,4.8355,4.9938,5.0707,5.0707,5.0707,5.0707,5.0707,5.0707,5.0707,5.0707,5.0707,5.077,5.0856,5.0856,5.0956,5.1055,5.1055,5.1472,5.1919,4.3506,4.3506,4.3702,4.4321,4.5069,4.5967,4.7182,4.8388,4.9108,4.8919,4.9409,4.9759,4.9759,5.0325,5.0707,5.0707,5.0707,5.0707,5.0707,5.0707,5.0707,5.0707,5.0504,5.041,5.041,4.9842,4.8846,4.7429,0.0,0.0,0.0,4.3708,4.3506,4.3523,0.0,4.53,4.6887,4.8295,4.9473,5.0372,5.0153,4.9803,4.926,4.8005,4.7009,4.6163,4.5282,4.4724,4.4205,4.2912,4.2466,4.2393,4.1974,4.1858,4.1762,4.1316,4.1162,4.1085,4.0631,4.0496,4.0496,4.0496,4.0496,4.0496,4.0496,4.0496,4.0496,4.0496,4.0496,4.0429,4.0148,3.9776,3.918,3.8284,0.0,0.0,0.0,0.0,3.5826,0.0,0.0,0.0,0.0,3.635,3.7157,3.6734,3.8661,4.0262,4.1123,4.2393,4.347,4.4278,4.5148,4.5594,4.5594,4.6855,4.7697,4.812,4.9413,5.0265,5.0707,5.0707,5.0938,5.1298,5.088,5.0975,5.1423,5.1505,5.1563,5.1634,5.1634,5.1432,5.1202,5.1652,5.2111,5.2425,4.4121,4.4138,4.4455,4.551,4.6252,4.703,4.7995,4.9317,4.9922,4.9116,4.9165,4.9285,4.9285,5.0131,5.0707,5.0707,5.0707,5.0707,5.0707,5.0707,5.0707,5.0707,5.0707,5.0707,5.0707,5.0707,4.9942,0.0,0.0,4.6405,4.506,0.0,0.0,4.3924,4.505,4.6093,4.7087,4.8359,4.9408,5.0254,5.0565,5.0284,4.9591,4.8702,4.7985,4.7293,4.6244,4.5879,4.5648,4.4143,4.3508,4.3335,4.3143,4.3104,4.297,4.2273,4.2081,4.1889,4.1012,4.0781,4.0723,4.0554,4.0496,4.0496,4.0496,4.0496,4.0496,4.0496,4.0496,4.0445,4.0218,4.036,4.0441,4.0213,3.9243,0.0,0.0,0.0,0.0,0.0,0.0,0.0,3.5923,3.6504,3.6907,3.6715,3.8142,3.9835,4.1696,4.2446,4.3278,4.4259,4.4975,4.5321,4.5321,4.6374,4.7293,4.8101,4.8971,4.9957,5.0957,5.0981,5.1447,5.2194,5.1583,5.1745,5.2436,5.2533,5.248,5.2366,5.2542,5.2175,5.1612,5.2491,5.2999,5.3221,4.6155,4.6228,4.6372,4.6857,4.8466,4.9742,4.9842,5.156,5.2,4.9654,5.0038,5.0519,5.0519,5.064,5.0707,5.0707,5.0707,5.0707,5.0707,5.0707,5.0707,5.0707,5.0707,5.0707,5.0707,5.0707,5.0091,0.0,0.0,4.6844,4.6297,0.0,0.0,4.5163,4.6004,4.723,4.8685,4.884,4.957,5.0653,5.0678,5.0649,5.0476,4.961,4.9221,4.8952,4.7351,4.6774,4.662,4.5686,4.484,4.4066,4.3335,4.3104,4.3085,4.3008,4.2989,4.2797,4.1927,4.1677,4.1485,4.0704,4.0496,4.0496,4.0496,4.0496,4.0496,4.0496,4.0496,4.0489,4.0469,4.0481,4.0489,4.0469,4.0346,0.0,0.0,0.0,3.9877,3.9146,0.0,0.0,3.6754,3.7369,3.7546,3.6754,3.7584,3.92,4.1677,4.1889,4.2658,4.4239,4.4378,4.4417,4.4417,4.6062,4.7293,4.8101,4.8971,5.024,5.1779,5.1906,5.2446,5.3267,5.3306,5.3374,5.3465,5.3478,5.3075,5.2562,5.3344,5.3201,5.2675,5.3535,5.4375,5.5058,4.682,4.6849,4.7139,4.8036,4.8843,4.9614,5.0341,5.1579,5.2043,5.1024,5.1664,5.2202,5.2202,5.1722,5.1414,5.1414,5.0976,5.0707,5.0707,5.0707,5.0707,5.0707,5.0707,5.0707,5.0707,5.0707,5.035,0.0,0.0,0.0,4.7548,4.6263,4.5922,4.6426,4.7471,4.8302,4.8951,4.966,5.0252,5.0707,5.0707,5.0707,5.0592,4.9726,4.9394,4.9183,4.7505,4.6908,4.6774,4.5898,4.5359,4.5013,4.4705,4.4609,4.4494,4.397,4.3816,4.3643,4.2816,4.2581,4.2374,4.1508,4.1277,4.1143,4.0631,4.0496,4.0496,4.0496,4.0496,4.0496,4.0496,4.0496,4.0496,4.0496,4.0496,0.0,0.0,0.0,0.0,4.0054,0.0,3.9742,3.905,3.8392,3.8277,3.8934,3.8857,3.9434,4.0935,4.2008,4.3104,4.4259,4.4801,4.5071,4.5071,4.5763,4.7092,4.9007,4.9355,5.0716,5.2921,5.2977,5.3182,5.3557,5.4212,5.4493,5.4504,5.4585,5.4454,5.4211,5.4563,5.4196,5.3594,5.4453,5.5,5.5371,4.7951,4.7971,4.8289,4.9268,4.9625,5.0169,5.1274,5.2125,5.2755,5.2986,5.3544,5.376,5.3255,5.2659,5.2178,5.1923,5.1375,5.0957,5.0726,5.0707,5.0707,5.0707,5.0707,5.0707,5.0707,5.0707,5.0559,5.0272,4.9356,0.0,4.8803,4.8134,4.7732,4.7687,4.8762,4.9329,4.9488,5.0344,5.0707,5.0707,5.0707,5.0707,5.063,5.0014,4.9784,4.9591,4.8144,4.7639,4.7466,4.6355,4.5975,4.5936,4.5686,4.5594,4.5475,4.4859,4.4686,4.4494,4.3682,4.3451,4.3258,4.2408,4.1985,4.1639,4.1031,4.0685,4.0496,4.0496,4.0496,4.0496,4.0496,4.0496,4.0496,4.0496,4.0496,4.0496,0.0,4.0496,0.0,4.0496,4.0496,4.0496,4.0496,3.9662,3.9508,4.0439,4.0454,4.0666,4.1223,4.2181,4.3201,4.4259,4.4898,4.5225,4.5225,4.5956,4.7436,4.96,5.0104,5.1612,5.3989,5.4297,5.4447,5.452,5.5231,5.554,5.5546,5.5643,5.5527,5.5332,5.5586,5.5156,5.4492,5.5351,5.5683,5.5762,4.9987,5.0067,5.0193,5.0619,5.1332,5.2154,5.3044,5.3914,5.4741,5.5555,5.567,5.503,5.3371,5.3197,5.2832,5.1981,5.1885,5.1543,5.0745,5.0707,5.0707,5.0707,5.0707,5.0707,5.0707,5.0707,5.0707,5.0683,0.0,4.929,5.0061,4.9654,4.9253,4.8914,4.9717,5.0306,5.0688,5.0688,5.0707,5.0707,5.0707,5.0707,5.0707,5.0688,5.0688,5.0572,4.9687,4.9375,4.9125,4.7447,4.6889,4.6735,4.5879,4.5594,4.5594,4.5594,4.5575,4.5398,4.4513,4.4297,4.4085,4.3297,4.2446,4.1793,4.1793,4.1123,4.0496,4.0496,4.0496,4.0496,4.0496,4.0496,4.0496,4.0496,4.0496,4.0496,0.0,4.0496,0.0,4.0496,4.0496,4.0496,4.0496,4.1258,4.1412,4.0554,4.2089,4.3066,4.3066,4.2273,4.2581,4.4239,4.4316,4.4321,4.4321,4.6817,4.8585,4.962,5.1279,5.3062,5.492,5.5906,5.6441,5.6562,5.6582,5.6582,5.6582,5.6582,5.6074,5.539,5.625,5.6055,5.539,5.6269,5.6582,5.6582,5.0483,5.0504,5.0549,5.0673,5.1375,5.2197,5.3063,5.3933,5.478,5.5593,5.5708,5.5497,5.4953,5.4414,5.3972,5.3703,5.2582,5.1793,5.1524,5.0996,5.0707,5.0707,5.0707,5.0707,5.0707,5.0707,5.0707,5.0707,5.032,5.026,5.0518,5.0388,5.0246,5.0145,5.0389,5.057,5.0707,5.0707,5.0707,5.0707,5.0707,5.0707,5.0707,5.0707,5.0707,5.0592,4.9707,4.9394,4.9221,4.8101,4.7716,4.7678,4.7394,4.6513,4.5594,4.5594,4.5594,4.5537,4.5263,4.5186,4.4975,4.4124,4.3701,4.322,4.2062,4.1123,4.0496,4.0496,4.0496,4.0496,4.0496,4.0496,4.0496,4.0496,4.0496,4.0496,4.0496,0.0,4.0496,4.0496,4.1031,4.1393,4.1393,4.2162,4.2566,4.2297,4.2797,4.2835,4.2254,4.3028,4.379,4.4415,4.5589,4.6235,4.6288,4.8257,5.0069,5.1668,5.2738,5.4245,5.6074,5.6397,5.656,5.6601,5.6601,5.6601,5.6601,5.6601,5.6445,5.6211,5.6484,5.6426,5.6211,5.6504,5.6601,5.6601,5.0707,5.0707,5.0707,5.0707,5.1125,5.1851,5.3024,5.3664,5.4414,5.5555,5.5708,5.5708,5.5708,5.5247,5.4818,5.453,5.351,5.2601,5.1942,5.1433,5.1015,5.0707,5.0707,5.0707,5.0707,5.0707,5.0707,5.0707,5.0707,5.0707,5.0707,5.0707,5.0707,5.0707,5.0707,5.0707,5.0707,5.0707,5.0707,5.0707,5.0707,5.0707,5.0707,5.0707,5.0707,5.063,5.0072,4.9899,4.9764,4.8875,4.8586,4.8529,4.8197,4.7163,4.609,4.609,4.5859,4.5594,4.5594,4.5594,4.5475,4.4917,4.4532,4.3951,4.26,4.1604,4.0993,4.0993,4.0993,4.0993,4.0993,4.1262,4.1474,4.1474,4.1474,4.1474,4.1474,4.1474,4.1474,4.1474,4.195,4.2293,4.2293,4.3104,4.3632,4.3632,4.3956,4.3917,4.3379,4.4001,4.4731,4.549,4.6566,4.7311,4.7683,4.9711,5.1368,5.2619,5.414,5.5463,5.6601,5.6601,5.6601,5.6601,5.6601,5.6601,5.6601,5.6601,5.6601,5.6601,5.6601,5.6601,5.6601,5.6601,5.6601,5.6601,5.0861,5.0822,5.0784,5.0784,5.0784,5.1323,5.2953,5.3255,5.3876,5.5497,5.5708,5.5708,5.5708,5.5708,5.5401,5.4645,5.453,5.3799,5.2096,5.1923,5.1543,5.0745,5.0707,5.0707,5.0707,5.0707,5.0707,5.0707,5.0707,5.0707,5.0707,5.0707,5.0707,5.0707,5.0707,5.0707,5.0707,5.0707,5.0707,5.0707,5.0707,5.0707,5.0707,5.0707,5.0707,5.0707,5.0707,5.0707,5.0572,4.9764,4.949,4.9356,4.8548,4.7735,4.7043,4.6928,4.6336,4.5686,4.5686,4.5725,4.5763,4.5763,4.5128,4.4278,4.3451,4.2643,4.2043,4.1985,4.1966,4.1966,4.1908,4.2543,4.3104,4.3104,4.3104,4.3104,4.3104,4.3104,4.3089,4.3106,4.3168,4.3191,4.3207,4.4058,4.4601,4.4601,4.541,4.5903,4.5912,4.5143,4.5465,4.7164,4.7324,4.7817,4.8686,5.117,5.2565,5.2917,5.5407,5.6601,5.6601,5.6601,5.6601,5.6601,5.6601,5.6601,5.6601,5.6601,5.6601,5.6601,5.6601,5.6601,5.6601,5.6601,5.6601,5.6601,5.2606,5.2063,5.162,5.162,5.162,5.1967,5.3044,5.376,5.4549,5.5574,5.5708,5.5708,5.5708,5.5708,5.5612,5.5439,5.4857,5.4049,5.2967,5.2274,5.1543,5.0745,5.0707,5.0707,5.0707,5.0707,5.0707,5.0707,5.0707,5.0707,5.0707,5.0707,5.0707,5.0707,5.0707,5.0707,5.0707,5.0707,5.0707,5.0707,5.0707,5.0707,5.0707,5.0707,5.0707,5.0707,5.0707,5.0707,5.0668,5.0457,5.038,5.0361,5.0149,4.9495,4.8567,4.7274,4.6755,4.6581,4.6581,4.7048,4.7509,4.7509,4.6894,4.6067,4.5205,4.4859,4.4513,4.3855,4.3701,4.3528,4.2912,4.297,4.3104,4.3104,4.3104,4.3104,4.3104,4.3104,4.3111,4.3172,4.3766,4.4208,4.4311,4.5084,4.5566,4.5566,4.5769,4.5936,4.6043,4.6462,4.6911,4.7337,4.8648,4.9785,5.0694,5.2626,5.429,5.5662,5.6308,5.6601,5.6601,5.6601,5.6601,5.6601,5.6601,5.6601,5.6601,5.6601,5.6601,5.6601,5.6601,5.6601,5.6601,5.6601,5.6601,5.6601,5.3197,5.2813,5.2486,5.2486,5.2486,5.2794,5.3664,5.4203,5.478,5.5593,5.5708,5.5708,5.5708,5.5708,5.5708,5.5708,5.5304,5.4684,5.3857,5.2986,5.212,5.1279,5.0899,5.0707,5.0707,5.0707,5.0707,5.0707,5.0707,5.0707,5.0707,5.0707,5.0707,5.0707,5.0707,5.0707,5.0707,5.0707,5.0707,5.0707,5.0707,5.0707,5.0707,5.0707,5.0707,5.0707,5.0707,5.0707,5.0707,5.0707,5.0707,5.0707,5.0707,5.0091,4.9221,4.8317,4.7755,4.7447,4.7447,4.7774,4.8101,4.8101,4.7774,4.7312,4.6855,4.6451,4.6067,4.5586,4.549,4.524,4.4397,4.4566,4.4735,4.4396,4.4334,4.4347,4.4376,4.4386,4.4385,4.443,4.4846,4.5166,4.5237,4.5694,4.599,4.599,4.6045,4.6291,4.6764,4.7605,4.8093,4.8093,4.9754,5.1088,5.1992,5.3711,5.5273,5.6601,5.6601,5.6601,5.6601,5.6601,5.6601,5.6601,5.6601,5.6601,5.6601,5.6601,5.6601,5.6601,5.6601,5.6601,5.6601,5.6601,5.6601,5.6601,5.3587,5.3491,5.3395,5.3395,5.3395,5.3645,5.4395,5.4607,5.4934,5.5612,5.5708,5.5708,5.5708,5.5708,5.5708,5.5708,5.5708,5.5362,5.4549,5.3683,5.2813,5.1942,5.1125,5.0707,5.0707,5.0707,5.0707,5.0707,5.0707,5.0707,5.0707,5.0707,5.0707,5.0707,5.0707,5.0707,5.0707,5.0707,5.0707,5.0707,5.0707,5.0707,5.0707,5.0707,5.0707,5.0707,5.0707,5.0707,5.0707,5.0707,5.0707,5.0707,5.0707,5.0188,4.961,4.961,4.9067,4.8471,4.8332,4.8394,4.8471,4.8336,4.8394,4.8471,4.8336,4.7883,4.7467,4.7332,4.7324,4.7064,4.6205,4.664,4.6889,4.6126,4.6015,4.5986,4.5905,4.5901,4.5907,4.5924,4.5926,4.5932,4.5967,4.6053,4.618,4.6317,4.6421,4.6933,4.7949,4.8808,4.9336,4.9473,5.0859,5.207,5.3086,5.4687,5.5879,5.6601,5.6601,5.6601,5.6601,5.6601,5.6601,5.6601,5.6601,5.6601,5.6601,5.6601,5.6601,5.6601,5.6601,5.6601,5.6601,5.6601,5.6601,5.6601,5.5299,5.4761,5.4299,5.4299,5.4299,5.4337,5.4472,5.5074,5.5555,5.5689,5.5708,5.5708,5.5708,5.5708,5.5708,5.5708,5.5708,5.5362,5.4549,5.3683,5.2813,5.1942,5.1125,5.0707,5.0707,5.0707,5.0707,5.0707,5.0707,5.0707,5.0707,5.0707,5.0707,5.0707,5.0707,5.0707,5.0707,5.0707,5.0707,5.0707,5.0707,5.0707,5.0707,5.0707,5.0707,5.0707,5.0707,5.0707,5.0707,5.0707,5.0707,5.0707,5.0707,5.0611,5.0495,5.0495,5.0399,5.0149,4.9394,4.9745,5.0111,4.9375,4.9745,5.0091,4.9375,4.9768,5.007,4.9339,4.9275,4.9084,4.8214,4.8156,4.7964,4.7123,4.697,4.6722,4.5996,4.5901,4.5934,4.6068,4.6075,4.6115,4.6225,4.6267,4.6561,4.7304,4.7383,4.8105,4.9707,5.0566,5.1348,5.209,5.2363,5.3262,5.4883,5.5898,5.6465,5.6601,5.6601,5.6601,5.6601,5.6601,5.6601,5.6601,5.6601,5.6601,5.6601,5.6601,5.6601,5.6601,5.6601,5.6601,5.6601,5.6601,5.6601,5.6601,5.5708,5.5401,5.5151,5.5151,5.5151,5.5151,5.5151,5.5458,5.5708,5.5708,5.5708,5.5708,5.5708,5.5708,5.5708,5.5708,5.5708,5.5362,5.4549,5.3683,5.2813,5.1942,5.1125,5.0707,5.0707,5.0707,5.0707,5.0707,5.0707,5.0707,5.0707,5.0707,5.0707,5.0707,5.0707,5.0707,5.0707,5.0707,5.0707,5.0707,5.0707,5.0707,5.0707,5.0707,5.0707,5.0707,5.0707,5.0758,5.0805,5.0805,5.0863,5.0911,5.0911,5.0911,5.0911,5.0911,5.0814,5.0625,5.0308,5.0497,5.0738,5.0401,5.062,5.0814,5.041,5.0665,5.0896,5.0488,5.045,5.0225,4.9359,4.9203,4.8931,4.8146,4.8017,4.7894,4.7558,4.7523,4.7531,4.7607,4.8018,4.8335,4.8398,4.8789,4.9219,4.9629,4.9648,5.0195,5.1484,5.1894,5.2715,5.4062,5.4101,5.4707,5.5996,5.6406,5.6601,5.6601,5.6601,5.6601,5.6601,5.6601,5.6601,5.6601,5.6601,5.6601,5.6601,5.6601,5.6601,5.6601,5.6601,5.6601,5.6601,5.6601,5.6601,5.6601,5.542,5.5574,5.5708,5.5708,5.5708,5.5708,5.5708,5.5708,5.5708,5.5708,5.5708,5.5708,5.5708,5.5708,5.5708,5.5708,5.5708,5.5266,5.426,5.3568,5.2813,5.1942,5.1125,5.0707,5.0707,5.0707,5.0707,5.0707,5.0707,5.0707,5.0707,5.0707,5.0707,5.0707,5.0707,5.0707,5.0707,5.0707,5.0707,5.0707,5.0707,5.0726,5.0758,5.0758,5.077,5.0799,5.0799,5.0867,5.0952,5.0952,5.1019,5.1091,5.1091,5.1091,5.1091,5.1091,5.0943,5.0818,5.0914,5.0952,5.0966,5.1066,5.1091,5.1091,5.1091,5.1115,5.1116,5.1116,5.1156,5.0961,5.0306,5.0169,4.9937,4.9169,4.9058,4.9087,4.9199,4.9023,4.9043,4.9433,4.9902,5.0273,5.0469,5.1035,5.1484,5.1699,5.1699,5.2168,5.3242,5.3301,5.4004,5.5547,5.5605,5.5918,5.6582,5.6601,5.6601,5.6601,5.6601,5.6601,5.6601,5.6601,5.6601,5.6601,5.6601,5.6601,5.6601,5.6601,5.6601,5.6601,5.6601,5.6601,5.6601,5.6601,5.6601,5.6601,5.4587,5.5189,5.5708,5.5708,5.5708,5.5708,5.5708,5.5708,5.5708,5.5708,5.5708,5.5708,5.5708,5.5708,5.5708,5.5708,5.5708,5.5011,5.339,5.3236,5.2813,5.1942,5.1125,5.0707,5.0707,5.0707,5.0707,5.0707,5.0707,5.0707,5.0707,5.0707,5.0707,5.0707,5.0707,5.0707,5.0707,5.0707,5.0707,5.0707,5.0707,5.0769,5.0886,5.0886,5.0956,5.1061,5.1061,5.1088,5.1096,5.1096,5.1084,5.1091,5.1091,5.1091,5.1091,5.1091,5.1096,5.1063,5.1074,5.1096,5.1098,5.1108,5.1091,5.1091,5.1091,5.1156,5.1195,5.1195,5.1292,5.1366,5.1288,5.1288,5.1015,5.0214,5.0097,5.0097,5.0098,4.9414,4.9473,5.1035,5.0605,5.0488,5.123,5.1367,5.1738,5.2539,5.2598,5.334,5.5019,5.5117,5.5547,5.6465,5.6504,5.6543,5.6601,5.6601,5.6601,5.6601,5.6601,5.6601,5.6601,5.6601,5.6601,5.6601,5.6601,5.6601,5.6601,5.6601,5.6601,5.6601,5.6601,5.6601,5.6601,5.6601,5.6601,5.6601,5.4395,5.4741,5.5107,5.5612,5.5708,5.5708,5.5708,5.5708,5.5708,5.5708,5.5708,5.5708,5.5708,5.5708,5.5708,5.5708,5.5247,5.4453,5.3274,5.2697,5.2024,5.1183,5.0861,5.0707,5.0707,5.0707,5.0707,5.0707,5.0707,5.0707,5.0707,5.0707,5.0707,5.0707,5.0707,5.0707,5.0659,5.0218,5.0022,4.9972,4.951,4.9362,4.9479,5.0009,5.0242,5.0367,5.0914,5.1122,5.1158,5.1158,5.123,5.13,5.13,5.13,5.13,5.13,5.13,5.13,5.13,5.1234,5.1171,5.1272,5.13,5.13,5.13,5.1313,5.1321,5.1321,5.1366,5.1406,5.1406,5.1406,5.1308,5.0996,5.1406,5.1758,5.1758,5.1933,5.2305,5.2949,5.3223,5.3476,5.3789,5.4316,5.4765,5.5098,5.5117,5.541,5.6074,5.6113,5.6269,5.6582,5.6601,5.6601,5.6601,5.6601,5.6601,5.6601,5.6601,5.6601,5.6601,5.6601,5.6601,5.6601,5.6601,5.6601,5.6601,5.6601,5.6601,5.6601,5.6601,5.6601,5.6601,5.6601,5.6601,5.6601,5.3972,5.4511,5.5049,5.5593,5.5708,5.5708,5.5708,5.5708,5.5708,5.5708,5.5708,5.5708,5.5708,5.5708,5.5593,5.5343,5.4818,5.401,5.287,5.2005,5.1279,5.0726,5.0707,5.0707,5.0707,5.0707,5.0707,5.0707,5.0707,5.0707,5.0707,5.0707,5.0707,5.0693,5.0734,5.0607,5.0327,4.9852,4.9501,4.9214,4.8699,4.8528,4.8662,4.9523,4.9898,5.0041,5.0883,5.1213,5.1267,5.1267,5.1321,5.1406,5.1406,5.1406,5.1406,5.1406,5.1406,5.1406,5.1406,5.1323,5.1273,5.1386,5.1406,5.1406,5.1406,5.1406,5.1406,5.1406,5.1621,5.1816,5.1816,5.2031,5.2226,5.2226,5.2715,5.3203,5.3476,5.3808,5.4199,5.4746,5.5098,5.541,5.5683,5.625,5.6601,5.6601,5.6601,5.6601,5.6601,5.6601,5.6601,5.6601,5.6601,5.6601,5.6601,5.6601,5.6601,5.6601,5.6601,5.6601,5.6601,5.6601,5.6601,5.6601,5.6601,5.6601,5.6601,5.6601,5.6601,5.6601,5.6601,5.6601,5.6601,5.6601,5.6601,5.6601,5.3217,5.4549,5.5689,5.5708,5.5708,5.5708,5.5708,5.5708,5.5708,5.5708,5.5708,5.5708,5.5708,5.5689,5.5381,5.4568,5.4491,5.3741,5.2,5.1144,5.0707,5.0707,5.0707,5.0707,5.0707,5.0707,5.0707,5.0707,5.0693,5.0693,5.0693,5.0693,5.0697,5.0707,5.084,5.0417,4.9604,4.9737,4.9289,4.8485,4.8485,4.8561,4.8799,4.9658,5.0081,5.0312,5.1113,5.1406,5.1406,5.1406,5.1406,5.1406,5.1406,5.1406,5.1406,5.1406,5.1406,5.1406,5.1406,5.1406,5.1406,5.1406,5.1406,5.1406,5.1406,5.1406,5.1406,5.1406,5.2109,5.2715,5.2715,5.3418,5.4004,5.4004,5.4004,5.4316,5.5176,5.4551,5.4668,5.6387,5.584,5.5644,5.6523,5.6601,5.6601,5.6601,5.6601,5.6601,5.6601,5.6601,5.6601,5.6601,5.6601,5.6601,5.6601,5.6601,5.6601,5.6601,5.6601,5.6601,5.6601,5.6601,5.6601,5.6601,5.6601,5.6601,5.6601,5.6601,5.6601,5.6601,5.6601,5.6601,5.6601,5.6601,5.6601,5.6601,5.3991,5.4511,5.5035,5.5593,5.5708,5.5708,5.5708,5.5708,5.5708,5.5708,5.5708,5.5708,5.5708,5.5208,5.4761,5.4511,5.3371,5.2217,5.1125,5.0822,5.0707,5.0707,5.0707,5.0707,5.0707,5.0707,5.0707,5.0707,5.078,5.084,5.084,5.0939,5.0642,5.0096,5.0753,5.0223,4.8841,4.8974,4.8527,4.7672,4.7155,4.7351,4.8023,4.8902,4.9627,5.0312,5.1113,5.1406,5.1406,5.1406,5.1406,5.1406,5.1406,5.1406,5.1406,5.1406,5.1406,5.1406,5.1406,5.1406,5.1406,5.1406,5.1406,5.1406,5.1406,5.1875,5.2305,5.2305,5.3008,5.3613,5.3613,5.3828,5.4004,5.4004,5.4512,5.5,5.5254,5.5605,5.6015,5.6543,5.6367,5.6308,5.6562,5.6601,5.6601,5.6601,5.6601,5.6601,5.6601,5.6601,5.6601,5.6601,5.6601,5.6601,5.6601,5.6601,5.6601,5.6601,5.6601,5.6601,5.6601,5.6601,5.6601,5.6601,5.6601,5.6601,5.6601,5.6601,5.6601,5.6601,5.6601,5.6601,5.6601,5.6601,5.6601,5.6601,5.3818,5.426,5.4741,5.5555,5.5708,5.5708,5.5708,5.5708,5.5708,5.5708,5.5708,5.5574,5.5266,5.478,5.4222,5.353,5.2222,5.1221,5.0726,5.0707,5.0716,5.0773,5.0721,5.0707,5.0707,5.0707,5.074,5.0773,5.0867,5.0928,5.0979,5.1053,5.0816,5.035,5.0888,5.0381,4.9075,4.8866,4.8283,4.7406,4.662,4.6816,4.7695,4.8574,4.9433,5.0312,5.1113,5.1406,5.1406,5.1406,5.1406,5.1406,5.1406,5.1406,5.1406,5.1406,5.1406,5.1406,5.1406,5.1406,5.1406,5.1406,5.1406,5.1484,5.1836,5.2324,5.2793,5.3144,5.3906,5.4512,5.4512,5.4805,5.5039,5.5039,5.5469,5.5801,5.5801,5.6269,5.6601,5.6601,5.6601,5.6601,5.6601,5.6601,5.6601,5.6601,5.6601,5.6601,5.6601,5.6601,5.6601,5.6601,5.6601,5.6601,5.6601,5.6601,5.6601,5.6601,5.6601,5.6601,5.6601,5.6601,5.6601,5.6601,5.6601,5.6601,5.6601,5.6601,5.6601,5.6601,5.6601,5.6601,5.6601,5.6601,5.6601,5.6601,5.3159,5.401,5.4838,5.5574,5.5708,5.5708,5.5708,5.5708,5.567,5.5593,5.5593,5.5285,5.4472,5.4318,5.3626,5.2038,5.1164,5.0707,5.0707,5.0707,5.0752,5.0875,5.0769,5.0721,5.0721,5.0721,5.0782,5.0914,5.0912,5.0981,5.1108,5.112,5.1085,5.1031,5.1163,5.0722,4.9866,4.9274,4.8476,4.7539,4.6816,4.7012,4.7812,4.8672,4.9551,5.0391,5.1133,5.1406,5.1406,5.1406,5.1406,5.1406,5.1406,5.1406,5.1406,5.1406,5.1406,5.1406,5.1406,5.1406,5.1406,5.1406,5.1406,5.1621,5.25,5.2812,5.3164,5.3945,5.4805,5.543,5.543,5.6055,5.6601,5.6601,5.6601,5.6601,5.6601,5.6601,5.6601,5.6601,5.6601,5.6601,5.6601,5.6601,5.6601,5.6601,5.6601,5.6601,5.6601,5.6601,5.6601,5.6601,5.6601,5.6601,5.6601,5.6601,5.6601,5.6601,5.6601,5.6601,5.6601,5.6601,5.6601,5.6601,5.6601,5.6601,5.6601,5.6601,5.6601,5.6601,5.6601,5.6601,5.6601,5.6601,5.6601,5.6601,5.4184,5.4876,5.5497,5.567,5.5708,5.5708,5.5708,5.5708,5.5478,5.4838,5.4761,5.4434,5.3587,5.287,5.2313,5.1923,5.1164,5.0707,5.0707,5.0707,5.0712,5.0749,5.0818,5.0863,5.0863,5.0863,5.0921,5.1067,5.1111,5.1141,5.118,5.1286,5.1006,5.042,5.107,5.0525,4.9177,4.9707,4.9023,4.7637,4.8144,4.8457,4.8711,4.959,5.043,5.1152,5.1348,5.1406,5.1406,5.1406,5.1406,5.1406,5.1406,5.1406,5.1406,5.1406,5.1406,5.1406,5.1406,5.1406,5.1406,5.1406,5.1406,5.1621,5.25,5.3769,5.4785,5.498,5.5703,5.6328,5.6328,5.6465,5.6601,5.6601,5.6601,5.6601,5.6601,5.6601,5.6601,5.6601,5.6601,5.6601,5.6601,5.6601,5.6601,5.6601,5.6601,5.6601,5.6601,5.6601,5.6601,5.6601,5.6601,5.6601,5.6601,5.6601,5.6601,5.6601,5.6601,5.6601,5.6601,5.6601,5.6601,5.6601,5.6601,5.6601,5.6601,5.6601,5.6601,5.6601,5.6601,5.6601,5.6601,5.6601,5.6601,5.6601,5.4414,5.4838,5.5131,5.5131,5.5131,5.4991,5.4568,5.4511,5.4357,5.3933,5.3876,5.3549,5.2678,5.2178,5.1755,5.1356,5.1008,5.0804,5.0804,5.0859,5.0918,5.0946,5.0975,5.1047,5.1146,5.1078,5.1078,5.1156,5.1184,5.1236,5.1296,5.1366,5.1172,5.0781,5.1211,5.0918,5.0098,5.0176,4.9668,4.8848,4.8887,4.9141,4.957,5.0039,5.0703,5.1406,5.1406,5.1406,5.1406,5.1406,5.1406,5.1406,5.1406,5.1406,5.1406,5.1406,5.1406,5.1406,5.1406,5.1406,5.1406,5.1406,5.1657,5.2161,5.3105,5.4023,5.4922,5.5742,5.6289,5.6601,5.6601,5.6601,5.6601,5.6601,5.6601,5.6601,5.6601,5.6601,5.6601,5.6601,5.6601,5.6601,5.6601,5.6601,5.6601,5.6601,5.6601,5.6601,5.6601,5.6601,5.6601,5.6601,5.6601,5.6601,5.6601,5.6601,5.6601,5.6601,5.6601,5.6601,5.6601,5.6601,5.6601,5.6601,5.6601,5.6601,5.6601,5.6601,5.6601,5.6601,5.6601,5.6601,5.6601,5.6601,5.6601,5.6601,5.3914,5.4184,5.4295,5.4303,5.4308,5.4072,5.3379,5.3268,5.321,5.3075,5.3056,5.2709,5.186,5.1764,5.1499,5.0833,5.0863,5.0935,5.0935,5.1048,5.1118,5.1181,5.1145,5.1205,5.1365,5.1272,5.1237,5.1237,5.1237,5.1294,5.1406,5.1406,5.1406,5.1406,5.1406,5.1406,5.1367,5.0683,5.0332,5.0156,4.9551,4.9687,5.0215,5.0351,5.082,5.1406,5.1406,5.1406,5.1406,5.1406,5.1406,5.1406,5.1406,5.1406,5.1406,5.1406,5.1406,5.1387,5.1366,5.1366,5.1365,5.1343,5.1808,5.2529,5.3486,5.3823,5.433,5.5795,5.6205,5.6303,5.6303,5.6442,5.6561,5.6561,5.6582,5.6601,5.6601,5.6601,5.6601,5.6601,5.6601,5.6601,5.6601,5.6601,5.6601,5.6601,5.6601,5.6601,5.6601,5.6601,5.6601,5.6601,5.6601,5.6601,5.6601,5.6601,5.6601,5.6601,5.6601,5.6601,5.6601,5.6601,5.6601,5.6601,5.6601,5.6601,5.6601,5.6601,5.6601,5.6601,5.6601,5.6601,5.6601,5.6601,5.6601,5.6601,5.2236,5.2851,5.3407,5.3535,5.3548,5.3549,5.3543,5.3545,5.3276,5.2521,5.2424,5.2116,5.1306,5.1209,5.117,5.1056,5.1053,5.1063,5.1063,5.1081,5.1099,5.1117,5.1156,5.1197,5.1234,5.1321,5.1366,5.1366,5.1366,5.1386,5.1406,5.1406,5.1406,5.1406,5.1406,5.1406,5.1387,5.1289,5.084,5.0254,5.082,5.0723,5.0273,5.0976,5.1308,5.1406,5.1406,5.1406,5.1406,5.1406,5.1406,5.1406,5.1406,5.1406,5.1406,5.1406,5.1406,5.1366,5.1265,5.1234,5.1201,5.1166,5.1228,5.1514,5.2332,5.3119,5.3725,5.3961,5.46,5.5124,5.5124,5.5836,5.6424,5.6424,5.6515,5.6601,5.6601,5.6601,5.6601,5.6601,5.6601,5.6601,5.6601,5.6601,5.6601,5.6601,5.6601,5.6601,5.6601,5.6601,5.6601,5.6601,5.6601,5.6601,5.6601,5.6601,5.6601,5.6601,5.6601,5.6601,5.6601,5.6601,5.6601,5.6601,5.6601,5.6601,5.6601,5.6601,5.6601,5.6601,5.6601,5.6601,5.6601,5.6601,5.6601,5.6601,5.2844,5.3154,5.3296,5.2858,5.2793,5.2643,5.2263,5.2193,5.2079,5.167,5.1631,5.1497,5.115,5.1091,5.1091,5.1091,5.1135,5.1169,5.1169,5.1231,5.127,5.127,5.1291,5.1319,5.1319,5.1366,5.1406,5.1406,5.1406,5.1406,5.1406,5.1406,5.1406,5.1406,5.1406,5.1406,5.1406,5.1406,5.1191,5.0898,5.1269,5.1191,5.0918,5.1269,5.1406,5.1406,5.1406,5.1406,5.1406,5.1406,5.1406,5.1386,5.1319,5.1294,5.1289,5.1239,5.1227,5.122,5.1163,5.1131,5.1139,5.1106,5.1034,5.1085,5.1441,5.176,5.2295,5.3374,5.4297,5.4896,5.4896,5.566,5.6295,5.6295,5.6391,5.6487,5.6487,5.6559,5.6601,5.6601,5.6601,5.6601,5.6601,5.6601,5.6601,5.6601,5.6601,5.6601,5.6601,5.6601,5.6601,5.6601,5.6601,5.6601,5.6601,5.6601,5.6601,5.6601,5.6601,5.6601,5.6601,5.6601,5.6601,5.6601,5.6601,5.6601,5.6601,5.6601,5.6601,5.6601,5.6601,5.6601,5.6601,5.6601,5.6601,5.6601]}]]